<?xml version="1.0" encoding="UTF-8" standalone="no" ?>
<gpx xmlns="http://www.topografix.com/GPX/1/1" xmlns:xsi="http://www.w3.org/2001/XMLSchema-instance" xsi:schemaLocation="http://www.topografix.com/GPX/1/1 http://www.topografix.com/GPX/1/1/gpx.xsd" version="1.1" creator="VisuGPX - https://www.visugpx.com">
  <metadata>
    <name>Plouzane - St Renan</name>
  </metadata>
  <trk>
    <name><![CDATA[Plouzane - St Renan_1]]></name>
    <extensions>
      <line xmlns="http://www.topografix.com/GPX/gpx_style/0/2">
        <color>00FF00</color>
        <width>4</width>
      </line>
    </extensions>
    <trkseg>
      <trkpt lat="48.35965" lon="-4.58203">
        <ele>81.85</ele>
        <time>2021-06-27T08:48:19Z</time>
      </trkpt>
      <trkpt lat="48.35969" lon="-4.58205">
        <ele>81.85</ele>
        <time>2021-06-27T08:48:20Z</time>
      </trkpt>
      <trkpt lat="48.35973" lon="-4.58207">
        <ele>81.37</ele>
        <time>2021-06-27T08:48:21Z</time>
      </trkpt>
      <trkpt lat="48.35977" lon="-4.58209">
        <ele>81.37</ele>
        <time>2021-06-27T08:48:22Z</time>
      </trkpt>
      <trkpt lat="48.35981" lon="-4.58212">
        <ele>81.37</ele>
        <time>2021-06-27T08:48:23Z</time>
      </trkpt>
      <trkpt lat="48.3602" lon="-4.58238">
        <ele>83.29</ele>
        <time>2021-06-27T08:48:32Z</time>
      </trkpt>
      <trkpt lat="48.36041" lon="-4.58255">
        <ele>84.73</ele>
        <time>2021-06-27T08:48:37Z</time>
      </trkpt>
      <trkpt lat="48.36045" lon="-4.58258">
        <ele>84.73</ele>
        <time>2021-06-27T08:48:38Z</time>
      </trkpt>
      <trkpt lat="48.36114" lon="-4.5831">
        <ele>86.66</ele>
        <time>2021-06-27T08:48:54Z</time>
      </trkpt>
      <trkpt lat="48.36174" lon="-4.58366">
        <ele>88.58</ele>
        <time>2021-06-27T08:49:08Z</time>
      </trkpt>
      <trkpt lat="48.36206" lon="-4.58393">
        <ele>89.06</ele>
        <time>2021-06-27T08:49:15Z</time>
      </trkpt>
      <trkpt lat="48.3621" lon="-4.58397">
        <ele>89.54</ele>
        <time>2021-06-27T08:49:16Z</time>
      </trkpt>
      <trkpt lat="48.36286" lon="-4.58463">
        <ele>90.02</ele>
        <time>2021-06-27T08:49:33Z</time>
      </trkpt>
      <trkpt lat="48.36295" lon="-4.58464">
        <ele>91.46</ele>
        <time>2021-06-27T08:49:38Z</time>
      </trkpt>
      <trkpt lat="48.36308" lon="-4.5846">
        <ele>90.98</ele>
        <time>2021-06-27T08:49:43Z</time>
      </trkpt>
      <trkpt lat="48.36327" lon="-4.58467">
        <ele>90.02</ele>
        <time>2021-06-27T08:49:47Z</time>
      </trkpt>
      <trkpt lat="48.36365" lon="-4.5848">
        <ele>88.58</ele>
        <time>2021-06-27T08:49:54Z</time>
      </trkpt>
      <trkpt lat="48.36371" lon="-4.5848">
        <ele>88.58</ele>
        <time>2021-06-27T08:49:55Z</time>
      </trkpt>
      <trkpt lat="48.36377" lon="-4.5848">
        <ele>88.58</ele>
        <time>2021-06-27T08:49:56Z</time>
      </trkpt>
      <trkpt lat="48.36383" lon="-4.58478">
        <ele>88.1</ele>
        <time>2021-06-27T08:49:57Z</time>
      </trkpt>
      <trkpt lat="48.36389" lon="-4.58476">
        <ele>88.1</ele>
        <time>2021-06-27T08:49:58Z</time>
      </trkpt>
      <trkpt lat="48.36395" lon="-4.58473">
        <ele>87.62</ele>
        <time>2021-06-27T08:49:59Z</time>
      </trkpt>
      <trkpt lat="48.36485" lon="-4.58452">
        <ele>88.1</ele>
        <time>2021-06-27T08:50:14Z</time>
      </trkpt>
      <trkpt lat="48.36557" lon="-4.58473">
        <ele>86.66</ele>
        <time>2021-06-27T08:50:25Z</time>
      </trkpt>
      <trkpt lat="48.36563" lon="-4.58477">
        <ele>86.66</ele>
        <time>2021-06-27T08:50:26Z</time>
      </trkpt>
      <trkpt lat="48.36665" lon="-4.58574">
        <ele>85.69</ele>
        <time>2021-06-27T08:50:43Z</time>
      </trkpt>
      <trkpt lat="48.36726" lon="-4.58689">
        <ele>86.66</ele>
        <time>2021-06-27T08:50:58Z</time>
      </trkpt>
      <trkpt lat="48.36731" lon="-4.58695">
        <ele>86.66</ele>
        <time>2021-06-27T08:50:59Z</time>
      </trkpt>
      <trkpt lat="48.36834" lon="-4.58803">
        <ele>86.66</ele>
        <time>2021-06-27T08:51:18Z</time>
      </trkpt>
      <trkpt lat="48.36865" lon="-4.58829">
        <ele>84.25</ele>
        <time>2021-06-27T08:51:23Z</time>
      </trkpt>
      <trkpt lat="48.36872" lon="-4.5883">
        <ele>84.25</ele>
        <time>2021-06-27T08:51:24Z</time>
      </trkpt>
      <trkpt lat="48.36879" lon="-4.58827">
        <ele>84.25</ele>
        <time>2021-06-27T08:51:25Z</time>
      </trkpt>
      <trkpt lat="48.36886" lon="-4.58822">
        <ele>84.25</ele>
        <time>2021-06-27T08:51:26Z</time>
      </trkpt>
      <trkpt lat="48.36892" lon="-4.58818">
        <ele>83.77</ele>
        <time>2021-06-27T08:51:27Z</time>
      </trkpt>
      <trkpt lat="48.369" lon="-4.58816">
        <ele>83.77</ele>
        <time>2021-06-27T08:51:28Z</time>
      </trkpt>
      <trkpt lat="48.36907" lon="-4.58818">
        <ele>83.77</ele>
        <time>2021-06-27T08:51:29Z</time>
      </trkpt>
      <trkpt lat="48.36913" lon="-4.58822">
        <ele>83.77</ele>
        <time>2021-06-27T08:51:30Z</time>
      </trkpt>
      <trkpt lat="48.3692" lon="-4.58826">
        <ele>83.77</ele>
        <time>2021-06-27T08:51:31Z</time>
      </trkpt>
      <trkpt lat="48.36966" lon="-4.58864">
        <ele>87.14</ele>
        <time>2021-06-27T08:51:40Z</time>
      </trkpt>
      <trkpt lat="48.36971" lon="-4.58868">
        <ele>87.62</ele>
        <time>2021-06-27T08:51:41Z</time>
      </trkpt>
      <trkpt lat="48.36975" lon="-4.58872">
        <ele>87.62</ele>
        <time>2021-06-27T08:51:42Z</time>
      </trkpt>
      <trkpt lat="48.37031" lon="-4.58918">
        <ele>90.98</ele>
        <time>2021-06-27T08:51:55Z</time>
      </trkpt>
      <trkpt lat="48.37048" lon="-4.58931">
        <ele>91.46</ele>
        <time>2021-06-27T08:51:59Z</time>
      </trkpt>
      <trkpt lat="48.37053" lon="-4.58935">
        <ele>91.46</ele>
        <time>2021-06-27T08:52:00Z</time>
      </trkpt>
      <trkpt lat="48.37057" lon="-4.58939">
        <ele>91.94</ele>
        <time>2021-06-27T08:52:01Z</time>
      </trkpt>
      <trkpt lat="48.37065" lon="-4.58946">
        <ele>92.42</ele>
        <time>2021-06-27T08:52:03Z</time>
      </trkpt>
      <trkpt lat="48.37088" lon="-4.58965">
        <ele>92.9</ele>
        <time>2021-06-27T08:52:09Z</time>
      </trkpt>
      <trkpt lat="48.37112" lon="-4.58972">
        <ele>93.87</ele>
        <time>2021-06-27T08:52:15Z</time>
      </trkpt>
      <trkpt lat="48.37115" lon="-4.58968">
        <ele>93.87</ele>
        <time>2021-06-27T08:52:16Z</time>
      </trkpt>
      <trkpt lat="48.37119" lon="-4.58964">
        <ele>93.87</ele>
        <time>2021-06-27T08:52:17Z</time>
      </trkpt>
      <trkpt lat="48.37123" lon="-4.58961">
        <ele>93.87</ele>
        <time>2021-06-27T08:52:18Z</time>
      </trkpt>
      <trkpt lat="48.37127" lon="-4.58961">
        <ele>93.87</ele>
        <time>2021-06-27T08:52:19Z</time>
      </trkpt>
      <trkpt lat="48.37131" lon="-4.58962">
        <ele>93.87</ele>
        <time>2021-06-27T08:52:20Z</time>
      </trkpt>
      <trkpt lat="48.37135" lon="-4.58964">
        <ele>94.35</ele>
        <time>2021-06-27T08:52:21Z</time>
      </trkpt>
      <trkpt lat="48.37139" lon="-4.58967">
        <ele>94.35</ele>
        <time>2021-06-27T08:52:22Z</time>
      </trkpt>
      <trkpt lat="48.37143" lon="-4.5897">
        <ele>94.35</ele>
        <time>2021-06-27T08:52:23Z</time>
      </trkpt>
      <trkpt lat="48.37191" lon="-4.58999">
        <ele>94.83</ele>
        <time>2021-06-27T08:52:34Z</time>
      </trkpt>
      <trkpt lat="48.37195" lon="-4.58999">
        <ele>94.83</ele>
        <time>2021-06-27T08:52:35Z</time>
      </trkpt>
      <trkpt lat="48.37199" lon="-4.58996">
        <ele>94.83</ele>
        <time>2021-06-27T08:52:36Z</time>
      </trkpt>
      <trkpt lat="48.37201" lon="-4.58989">
        <ele>94.83</ele>
        <time>2021-06-27T08:52:37Z</time>
      </trkpt>
      <trkpt lat="48.37202" lon="-4.58984">
        <ele>94.83</ele>
        <time>2021-06-27T08:52:38Z</time>
      </trkpt>
      <trkpt lat="48.37222" lon="-4.58927">
        <ele>94.83</ele>
        <time>2021-06-27T08:52:47Z</time>
      </trkpt>
      <trkpt lat="48.37226" lon="-4.58925">
        <ele>94.83</ele>
        <time>2021-06-27T08:52:48Z</time>
      </trkpt>
      <trkpt lat="48.37231" lon="-4.58923">
        <ele>94.83</ele>
        <time>2021-06-27T08:52:49Z</time>
      </trkpt>
      <trkpt lat="48.37235" lon="-4.58923">
        <ele>94.83</ele>
        <time>2021-06-27T08:52:50Z</time>
      </trkpt>
      <trkpt lat="48.37239" lon="-4.58925">
        <ele>94.83</ele>
        <time>2021-06-27T08:52:51Z</time>
      </trkpt>
      <trkpt lat="48.37244" lon="-4.58928">
        <ele>95.31</ele>
        <time>2021-06-27T08:52:52Z</time>
      </trkpt>
      <trkpt lat="48.37249" lon="-4.58932">
        <ele>95.31</ele>
        <time>2021-06-27T08:52:53Z</time>
      </trkpt>
      <trkpt lat="48.37271" lon="-4.58951">
        <ele>95.79</ele>
        <time>2021-06-27T08:52:58Z</time>
      </trkpt>
      <trkpt lat="48.37275" lon="-4.58954">
        <ele>95.79</ele>
        <time>2021-06-27T08:52:59Z</time>
      </trkpt>
      <trkpt lat="48.37279" lon="-4.58955">
        <ele>95.79</ele>
        <time>2021-06-27T08:53:00Z</time>
      </trkpt>
      <trkpt lat="48.37287" lon="-4.58957">
        <ele>96.27</ele>
        <time>2021-06-27T08:53:03Z</time>
      </trkpt>
      <trkpt lat="48.37288" lon="-4.58955">
        <ele>96.27</ele>
        <time>2021-06-27T08:53:04Z</time>
      </trkpt>
      <trkpt lat="48.37289" lon="-4.58953">
        <ele>96.27</ele>
        <time>2021-06-27T08:53:05Z</time>
      </trkpt>
      <trkpt lat="48.3729" lon="-4.58949">
        <ele>96.27</ele>
        <time>2021-06-27T08:53:06Z</time>
      </trkpt>
      <trkpt lat="48.37292" lon="-4.58944">
        <ele>96.27</ele>
        <time>2021-06-27T08:53:07Z</time>
      </trkpt>
      <trkpt lat="48.37294" lon="-4.58939">
        <ele>96.27</ele>
        <time>2021-06-27T08:53:08Z</time>
      </trkpt>
      <trkpt lat="48.37298" lon="-4.58927">
        <ele>96.27</ele>
        <time>2021-06-27T08:53:10Z</time>
      </trkpt>
      <trkpt lat="48.37301" lon="-4.58921">
        <ele>96.27</ele>
        <time>2021-06-27T08:53:11Z</time>
      </trkpt>
      <trkpt lat="48.37312" lon="-4.589">
        <ele>96.27</ele>
        <time>2021-06-27T08:53:15Z</time>
      </trkpt>
      <trkpt lat="48.3732" lon="-4.58891">
        <ele>96.27</ele>
        <time>2021-06-27T08:53:17Z</time>
      </trkpt>
      <trkpt lat="48.37338" lon="-4.58868">
        <ele>95.31</ele>
        <time>2021-06-27T08:53:22Z</time>
      </trkpt>
      <trkpt lat="48.37343" lon="-4.58869">
        <ele>95.31</ele>
        <time>2021-06-27T08:53:23Z</time>
      </trkpt>
      <trkpt lat="48.37347" lon="-4.5887">
        <ele>95.31</ele>
        <time>2021-06-27T08:53:24Z</time>
      </trkpt>
      <trkpt lat="48.3735" lon="-4.58873">
        <ele>95.31</ele>
        <time>2021-06-27T08:53:25Z</time>
      </trkpt>
      <trkpt lat="48.37355" lon="-4.58876">
        <ele>95.31</ele>
        <time>2021-06-27T08:53:26Z</time>
      </trkpt>
      <trkpt lat="48.37359" lon="-4.58879">
        <ele>95.31</ele>
        <time>2021-06-27T08:53:27Z</time>
      </trkpt>
      <trkpt lat="48.37363" lon="-4.58883">
        <ele>95.31</ele>
        <time>2021-06-27T08:53:28Z</time>
      </trkpt>
      <trkpt lat="48.37452" lon="-4.58954">
        <ele>95.31</ele>
        <time>2021-06-27T08:53:45Z</time>
      </trkpt>
      <trkpt lat="48.37485" lon="-4.58974">
        <ele>94.35</ele>
        <time>2021-06-27T08:53:51Z</time>
      </trkpt>
      <trkpt lat="48.37547" lon="-4.5901">
        <ele>92.42</ele>
        <time>2021-06-27T08:54:02Z</time>
      </trkpt>
      <trkpt lat="48.37568" lon="-4.59019">
        <ele>92.42</ele>
        <time>2021-06-27T08:54:06Z</time>
      </trkpt>
      <trkpt lat="48.37571" lon="-4.59022">
        <ele>92.42</ele>
        <time>2021-06-27T08:54:07Z</time>
      </trkpt>
      <trkpt lat="48.37573" lon="-4.59024">
        <ele>92.42</ele>
        <time>2021-06-27T08:54:08Z</time>
      </trkpt>
      <trkpt lat="48.37574" lon="-4.59026">
        <ele>92.42</ele>
        <time>2021-06-27T08:54:09Z</time>
      </trkpt>
      <trkpt lat="48.37574" lon="-4.59029">
        <ele>92.42</ele>
        <time>2021-06-27T08:54:10Z</time>
      </trkpt>
      <trkpt lat="48.37572" lon="-4.59032">
        <ele>92.42</ele>
        <time>2021-06-27T08:54:11Z</time>
      </trkpt>
      <trkpt lat="48.37571" lon="-4.59034">
        <ele>92.42</ele>
        <time>2021-06-27T08:54:12Z</time>
      </trkpt>
      <trkpt lat="48.37567" lon="-4.59041">
        <ele>92.42</ele>
        <time>2021-06-27T08:54:15Z</time>
      </trkpt>
      <trkpt lat="48.37567" lon="-4.59045">
        <ele>92.42</ele>
        <time>2021-06-27T08:54:16Z</time>
      </trkpt>
      <trkpt lat="48.37567" lon="-4.59051">
        <ele>92.42</ele>
        <time>2021-06-27T08:54:17Z</time>
      </trkpt>
      <trkpt lat="48.3756" lon="-4.59102">
        <ele>92.42</ele>
        <time>2021-06-27T08:54:24Z</time>
      </trkpt>
      <trkpt lat="48.37561" lon="-4.59111">
        <ele>92.42</ele>
        <time>2021-06-27T08:54:25Z</time>
      </trkpt>
      <trkpt lat="48.37562" lon="-4.59118">
        <ele>92.42</ele>
        <time>2021-06-27T08:54:26Z</time>
      </trkpt>
      <trkpt lat="48.37565" lon="-4.59126">
        <ele>92.42</ele>
        <time>2021-06-27T08:54:27Z</time>
      </trkpt>
      <trkpt lat="48.37569" lon="-4.59133">
        <ele>91.94</ele>
        <time>2021-06-27T08:54:28Z</time>
      </trkpt>
      <trkpt lat="48.37573" lon="-4.5914">
        <ele>91.94</ele>
        <time>2021-06-27T08:54:29Z</time>
      </trkpt>
      <trkpt lat="48.37578" lon="-4.59147">
        <ele>91.94</ele>
        <time>2021-06-27T08:54:30Z</time>
      </trkpt>
      <trkpt lat="48.37587" lon="-4.59161">
        <ele>91.94</ele>
        <time>2021-06-27T08:54:32Z</time>
      </trkpt>
      <trkpt lat="48.37595" lon="-4.59177">
        <ele>91.46</ele>
        <time>2021-06-27T08:54:34Z</time>
      </trkpt>
      <trkpt lat="48.37611" lon="-4.59213">
        <ele>90.5</ele>
        <time>2021-06-27T08:54:38Z</time>
      </trkpt>
      <trkpt lat="48.37614" lon="-4.59223">
        <ele>90.5</ele>
        <time>2021-06-27T08:54:39Z</time>
      </trkpt>
      <trkpt lat="48.37619" lon="-4.59254">
        <ele>90.02</ele>
        <time>2021-06-27T08:54:42Z</time>
      </trkpt>
      <trkpt lat="48.37622" lon="-4.59263">
        <ele>90.02</ele>
        <time>2021-06-27T08:54:43Z</time>
      </trkpt>
      <trkpt lat="48.37623" lon="-4.59272">
        <ele>90.02</ele>
        <time>2021-06-27T08:54:44Z</time>
      </trkpt>
      <trkpt lat="48.37626" lon="-4.59292">
        <ele>90.02</ele>
        <time>2021-06-27T08:54:46Z</time>
      </trkpt>
      <trkpt lat="48.37627" lon="-4.59301">
        <ele>90.02</ele>
        <time>2021-06-27T08:54:47Z</time>
      </trkpt>
      <trkpt lat="48.37629" lon="-4.59308">
        <ele>90.02</ele>
        <time>2021-06-27T08:54:48Z</time>
      </trkpt>
      <trkpt lat="48.37632" lon="-4.59315">
        <ele>90.02</ele>
        <time>2021-06-27T08:54:49Z</time>
      </trkpt>
      <trkpt lat="48.37635" lon="-4.59321">
        <ele>90.02</ele>
        <time>2021-06-27T08:54:50Z</time>
      </trkpt>
      <trkpt lat="48.37642" lon="-4.59334">
        <ele>89.06</ele>
        <time>2021-06-27T08:54:52Z</time>
      </trkpt>
      <trkpt lat="48.37682" lon="-4.59401">
        <ele>86.18</ele>
        <time>2021-06-27T08:55:00Z</time>
      </trkpt>
      <trkpt lat="48.37688" lon="-4.59409">
        <ele>85.69</ele>
        <time>2021-06-27T08:55:01Z</time>
      </trkpt>
      <trkpt lat="48.37694" lon="-4.59418">
        <ele>85.69</ele>
        <time>2021-06-27T08:55:02Z</time>
      </trkpt>
      <trkpt lat="48.37706" lon="-4.59436">
        <ele>84.25</ele>
        <time>2021-06-27T08:55:04Z</time>
      </trkpt>
      <trkpt lat="48.37711" lon="-4.59445">
        <ele>84.73</ele>
        <time>2021-06-27T08:55:05Z</time>
      </trkpt>
      <trkpt lat="48.37721" lon="-4.59469">
        <ele>83.77</ele>
        <time>2021-06-27T08:55:08Z</time>
      </trkpt>
      <trkpt lat="48.37727" lon="-4.59475">
        <ele>83.29</ele>
        <time>2021-06-27T08:55:09Z</time>
      </trkpt>
      <trkpt lat="48.37758" lon="-4.59499">
        <ele>80.41</ele>
        <time>2021-06-27T08:55:14Z</time>
      </trkpt>
      <trkpt lat="48.37764" lon="-4.59507">
        <ele>79.93</ele>
        <time>2021-06-27T08:55:15Z</time>
      </trkpt>
      <trkpt lat="48.37769" lon="-4.59514">
        <ele>79.93</ele>
        <time>2021-06-27T08:55:16Z</time>
      </trkpt>
      <trkpt lat="48.37794" lon="-4.59567">
        <ele>80.41</ele>
        <time>2021-06-27T08:55:22Z</time>
      </trkpt>
      <trkpt lat="48.37798" lon="-4.59574">
        <ele>80.41</ele>
        <time>2021-06-27T08:55:23Z</time>
      </trkpt>
      <trkpt lat="48.37808" lon="-4.59587">
        <ele>80.41</ele>
        <time>2021-06-27T08:55:25Z</time>
      </trkpt>
      <trkpt lat="48.37813" lon="-4.59592">
        <ele>80.41</ele>
        <time>2021-06-27T08:55:26Z</time>
      </trkpt>
      <trkpt lat="48.37819" lon="-4.59596">
        <ele>81.37</ele>
        <time>2021-06-27T08:55:27Z</time>
      </trkpt>
      <trkpt lat="48.37865" lon="-4.59622">
        <ele>82.33</ele>
        <time>2021-06-27T08:55:37Z</time>
      </trkpt>
      <trkpt lat="48.37869" lon="-4.59624">
        <ele>82.81</ele>
        <time>2021-06-27T08:55:38Z</time>
      </trkpt>
      <trkpt lat="48.37909" lon="-4.59648">
        <ele>83.29</ele>
        <time>2021-06-27T08:55:46Z</time>
      </trkpt>
      <trkpt lat="48.37913" lon="-4.59651">
        <ele>83.29</ele>
        <time>2021-06-27T08:55:47Z</time>
      </trkpt>
      <trkpt lat="48.37924" lon="-4.59656">
        <ele>83.29</ele>
        <time>2021-06-27T08:55:49Z</time>
      </trkpt>
      <trkpt lat="48.37928" lon="-4.59657">
        <ele>83.29</ele>
        <time>2021-06-27T08:55:50Z</time>
      </trkpt>
      <trkpt lat="48.37933" lon="-4.59658">
        <ele>83.29</ele>
        <time>2021-06-27T08:55:51Z</time>
      </trkpt>
      <trkpt lat="48.37964" lon="-4.59673">
        <ele>83.29</ele>
        <time>2021-06-27T08:56:00Z</time>
      </trkpt>
      <trkpt lat="48.37997" lon="-4.59684">
        <ele>83.29</ele>
        <time>2021-06-27T08:56:11Z</time>
      </trkpt>
      <trkpt lat="48.38034" lon="-4.59697">
        <ele>83.29</ele>
        <time>2021-06-27T08:56:20Z</time>
      </trkpt>
      <trkpt lat="48.38037" lon="-4.59696">
        <ele>83.29</ele>
        <time>2021-06-27T08:56:22Z</time>
      </trkpt>
      <trkpt lat="48.3804" lon="-4.59696">
        <ele>83.29</ele>
        <time>2021-06-27T08:56:23Z</time>
      </trkpt>
      <trkpt lat="48.38051" lon="-4.59693">
        <ele>83.29</ele>
        <time>2021-06-27T08:56:26Z</time>
      </trkpt>
      <trkpt lat="48.38055" lon="-4.59693">
        <ele>83.29</ele>
        <time>2021-06-27T08:56:27Z</time>
      </trkpt>
      <trkpt lat="48.38059" lon="-4.59695">
        <ele>83.29</ele>
        <time>2021-06-27T08:56:28Z</time>
      </trkpt>
      <trkpt lat="48.38064" lon="-4.59697">
        <ele>83.29</ele>
        <time>2021-06-27T08:56:29Z</time>
      </trkpt>
      <trkpt lat="48.38068" lon="-4.59698">
        <ele>83.77</ele>
        <time>2021-06-27T08:56:30Z</time>
      </trkpt>
      <trkpt lat="48.38076" lon="-4.59699">
        <ele>83.77</ele>
        <time>2021-06-27T08:56:33Z</time>
      </trkpt>
      <trkpt lat="48.3808" lon="-4.59698">
        <ele>83.77</ele>
        <time>2021-06-27T08:56:35Z</time>
      </trkpt>
      <trkpt lat="48.38083" lon="-4.59699">
        <ele>83.77</ele>
        <time>2021-06-27T08:56:36Z</time>
      </trkpt>
      <trkpt lat="48.3809" lon="-4.597">
        <ele>83.77</ele>
        <time>2021-06-27T08:56:38Z</time>
      </trkpt>
      <trkpt lat="48.38156" lon="-4.59705">
        <ele>84.73</ele>
        <time>2021-06-27T08:56:51Z</time>
      </trkpt>
      <trkpt lat="48.38199" lon="-4.59713">
        <ele>86.66</ele>
        <time>2021-06-27T08:56:59Z</time>
      </trkpt>
      <trkpt lat="48.38205" lon="-4.59714">
        <ele>86.66</ele>
        <time>2021-06-27T08:57:00Z</time>
      </trkpt>
      <trkpt lat="48.38221" lon="-4.59715">
        <ele>87.62</ele>
        <time>2021-06-27T08:57:03Z</time>
      </trkpt>
      <trkpt lat="48.3823" lon="-4.59718">
        <ele>88.1</ele>
        <time>2021-06-27T08:57:05Z</time>
      </trkpt>
      <trkpt lat="48.38263" lon="-4.59739">
        <ele>90.02</ele>
        <time>2021-06-27T08:57:13Z</time>
      </trkpt>
      <trkpt lat="48.38267" lon="-4.59741">
        <ele>90.5</ele>
        <time>2021-06-27T08:57:14Z</time>
      </trkpt>
      <trkpt lat="48.38277" lon="-4.59746">
        <ele>90.98</ele>
        <time>2021-06-27T08:57:16Z</time>
      </trkpt>
      <trkpt lat="48.38282" lon="-4.59747">
        <ele>90.98</ele>
        <time>2021-06-27T08:57:17Z</time>
      </trkpt>
      <trkpt lat="48.38287" lon="-4.59749">
        <ele>91.46</ele>
        <time>2021-06-27T08:57:18Z</time>
      </trkpt>
      <trkpt lat="48.38291" lon="-4.5975">
        <ele>91.46</ele>
        <time>2021-06-27T08:57:19Z</time>
      </trkpt>
      <trkpt lat="48.38296" lon="-4.59753">
        <ele>91.46</ele>
        <time>2021-06-27T08:57:20Z</time>
      </trkpt>
      <trkpt lat="48.38324" lon="-4.59765">
        <ele>93.87</ele>
        <time>2021-06-27T08:57:27Z</time>
      </trkpt>
      <trkpt lat="48.38329" lon="-4.59764">
        <ele>93.87</ele>
        <time>2021-06-27T08:57:31Z</time>
      </trkpt>
      <trkpt lat="48.38331" lon="-4.59761">
        <ele>93.87</ele>
        <time>2021-06-27T08:57:32Z</time>
      </trkpt>
      <trkpt lat="48.38332" lon="-4.59759">
        <ele>93.87</ele>
        <time>2021-06-27T08:57:33Z</time>
      </trkpt>
      <trkpt lat="48.38335" lon="-4.59756">
        <ele>93.87</ele>
        <time>2021-06-27T08:57:34Z</time>
      </trkpt>
      <trkpt lat="48.38337" lon="-4.59753">
        <ele>93.87</ele>
        <time>2021-06-27T08:57:35Z</time>
      </trkpt>
      <trkpt lat="48.38339" lon="-4.5975">
        <ele>93.87</ele>
        <time>2021-06-27T08:57:36Z</time>
      </trkpt>
      <trkpt lat="48.3834" lon="-4.59747">
        <ele>94.35</ele>
        <time>2021-06-27T08:57:37Z</time>
      </trkpt>
      <trkpt lat="48.38341" lon="-4.59744">
        <ele>94.35</ele>
        <time>2021-06-27T08:57:38Z</time>
      </trkpt>
      <trkpt lat="48.3834" lon="-4.59742">
        <ele>94.35</ele>
        <time>2021-06-27T08:57:39Z</time>
      </trkpt>
      <trkpt lat="48.38341" lon="-4.59739">
        <ele>94.35</ele>
        <time>2021-06-27T08:57:40Z</time>
      </trkpt>
      <trkpt lat="48.38341" lon="-4.59735">
        <ele>94.35</ele>
        <time>2021-06-27T08:57:41Z</time>
      </trkpt>
      <trkpt lat="48.3834" lon="-4.59731">
        <ele>94.35</ele>
        <time>2021-06-27T08:57:42Z</time>
      </trkpt>
      <trkpt lat="48.38341" lon="-4.59723">
        <ele>94.35</ele>
        <time>2021-06-27T08:57:44Z</time>
      </trkpt>
      <trkpt lat="48.38343" lon="-4.59718">
        <ele>94.35</ele>
        <time>2021-06-27T08:57:45Z</time>
      </trkpt>
      <trkpt lat="48.38346" lon="-4.59704">
        <ele>94.35</ele>
        <time>2021-06-27T08:57:47Z</time>
      </trkpt>
      <trkpt lat="48.38349" lon="-4.59684">
        <ele>94.83</ele>
        <time>2021-06-27T08:57:50Z</time>
      </trkpt>
      <trkpt lat="48.38351" lon="-4.59679">
        <ele>94.83</ele>
        <time>2021-06-27T08:57:51Z</time>
      </trkpt>
      <trkpt lat="48.38353" lon="-4.59674">
        <ele>94.83</ele>
        <time>2021-06-27T08:57:52Z</time>
      </trkpt>
      <trkpt lat="48.38356" lon="-4.59668">
        <ele>94.83</ele>
        <time>2021-06-27T08:57:53Z</time>
      </trkpt>
      <trkpt lat="48.38358" lon="-4.59663">
        <ele>94.83</ele>
        <time>2021-06-27T08:57:54Z</time>
      </trkpt>
      <trkpt lat="48.3836" lon="-4.59657">
        <ele>94.83</ele>
        <time>2021-06-27T08:57:55Z</time>
      </trkpt>
      <trkpt lat="48.38361" lon="-4.59651">
        <ele>94.83</ele>
        <time>2021-06-27T08:57:56Z</time>
      </trkpt>
      <trkpt lat="48.38363" lon="-4.59646">
        <ele>94.83</ele>
        <time>2021-06-27T08:57:57Z</time>
      </trkpt>
      <trkpt lat="48.38377" lon="-4.59624">
        <ele>94.83</ele>
        <time>2021-06-27T08:58:02Z</time>
      </trkpt>
      <trkpt lat="48.38382" lon="-4.59623">
        <ele>94.83</ele>
        <time>2021-06-27T08:58:03Z</time>
      </trkpt>
      <trkpt lat="48.38386" lon="-4.59623">
        <ele>95.31</ele>
        <time>2021-06-27T08:58:04Z</time>
      </trkpt>
      <trkpt lat="48.38412" lon="-4.59611">
        <ele>96.27</ele>
        <time>2021-06-27T08:58:11Z</time>
      </trkpt>
      <trkpt lat="48.38462" lon="-4.59605">
        <ele>97.23</ele>
        <time>2021-06-27T08:58:23Z</time>
      </trkpt>
      <trkpt lat="48.38466" lon="-4.59603">
        <ele>97.23</ele>
        <time>2021-06-27T08:58:24Z</time>
      </trkpt>
      <trkpt lat="48.38469" lon="-4.59601">
        <ele>97.23</ele>
        <time>2021-06-27T08:58:25Z</time>
      </trkpt>
      <trkpt lat="48.38473" lon="-4.59599">
        <ele>95.79</ele>
        <time>2021-06-27T08:58:26Z</time>
      </trkpt>
      <trkpt lat="48.3848" lon="-4.59594">
        <ele>95.79</ele>
        <time>2021-06-27T08:58:27Z</time>
      </trkpt>
      <trkpt lat="48.38487" lon="-4.59591">
        <ele>95.31</ele>
        <time>2021-06-27T08:58:28Z</time>
      </trkpt>
      <trkpt lat="48.38492" lon="-4.59589">
        <ele>95.31</ele>
        <time>2021-06-27T08:58:29Z</time>
      </trkpt>
      <trkpt lat="48.38503" lon="-4.59586">
        <ele>95.31</ele>
        <time>2021-06-27T08:58:31Z</time>
      </trkpt>
      <trkpt lat="48.38507" lon="-4.59586">
        <ele>95.31</ele>
        <time>2021-06-27T08:58:32Z</time>
      </trkpt>
      <trkpt lat="48.38511" lon="-4.59589">
        <ele>95.31</ele>
        <time>2021-06-27T08:58:33Z</time>
      </trkpt>
      <trkpt lat="48.3852" lon="-4.59597">
        <ele>95.31</ele>
        <time>2021-06-27T08:58:35Z</time>
      </trkpt>
      <trkpt lat="48.38524" lon="-4.59599">
        <ele>95.31</ele>
        <time>2021-06-27T08:58:36Z</time>
      </trkpt>
      <trkpt lat="48.38529" lon="-4.59601">
        <ele>96.75</ele>
        <time>2021-06-27T08:58:37Z</time>
      </trkpt>
      <trkpt lat="48.38534" lon="-4.59603">
        <ele>96.75</ele>
        <time>2021-06-27T08:58:38Z</time>
      </trkpt>
      <trkpt lat="48.38538" lon="-4.59603">
        <ele>96.75</ele>
        <time>2021-06-27T08:58:39Z</time>
      </trkpt>
      <trkpt lat="48.38543" lon="-4.59604">
        <ele>96.75</ele>
        <time>2021-06-27T08:58:40Z</time>
      </trkpt>
      <trkpt lat="48.38547" lon="-4.59604">
        <ele>96.75</ele>
        <time>2021-06-27T08:58:41Z</time>
      </trkpt>
      <trkpt lat="48.38552" lon="-4.59605">
        <ele>96.75</ele>
        <time>2021-06-27T08:58:42Z</time>
      </trkpt>
      <trkpt lat="48.38556" lon="-4.59605">
        <ele>96.75</ele>
        <time>2021-06-27T08:58:43Z</time>
      </trkpt>
      <trkpt lat="48.3856" lon="-4.59604">
        <ele>96.75</ele>
        <time>2021-06-27T08:58:44Z</time>
      </trkpt>
      <trkpt lat="48.38563" lon="-4.59603">
        <ele>96.75</ele>
        <time>2021-06-27T08:58:45Z</time>
      </trkpt>
      <trkpt lat="48.38569" lon="-4.596">
        <ele>96.75</ele>
        <time>2021-06-27T08:58:47Z</time>
      </trkpt>
      <trkpt lat="48.38573" lon="-4.596">
        <ele>96.75</ele>
        <time>2021-06-27T08:58:48Z</time>
      </trkpt>
      <trkpt lat="48.38577" lon="-4.59602">
        <ele>96.75</ele>
        <time>2021-06-27T08:58:49Z</time>
      </trkpt>
      <trkpt lat="48.38585" lon="-4.59606">
        <ele>96.75</ele>
        <time>2021-06-27T08:58:51Z</time>
      </trkpt>
      <trkpt lat="48.38589" lon="-4.59608">
        <ele>96.75</ele>
        <time>2021-06-27T08:58:52Z</time>
      </trkpt>
      <trkpt lat="48.38594" lon="-4.5961">
        <ele>95.31</ele>
        <time>2021-06-27T08:58:53Z</time>
      </trkpt>
      <trkpt lat="48.38598" lon="-4.59611">
        <ele>95.31</ele>
        <time>2021-06-27T08:58:54Z</time>
      </trkpt>
      <trkpt lat="48.38602" lon="-4.59611">
        <ele>95.31</ele>
        <time>2021-06-27T08:58:55Z</time>
      </trkpt>
      <trkpt lat="48.38606" lon="-4.59611">
        <ele>94.83</ele>
        <time>2021-06-27T08:58:56Z</time>
      </trkpt>
      <trkpt lat="48.38611" lon="-4.5961">
        <ele>94.83</ele>
        <time>2021-06-27T08:58:57Z</time>
      </trkpt>
      <trkpt lat="48.38615" lon="-4.59609">
        <ele>94.35</ele>
        <time>2021-06-27T08:58:58Z</time>
      </trkpt>
      <trkpt lat="48.3862" lon="-4.59608">
        <ele>94.35</ele>
        <time>2021-06-27T08:58:59Z</time>
      </trkpt>
      <trkpt lat="48.38627" lon="-4.5961">
        <ele>94.35</ele>
        <time>2021-06-27T08:59:01Z</time>
      </trkpt>
      <trkpt lat="48.38631" lon="-4.59613">
        <ele>94.35</ele>
        <time>2021-06-27T08:59:02Z</time>
      </trkpt>
      <trkpt lat="48.38635" lon="-4.59617">
        <ele>93.39</ele>
        <time>2021-06-27T08:59:03Z</time>
      </trkpt>
      <trkpt lat="48.38636" lon="-4.59622">
        <ele>93.39</ele>
        <time>2021-06-27T08:59:04Z</time>
      </trkpt>
      <trkpt lat="48.38637" lon="-4.59628">
        <ele>93.39</ele>
        <time>2021-06-27T08:59:05Z</time>
      </trkpt>
      <trkpt lat="48.38637" lon="-4.59633">
        <ele>93.39</ele>
        <time>2021-06-27T08:59:06Z</time>
      </trkpt>
      <trkpt lat="48.3864" lon="-4.59677">
        <ele>94.83</ele>
        <time>2021-06-27T08:59:13Z</time>
      </trkpt>
      <trkpt lat="48.38636" lon="-4.59757">
        <ele>96.75</ele>
        <time>2021-06-27T08:59:27Z</time>
      </trkpt>
      <trkpt lat="48.38637" lon="-4.59828">
        <ele>97.23</ele>
        <time>2021-06-27T08:59:39Z</time>
      </trkpt>
      <trkpt lat="48.38634" lon="-4.59875">
        <ele>98.19</ele>
        <time>2021-06-27T08:59:45Z</time>
      </trkpt>
      <trkpt lat="48.38633" lon="-4.59883">
        <ele>98.19</ele>
        <time>2021-06-27T08:59:46Z</time>
      </trkpt>
      <trkpt lat="48.38633" lon="-4.59889">
        <ele>98.19</ele>
        <time>2021-06-27T08:59:47Z</time>
      </trkpt>
      <trkpt lat="48.38637" lon="-4.59965">
        <ele>98.19</ele>
        <time>2021-06-27T08:59:58Z</time>
      </trkpt>
      <trkpt lat="48.3865" lon="-4.60033">
        <ele>96.75</ele>
        <time>2021-06-27T09:00:07Z</time>
      </trkpt>
      <trkpt lat="48.38652" lon="-4.6004">
        <ele>96.75</ele>
        <time>2021-06-27T09:00:08Z</time>
      </trkpt>
      <trkpt lat="48.38681" lon="-4.60129">
        <ele>95.31</ele>
        <time>2021-06-27T09:00:21Z</time>
      </trkpt>
      <trkpt lat="48.38684" lon="-4.60137">
        <ele>95.31</ele>
        <time>2021-06-27T09:00:22Z</time>
      </trkpt>
      <trkpt lat="48.3869" lon="-4.60154">
        <ele>94.83</ele>
        <time>2021-06-27T09:00:24Z</time>
      </trkpt>
      <trkpt lat="48.38693" lon="-4.60162">
        <ele>94.83</ele>
        <time>2021-06-27T09:00:25Z</time>
      </trkpt>
      <trkpt lat="48.38706" lon="-4.60196">
        <ele>94.35</ele>
        <time>2021-06-27T09:00:29Z</time>
      </trkpt>
      <trkpt lat="48.38709" lon="-4.60205">
        <ele>94.35</ele>
        <time>2021-06-27T09:00:30Z</time>
      </trkpt>
      <trkpt lat="48.38749" lon="-4.60295">
        <ele>90.98</ele>
        <time>2021-06-27T09:00:40Z</time>
      </trkpt>
      <trkpt lat="48.38793" lon="-4.6041">
        <ele>88.1</ele>
        <time>2021-06-27T09:00:51Z</time>
      </trkpt>
      <trkpt lat="48.38798" lon="-4.6043">
        <ele>87.62</ele>
        <time>2021-06-27T09:00:53Z</time>
      </trkpt>
      <trkpt lat="48.38802" lon="-4.6044">
        <ele>87.62</ele>
        <time>2021-06-27T09:00:54Z</time>
      </trkpt>
      <trkpt lat="48.38807" lon="-4.6045">
        <ele>87.62</ele>
        <time>2021-06-27T09:00:55Z</time>
      </trkpt>
      <trkpt lat="48.38819" lon="-4.60475">
        <ele>87.62</ele>
        <time>2021-06-27T09:00:58Z</time>
      </trkpt>
      <trkpt lat="48.38819" lon="-4.60484">
        <ele>86.66</ele>
        <time>2021-06-27T09:00:59Z</time>
      </trkpt>
      <trkpt lat="48.38818" lon="-4.60492">
        <ele>86.66</ele>
        <time>2021-06-27T09:01:00Z</time>
      </trkpt>
      <trkpt lat="48.38816" lon="-4.60497">
        <ele>86.66</ele>
        <time>2021-06-27T09:01:01Z</time>
      </trkpt>
      <trkpt lat="48.38814" lon="-4.60503">
        <ele>86.18</ele>
        <time>2021-06-27T09:01:02Z</time>
      </trkpt>
      <trkpt lat="48.38812" lon="-4.60511">
        <ele>85.69</ele>
        <time>2021-06-27T09:01:03Z</time>
      </trkpt>
      <trkpt lat="48.38809" lon="-4.60519">
        <ele>85.69</ele>
        <time>2021-06-27T09:01:04Z</time>
      </trkpt>
      <trkpt lat="48.38776" lon="-4.60615">
        <ele>82.33</ele>
        <time>2021-06-27T09:01:15Z</time>
      </trkpt>
      <trkpt lat="48.38713" lon="-4.60739">
        <ele>79.45</ele>
        <time>2021-06-27T09:01:31Z</time>
      </trkpt>
      <trkpt lat="48.38643" lon="-4.60867">
        <ele>77.52</ele>
        <time>2021-06-27T09:01:47Z</time>
      </trkpt>
      <trkpt lat="48.38635" lon="-4.6088">
        <ele>77.52</ele>
        <time>2021-06-27T09:01:49Z</time>
      </trkpt>
      <trkpt lat="48.38632" lon="-4.60886">
        <ele>77.52</ele>
        <time>2021-06-27T09:01:50Z</time>
      </trkpt>
      <trkpt lat="48.38632" lon="-4.60892">
        <ele>77.52</ele>
        <time>2021-06-27T09:01:51Z</time>
      </trkpt>
      <trkpt lat="48.38634" lon="-4.60897">
        <ele>77.52</ele>
        <time>2021-06-27T09:01:52Z</time>
      </trkpt>
      <trkpt lat="48.38638" lon="-4.60899">
        <ele>77.52</ele>
        <time>2021-06-27T09:01:53Z</time>
      </trkpt>
      <trkpt lat="48.38642" lon="-4.609">
        <ele>77.52</ele>
        <time>2021-06-27T09:01:54Z</time>
      </trkpt>
      <trkpt lat="48.38647" lon="-4.60899">
        <ele>77.52</ele>
        <time>2021-06-27T09:01:55Z</time>
      </trkpt>
      <trkpt lat="48.38705" lon="-4.6091">
        <ele>75.6</ele>
        <time>2021-06-27T09:02:05Z</time>
      </trkpt>
      <trkpt lat="48.38711" lon="-4.60912">
        <ele>75.6</ele>
        <time>2021-06-27T09:02:06Z</time>
      </trkpt>
      <trkpt lat="48.38716" lon="-4.60914">
        <ele>75.6</ele>
        <time>2021-06-27T09:02:07Z</time>
      </trkpt>
      <trkpt lat="48.38722" lon="-4.60917">
        <ele>74.64</ele>
        <time>2021-06-27T09:02:08Z</time>
      </trkpt>
      <trkpt lat="48.38728" lon="-4.60919">
        <ele>74.64</ele>
        <time>2021-06-27T09:02:09Z</time>
      </trkpt>
      <trkpt lat="48.38765" lon="-4.6093">
        <ele>74.64</ele>
        <time>2021-06-27T09:02:15Z</time>
      </trkpt>
      <trkpt lat="48.38771" lon="-4.60928">
        <ele>73.68</ele>
        <time>2021-06-27T09:02:16Z</time>
      </trkpt>
      <trkpt lat="48.38776" lon="-4.60925">
        <ele>73.68</ele>
        <time>2021-06-27T09:02:17Z</time>
      </trkpt>
      <trkpt lat="48.38781" lon="-4.60921">
        <ele>73.68</ele>
        <time>2021-06-27T09:02:18Z</time>
      </trkpt>
      <trkpt lat="48.38787" lon="-4.60916">
        <ele>73.68</ele>
        <time>2021-06-27T09:02:19Z</time>
      </trkpt>
      <trkpt lat="48.38794" lon="-4.60912">
        <ele>73.68</ele>
        <time>2021-06-27T09:02:20Z</time>
      </trkpt>
      <trkpt lat="48.38799" lon="-4.60911">
        <ele>73.68</ele>
        <time>2021-06-27T09:02:21Z</time>
      </trkpt>
      <trkpt lat="48.38805" lon="-4.60912">
        <ele>73.68</ele>
        <time>2021-06-27T09:02:22Z</time>
      </trkpt>
      <trkpt lat="48.38811" lon="-4.60915">
        <ele>73.68</ele>
        <time>2021-06-27T09:02:23Z</time>
      </trkpt>
      <trkpt lat="48.38816" lon="-4.60919">
        <ele>73.68</ele>
        <time>2021-06-27T09:02:24Z</time>
      </trkpt>
      <trkpt lat="48.38821" lon="-4.60923">
        <ele>74.16</ele>
        <time>2021-06-27T09:02:25Z</time>
      </trkpt>
      <trkpt lat="48.38835" lon="-4.60933">
        <ele>74.16</ele>
        <time>2021-06-27T09:02:28Z</time>
      </trkpt>
      <trkpt lat="48.38838" lon="-4.60937">
        <ele>74.16</ele>
        <time>2021-06-27T09:02:29Z</time>
      </trkpt>
      <trkpt lat="48.38842" lon="-4.6094">
        <ele>74.16</ele>
        <time>2021-06-27T09:02:30Z</time>
      </trkpt>
      <trkpt lat="48.38853" lon="-4.60949">
        <ele>74.16</ele>
        <time>2021-06-27T09:02:33Z</time>
      </trkpt>
      <trkpt lat="48.38857" lon="-4.60951">
        <ele>74.16</ele>
        <time>2021-06-27T09:02:34Z</time>
      </trkpt>
      <trkpt lat="48.38866" lon="-4.60953">
        <ele>74.16</ele>
        <time>2021-06-27T09:02:36Z</time>
      </trkpt>
      <trkpt lat="48.38871" lon="-4.60953">
        <ele>74.16</ele>
        <time>2021-06-27T09:02:37Z</time>
      </trkpt>
      <trkpt lat="48.38877" lon="-4.60951">
        <ele>74.16</ele>
        <time>2021-06-27T09:02:38Z</time>
      </trkpt>
      <trkpt lat="48.38882" lon="-4.60949">
        <ele>74.16</ele>
        <time>2021-06-27T09:02:39Z</time>
      </trkpt>
      <trkpt lat="48.38887" lon="-4.60946">
        <ele>74.16</ele>
        <time>2021-06-27T09:02:40Z</time>
      </trkpt>
      <trkpt lat="48.38893" lon="-4.60942">
        <ele>74.16</ele>
        <time>2021-06-27T09:02:41Z</time>
      </trkpt>
      <trkpt lat="48.38898" lon="-4.60937">
        <ele>74.16</ele>
        <time>2021-06-27T09:02:42Z</time>
      </trkpt>
      <trkpt lat="48.38903" lon="-4.60932">
        <ele>74.16</ele>
        <time>2021-06-27T09:02:43Z</time>
      </trkpt>
      <trkpt lat="48.38907" lon="-4.60926">
        <ele>74.16</ele>
        <time>2021-06-27T09:02:44Z</time>
      </trkpt>
      <trkpt lat="48.38912" lon="-4.60919">
        <ele>74.16</ele>
        <time>2021-06-27T09:02:45Z</time>
      </trkpt>
      <trkpt lat="48.38968" lon="-4.60807">
        <ele>71.27</ele>
        <time>2021-06-27T09:02:57Z</time>
      </trkpt>
      <trkpt lat="48.39023" lon="-4.60699">
        <ele>71.27</ele>
        <time>2021-06-27T09:03:10Z</time>
      </trkpt>
      <trkpt lat="48.39028" lon="-4.60693">
        <ele>71.76</ele>
        <time>2021-06-27T09:03:11Z</time>
      </trkpt>
      <trkpt lat="48.39034" lon="-4.60689">
        <ele>71.76</ele>
        <time>2021-06-27T09:03:12Z</time>
      </trkpt>
      <trkpt lat="48.3904" lon="-4.60688">
        <ele>71.76</ele>
        <time>2021-06-27T09:03:13Z</time>
      </trkpt>
      <trkpt lat="48.39045" lon="-4.60688">
        <ele>71.76</ele>
        <time>2021-06-27T09:03:14Z</time>
      </trkpt>
      <trkpt lat="48.39051" lon="-4.60691">
        <ele>71.76</ele>
        <time>2021-06-27T09:03:15Z</time>
      </trkpt>
      <trkpt lat="48.39057" lon="-4.60694">
        <ele>71.76</ele>
        <time>2021-06-27T09:03:16Z</time>
      </trkpt>
      <trkpt lat="48.39134" lon="-4.60746">
        <ele>73.2</ele>
        <time>2021-06-27T09:03:30Z</time>
      </trkpt>
      <trkpt lat="48.39153" lon="-4.60757">
        <ele>73.2</ele>
        <time>2021-06-27T09:03:34Z</time>
      </trkpt>
      <trkpt lat="48.39179" lon="-4.60779">
        <ele>71.76</ele>
        <time>2021-06-27T09:03:39Z</time>
      </trkpt>
      <trkpt lat="48.39204" lon="-4.60795">
        <ele>68.87</ele>
        <time>2021-06-27T09:03:43Z</time>
      </trkpt>
      <trkpt lat="48.39211" lon="-4.60798">
        <ele>68.39</ele>
        <time>2021-06-27T09:03:44Z</time>
      </trkpt>
      <trkpt lat="48.39218" lon="-4.608">
        <ele>67.43</ele>
        <time>2021-06-27T09:03:45Z</time>
      </trkpt>
      <trkpt lat="48.39226" lon="-4.608">
        <ele>66.95</ele>
        <time>2021-06-27T09:03:46Z</time>
      </trkpt>
      <trkpt lat="48.39234" lon="-4.60801">
        <ele>66.95</ele>
        <time>2021-06-27T09:03:47Z</time>
      </trkpt>
      <trkpt lat="48.39281" lon="-4.60801">
        <ele>65.99</ele>
        <time>2021-06-27T09:03:53Z</time>
      </trkpt>
      <trkpt lat="48.39289" lon="-4.60803">
        <ele>65.51</ele>
        <time>2021-06-27T09:03:54Z</time>
      </trkpt>
      <trkpt lat="48.39296" lon="-4.60806">
        <ele>65.51</ele>
        <time>2021-06-27T09:03:55Z</time>
      </trkpt>
      <trkpt lat="48.39303" lon="-4.60809">
        <ele>65.51</ele>
        <time>2021-06-27T09:03:56Z</time>
      </trkpt>
      <trkpt lat="48.3931" lon="-4.60813">
        <ele>65.03</ele>
        <time>2021-06-27T09:03:57Z</time>
      </trkpt>
      <trkpt lat="48.39376" lon="-4.60879">
        <ele>64.55</ele>
        <time>2021-06-27T09:04:08Z</time>
      </trkpt>
      <trkpt lat="48.39397" lon="-4.60912">
        <ele>67.91</ele>
        <time>2021-06-27T09:04:13Z</time>
      </trkpt>
      <trkpt lat="48.39419" lon="-4.60965">
        <ele>71.27</ele>
        <time>2021-06-27T09:04:22Z</time>
      </trkpt>
      <trkpt lat="48.3944" lon="-4.61018">
        <ele>74.64</ele>
        <time>2021-06-27T09:04:33Z</time>
      </trkpt>
      <trkpt lat="48.39454" lon="-4.61043">
        <ele>75.6</ele>
        <time>2021-06-27T09:04:39Z</time>
      </trkpt>
      <trkpt lat="48.39525" lon="-4.61096">
        <ele>74.16</ele>
        <time>2021-06-27T09:04:54Z</time>
      </trkpt>
      <trkpt lat="48.39603" lon="-4.61109">
        <ele>73.2</ele>
        <time>2021-06-27T09:05:07Z</time>
      </trkpt>
      <trkpt lat="48.39664" lon="-4.61085">
        <ele>70.31</ele>
        <time>2021-06-27T09:05:16Z</time>
      </trkpt>
      <trkpt lat="48.39735" lon="-4.61036">
        <ele>68.87</ele>
        <time>2021-06-27T09:05:27Z</time>
      </trkpt>
      <trkpt lat="48.39742" lon="-4.61034">
        <ele>68.39</ele>
        <time>2021-06-27T09:05:28Z</time>
      </trkpt>
      <trkpt lat="48.39749" lon="-4.61034">
        <ele>68.39</ele>
        <time>2021-06-27T09:05:29Z</time>
      </trkpt>
      <trkpt lat="48.39756" lon="-4.61034">
        <ele>68.39</ele>
        <time>2021-06-27T09:05:30Z</time>
      </trkpt>
      <trkpt lat="48.39762" lon="-4.61035">
        <ele>68.39</ele>
        <time>2021-06-27T09:05:31Z</time>
      </trkpt>
      <trkpt lat="48.39769" lon="-4.61037">
        <ele>68.39</ele>
        <time>2021-06-27T09:05:32Z</time>
      </trkpt>
      <trkpt lat="48.39781" lon="-4.6104">
        <ele>69.83</ele>
        <time>2021-06-27T09:05:34Z</time>
      </trkpt>
      <trkpt lat="48.39846" lon="-4.61056">
        <ele>72.72</ele>
        <time>2021-06-27T09:05:45Z</time>
      </trkpt>
      <trkpt lat="48.39865" lon="-4.61063">
        <ele>73.2</ele>
        <time>2021-06-27T09:05:49Z</time>
      </trkpt>
      <trkpt lat="48.39869" lon="-4.61067">
        <ele>73.68</ele>
        <time>2021-06-27T09:05:50Z</time>
      </trkpt>
      <trkpt lat="48.39872" lon="-4.61074">
        <ele>74.16</ele>
        <time>2021-06-27T09:05:51Z</time>
      </trkpt>
      <trkpt lat="48.39874" lon="-4.61081">
        <ele>74.16</ele>
        <time>2021-06-27T09:05:52Z</time>
      </trkpt>
      <trkpt lat="48.39875" lon="-4.61088">
        <ele>74.16</ele>
        <time>2021-06-27T09:05:53Z</time>
      </trkpt>
      <trkpt lat="48.39875" lon="-4.61095">
        <ele>75.12</ele>
        <time>2021-06-27T09:05:54Z</time>
      </trkpt>
      <trkpt lat="48.39875" lon="-4.61102">
        <ele>75.6</ele>
        <time>2021-06-27T09:05:55Z</time>
      </trkpt>
      <trkpt lat="48.39874" lon="-4.61115">
        <ele>75.6</ele>
        <time>2021-06-27T09:05:57Z</time>
      </trkpt>
      <trkpt lat="48.39878" lon="-4.61144">
        <ele>76.56</ele>
        <time>2021-06-27T09:06:01Z</time>
      </trkpt>
      <trkpt lat="48.39881" lon="-4.61151">
        <ele>76.56</ele>
        <time>2021-06-27T09:06:02Z</time>
      </trkpt>
      <trkpt lat="48.39884" lon="-4.61156">
        <ele>77.04</ele>
        <time>2021-06-27T09:06:03Z</time>
      </trkpt>
      <trkpt lat="48.39888" lon="-4.61159">
        <ele>77.04</ele>
        <time>2021-06-27T09:06:04Z</time>
      </trkpt>
      <trkpt lat="48.39892" lon="-4.6116">
        <ele>77.52</ele>
        <time>2021-06-27T09:06:05Z</time>
      </trkpt>
      <trkpt lat="48.39896" lon="-4.61161">
        <ele>77.52</ele>
        <time>2021-06-27T09:06:06Z</time>
      </trkpt>
      <trkpt lat="48.39901" lon="-4.61161">
        <ele>78</ele>
        <time>2021-06-27T09:06:07Z</time>
      </trkpt>
      <trkpt lat="48.39906" lon="-4.61162">
        <ele>78</ele>
        <time>2021-06-27T09:06:08Z</time>
      </trkpt>
      <trkpt lat="48.39946" lon="-4.61162">
        <ele>78.97</ele>
        <time>2021-06-27T09:06:15Z</time>
      </trkpt>
      <trkpt lat="48.39952" lon="-4.61165">
        <ele>78.97</ele>
        <time>2021-06-27T09:06:16Z</time>
      </trkpt>
      <trkpt lat="48.39957" lon="-4.61168">
        <ele>78.97</ele>
        <time>2021-06-27T09:06:17Z</time>
      </trkpt>
      <trkpt lat="48.39961" lon="-4.61173">
        <ele>78.97</ele>
        <time>2021-06-27T09:06:18Z</time>
      </trkpt>
      <trkpt lat="48.39965" lon="-4.61179">
        <ele>79.93</ele>
        <time>2021-06-27T09:06:19Z</time>
      </trkpt>
      <trkpt lat="48.39968" lon="-4.61185">
        <ele>79.93</ele>
        <time>2021-06-27T09:06:20Z</time>
      </trkpt>
      <trkpt lat="48.39971" lon="-4.61192">
        <ele>79.93</ele>
        <time>2021-06-27T09:06:21Z</time>
      </trkpt>
      <trkpt lat="48.39974" lon="-4.61199">
        <ele>79.93</ele>
        <time>2021-06-27T09:06:22Z</time>
      </trkpt>
      <trkpt lat="48.39998" lon="-4.61271">
        <ele>80.89</ele>
        <time>2021-06-27T09:06:32Z</time>
      </trkpt>
      <trkpt lat="48.40002" lon="-4.61277">
        <ele>80.89</ele>
        <time>2021-06-27T09:06:33Z</time>
      </trkpt>
      <trkpt lat="48.40006" lon="-4.61282">
        <ele>81.37</ele>
        <time>2021-06-27T09:06:34Z</time>
      </trkpt>
      <trkpt lat="48.4001" lon="-4.61286">
        <ele>81.85</ele>
        <time>2021-06-27T09:06:35Z</time>
      </trkpt>
      <trkpt lat="48.40015" lon="-4.61288">
        <ele>81.85</ele>
        <time>2021-06-27T09:06:36Z</time>
      </trkpt>
      <trkpt lat="48.40021" lon="-4.6129">
        <ele>81.85</ele>
        <time>2021-06-27T09:06:37Z</time>
      </trkpt>
      <trkpt lat="48.40026" lon="-4.61291">
        <ele>81.85</ele>
        <time>2021-06-27T09:06:38Z</time>
      </trkpt>
      <trkpt lat="48.4004" lon="-4.61293">
        <ele>82.33</ele>
        <time>2021-06-27T09:06:41Z</time>
      </trkpt>
      <trkpt lat="48.40064" lon="-4.61296">
        <ele>82.81</ele>
        <time>2021-06-27T09:06:46Z</time>
      </trkpt>
      <trkpt lat="48.40144" lon="-4.61295">
        <ele>84.25</ele>
        <time>2021-06-27T09:07:01Z</time>
      </trkpt>
      <trkpt lat="48.40203" lon="-4.61284">
        <ele>85.69</ele>
        <time>2021-06-27T09:07:14Z</time>
      </trkpt>
      <trkpt lat="48.40264" lon="-4.61267">
        <ele>85.21</ele>
        <time>2021-06-27T09:07:27Z</time>
      </trkpt>
      <trkpt lat="48.40327" lon="-4.6125">
        <ele>82.33</ele>
        <time>2021-06-27T09:07:38Z</time>
      </trkpt>
      <trkpt lat="48.40352" lon="-4.61242">
        <ele>80.41</ele>
        <time>2021-06-27T09:07:42Z</time>
      </trkpt>
      <trkpt lat="48.40364" lon="-4.61237">
        <ele>78.97</ele>
        <time>2021-06-27T09:07:44Z</time>
      </trkpt>
      <trkpt lat="48.40371" lon="-4.61236">
        <ele>78.48</ele>
        <time>2021-06-27T09:07:45Z</time>
      </trkpt>
      <trkpt lat="48.40386" lon="-4.61235">
        <ele>76.08</ele>
        <time>2021-06-27T09:07:47Z</time>
      </trkpt>
      <trkpt lat="48.40415" lon="-4.61231">
        <ele>74.64</ele>
        <time>2021-06-27T09:07:51Z</time>
      </trkpt>
      <trkpt lat="48.40436" lon="-4.61229">
        <ele>73.2</ele>
        <time>2021-06-27T09:07:54Z</time>
      </trkpt>
      <trkpt lat="48.40443" lon="-4.61232">
        <ele>73.2</ele>
        <time>2021-06-27T09:07:55Z</time>
      </trkpt>
      <trkpt lat="48.40449" lon="-4.61237">
        <ele>72.72</ele>
        <time>2021-06-27T09:07:56Z</time>
      </trkpt>
      <trkpt lat="48.40454" lon="-4.61243">
        <ele>72.72</ele>
        <time>2021-06-27T09:07:57Z</time>
      </trkpt>
      <trkpt lat="48.40457" lon="-4.61251">
        <ele>72.24</ele>
        <time>2021-06-27T09:07:58Z</time>
      </trkpt>
      <trkpt lat="48.40459" lon="-4.61259">
        <ele>72.24</ele>
        <time>2021-06-27T09:07:59Z</time>
      </trkpt>
      <trkpt lat="48.4046" lon="-4.61268">
        <ele>72.24</ele>
        <time>2021-06-27T09:08:00Z</time>
      </trkpt>
      <trkpt lat="48.40461" lon="-4.61275">
        <ele>72.24</ele>
        <time>2021-06-27T09:08:01Z</time>
      </trkpt>
      <trkpt lat="48.40461" lon="-4.61283">
        <ele>72.24</ele>
        <time>2021-06-27T09:08:02Z</time>
      </trkpt>
      <trkpt lat="48.40461" lon="-4.61291">
        <ele>72.24</ele>
        <time>2021-06-27T09:08:03Z</time>
      </trkpt>
      <trkpt lat="48.40461" lon="-4.61299">
        <ele>72.24</ele>
        <time>2021-06-27T09:08:04Z</time>
      </trkpt>
      <trkpt lat="48.4046" lon="-4.61306">
        <ele>72.24</ele>
        <time>2021-06-27T09:08:05Z</time>
      </trkpt>
      <trkpt lat="48.40459" lon="-4.6132">
        <ele>73.2</ele>
        <time>2021-06-27T09:08:07Z</time>
      </trkpt>
      <trkpt lat="48.40459" lon="-4.61334">
        <ele>74.16</ele>
        <time>2021-06-27T09:08:09Z</time>
      </trkpt>
      <trkpt lat="48.4046" lon="-4.6134">
        <ele>74.16</ele>
        <time>2021-06-27T09:08:10Z</time>
      </trkpt>
      <trkpt lat="48.40462" lon="-4.61346">
        <ele>74.64</ele>
        <time>2021-06-27T09:08:11Z</time>
      </trkpt>
      <trkpt lat="48.40464" lon="-4.61352">
        <ele>75.12</ele>
        <time>2021-06-27T09:08:12Z</time>
      </trkpt>
      <trkpt lat="48.40467" lon="-4.61357">
        <ele>74.64</ele>
        <time>2021-06-27T09:08:13Z</time>
      </trkpt>
      <trkpt lat="48.4047" lon="-4.61362">
        <ele>75.6</ele>
        <time>2021-06-27T09:08:14Z</time>
      </trkpt>
      <trkpt lat="48.40474" lon="-4.61366">
        <ele>75.6</ele>
        <time>2021-06-27T09:08:15Z</time>
      </trkpt>
      <trkpt lat="48.40477" lon="-4.61369">
        <ele>76.08</ele>
        <time>2021-06-27T09:08:16Z</time>
      </trkpt>
      <trkpt lat="48.40481" lon="-4.61372">
        <ele>76.56</ele>
        <time>2021-06-27T09:08:17Z</time>
      </trkpt>
      <trkpt lat="48.40484" lon="-4.61374">
        <ele>77.04</ele>
        <time>2021-06-27T09:08:18Z</time>
      </trkpt>
      <trkpt lat="48.40509" lon="-4.614">
        <ele>78.97</ele>
        <time>2021-06-27T09:08:26Z</time>
      </trkpt>
      <trkpt lat="48.40512" lon="-4.61404">
        <ele>78.97</ele>
        <time>2021-06-27T09:08:27Z</time>
      </trkpt>
      <trkpt lat="48.40519" lon="-4.61412">
        <ele>78.97</ele>
        <time>2021-06-27T09:08:29Z</time>
      </trkpt>
      <trkpt lat="48.40532" lon="-4.61428">
        <ele>79.45</ele>
        <time>2021-06-27T09:08:33Z</time>
      </trkpt>
      <trkpt lat="48.40536" lon="-4.61432">
        <ele>79.45</ele>
        <time>2021-06-27T09:08:34Z</time>
      </trkpt>
      <trkpt lat="48.40539" lon="-4.61436">
        <ele>79.45</ele>
        <time>2021-06-27T09:08:35Z</time>
      </trkpt>
      <trkpt lat="48.4057" lon="-4.61468">
        <ele>79.45</ele>
        <time>2021-06-27T09:08:44Z</time>
      </trkpt>
      <trkpt lat="48.40574" lon="-4.6147">
        <ele>79.45</ele>
        <time>2021-06-27T09:08:45Z</time>
      </trkpt>
      <trkpt lat="48.40578" lon="-4.6147">
        <ele>79.45</ele>
        <time>2021-06-27T09:08:46Z</time>
      </trkpt>
      <trkpt lat="48.40599" lon="-4.6147">
        <ele>77.52</ele>
        <time>2021-06-27T09:08:50Z</time>
      </trkpt>
      <trkpt lat="48.40605" lon="-4.6147">
        <ele>77.04</ele>
        <time>2021-06-27T09:08:51Z</time>
      </trkpt>
      <trkpt lat="48.40667" lon="-4.61453">
        <ele>77.04</ele>
        <time>2021-06-27T09:09:03Z</time>
      </trkpt>
      <trkpt lat="48.40704" lon="-4.61441">
        <ele>79.93</ele>
        <time>2021-06-27T09:09:14Z</time>
      </trkpt>
      <trkpt lat="48.40735" lon="-4.61422">
        <ele>82.81</ele>
        <time>2021-06-27T09:09:25Z</time>
      </trkpt>
      <trkpt lat="48.40782" lon="-4.61388">
        <ele>85.69</ele>
        <time>2021-06-27T09:09:39Z</time>
      </trkpt>
      <trkpt lat="48.40822" lon="-4.61348">
        <ele>86.18</ele>
        <time>2021-06-27T09:09:51Z</time>
      </trkpt>
      <trkpt lat="48.40858" lon="-4.61332">
        <ele>86.18</ele>
        <time>2021-06-27T09:10:01Z</time>
      </trkpt>
      <trkpt lat="48.40895" lon="-4.61325">
        <ele>86.18</ele>
        <time>2021-06-27T09:10:10Z</time>
      </trkpt>
      <trkpt lat="48.409" lon="-4.61325">
        <ele>86.18</ele>
        <time>2021-06-27T09:10:11Z</time>
      </trkpt>
      <trkpt lat="48.40928" lon="-4.61323">
        <ele>86.18</ele>
        <time>2021-06-27T09:10:18Z</time>
      </trkpt>
      <trkpt lat="48.4093" lon="-4.61325">
        <ele>86.18</ele>
        <time>2021-06-27T09:10:19Z</time>
      </trkpt>
      <trkpt lat="48.40932" lon="-4.61328">
        <ele>86.18</ele>
        <time>2021-06-27T09:10:20Z</time>
      </trkpt>
      <trkpt lat="48.40934" lon="-4.61329">
        <ele>86.18</ele>
        <time>2021-06-27T09:10:21Z</time>
      </trkpt>
      <trkpt lat="48.40936" lon="-4.61331">
        <ele>86.18</ele>
        <time>2021-06-27T09:10:22Z</time>
      </trkpt>
      <trkpt lat="48.40939" lon="-4.61332">
        <ele>86.18</ele>
        <time>2021-06-27T09:10:23Z</time>
      </trkpt>
      <trkpt lat="48.40942" lon="-4.61334">
        <ele>86.18</ele>
        <time>2021-06-27T09:10:24Z</time>
      </trkpt>
      <trkpt lat="48.40945" lon="-4.61336">
        <ele>86.18</ele>
        <time>2021-06-27T09:10:25Z</time>
      </trkpt>
      <trkpt lat="48.40947" lon="-4.61339">
        <ele>86.66</ele>
        <time>2021-06-27T09:10:26Z</time>
      </trkpt>
      <trkpt lat="48.4095" lon="-4.61341">
        <ele>86.66</ele>
        <time>2021-06-27T09:10:27Z</time>
      </trkpt>
      <trkpt lat="48.40953" lon="-4.61344">
        <ele>86.66</ele>
        <time>2021-06-27T09:10:28Z</time>
      </trkpt>
      <trkpt lat="48.40981" lon="-4.6138">
        <ele>87.62</ele>
        <time>2021-06-27T09:10:40Z</time>
      </trkpt>
      <trkpt lat="48.41013" lon="-4.6141">
        <ele>89.54</ele>
        <time>2021-06-27T09:10:51Z</time>
      </trkpt>
      <trkpt lat="48.41035" lon="-4.61429">
        <ele>91.94</ele>
        <time>2021-06-27T09:11:01Z</time>
      </trkpt>
      <trkpt lat="48.41037" lon="-4.6143">
        <ele>91.94</ele>
        <time>2021-06-27T09:11:02Z</time>
      </trkpt>
      <trkpt lat="48.41062" lon="-4.6145">
        <ele>92.9</ele>
        <time>2021-06-27T09:11:12Z</time>
      </trkpt>
      <trkpt lat="48.41101" lon="-4.61487">
        <ele>95.31</ele>
        <time>2021-06-27T09:11:24Z</time>
      </trkpt>
      <trkpt lat="48.41122" lon="-4.61513">
        <ele>97.23</ele>
        <time>2021-06-27T09:11:33Z</time>
      </trkpt>
      <trkpt lat="48.41141" lon="-4.61531">
        <ele>98.19</ele>
        <time>2021-06-27T09:11:42Z</time>
      </trkpt>
      <trkpt lat="48.41158" lon="-4.61542">
        <ele>98.19</ele>
        <time>2021-06-27T09:11:54Z</time>
      </trkpt>
      <trkpt lat="48.41192" lon="-4.61561">
        <ele>98.19</ele>
        <time>2021-06-27T09:12:05Z</time>
      </trkpt>
      <trkpt lat="48.41243" lon="-4.61559">
        <ele>98.19</ele>
        <time>2021-06-27T09:12:17Z</time>
      </trkpt>
      <trkpt lat="48.41257" lon="-4.61558">
        <ele>97.23</ele>
        <time>2021-06-27T09:12:20Z</time>
      </trkpt>
      <trkpt lat="48.4133" lon="-4.61548">
        <ele>94.83</ele>
        <time>2021-06-27T09:12:34Z</time>
      </trkpt>
      <trkpt lat="48.41335" lon="-4.61544">
        <ele>93.87</ele>
        <time>2021-06-27T09:12:35Z</time>
      </trkpt>
      <trkpt lat="48.41341" lon="-4.6154">
        <ele>93.87</ele>
        <time>2021-06-27T09:12:36Z</time>
      </trkpt>
      <trkpt lat="48.41374" lon="-4.61513">
        <ele>91.46</ele>
        <time>2021-06-27T09:12:42Z</time>
      </trkpt>
      <trkpt lat="48.41437" lon="-4.61466">
        <ele>89.54</ele>
        <time>2021-06-27T09:12:54Z</time>
      </trkpt>
      <trkpt lat="48.41451" lon="-4.61456">
        <ele>89.06</ele>
        <time>2021-06-27T09:12:57Z</time>
      </trkpt>
      <trkpt lat="48.41495" lon="-4.6141">
        <ele>88.58</ele>
        <time>2021-06-27T09:13:08Z</time>
      </trkpt>
      <trkpt lat="48.41539" lon="-4.61374">
        <ele>88.1</ele>
        <time>2021-06-27T09:13:18Z</time>
      </trkpt>
      <trkpt lat="48.41563" lon="-4.61368">
        <ele>87.62</ele>
        <time>2021-06-27T09:13:23Z</time>
      </trkpt>
      <trkpt lat="48.41567" lon="-4.61368">
        <ele>87.62</ele>
        <time>2021-06-27T09:13:24Z</time>
      </trkpt>
      <trkpt lat="48.41576" lon="-4.6137">
        <ele>87.62</ele>
        <time>2021-06-27T09:13:26Z</time>
      </trkpt>
      <trkpt lat="48.41581" lon="-4.61371">
        <ele>87.62</ele>
        <time>2021-06-27T09:13:27Z</time>
      </trkpt>
      <trkpt lat="48.41643" lon="-4.61377">
        <ele>87.14</ele>
        <time>2021-06-27T09:13:41Z</time>
      </trkpt>
      <trkpt lat="48.41686" lon="-4.61395">
        <ele>86.66</ele>
        <time>2021-06-27T09:13:52Z</time>
      </trkpt>
      <trkpt lat="48.41691" lon="-4.61396">
        <ele>86.66</ele>
        <time>2021-06-27T09:13:53Z</time>
      </trkpt>
      <trkpt lat="48.41695" lon="-4.61398">
        <ele>86.66</ele>
        <time>2021-06-27T09:13:54Z</time>
      </trkpt>
      <trkpt lat="48.41699" lon="-4.61399">
        <ele>86.66</ele>
        <time>2021-06-27T09:13:55Z</time>
      </trkpt>
      <trkpt lat="48.41704" lon="-4.61401">
        <ele>86.66</ele>
        <time>2021-06-27T09:13:56Z</time>
      </trkpt>
      <trkpt lat="48.41708" lon="-4.61402">
        <ele>86.66</ele>
        <time>2021-06-27T09:13:57Z</time>
      </trkpt>
      <trkpt lat="48.4175" lon="-4.61406">
        <ele>86.66</ele>
        <time>2021-06-27T09:14:07Z</time>
      </trkpt>
      <trkpt lat="48.41815" lon="-4.61382">
        <ele>88.1</ele>
        <time>2021-06-27T09:14:21Z</time>
      </trkpt>
      <trkpt lat="48.41824" lon="-4.61376">
        <ele>88.1</ele>
        <time>2021-06-27T09:14:23Z</time>
      </trkpt>
      <trkpt lat="48.41872" lon="-4.61336">
        <ele>86.66</ele>
        <time>2021-06-27T09:14:34Z</time>
      </trkpt>
      <trkpt lat="48.41881" lon="-4.61328">
        <ele>86.18</ele>
        <time>2021-06-27T09:14:36Z</time>
      </trkpt>
      <trkpt lat="48.41886" lon="-4.61328">
        <ele>86.18</ele>
        <time>2021-06-27T09:14:37Z</time>
      </trkpt>
      <trkpt lat="48.4189" lon="-4.6133">
        <ele>86.18</ele>
        <time>2021-06-27T09:14:38Z</time>
      </trkpt>
      <trkpt lat="48.41893" lon="-4.61333">
        <ele>86.18</ele>
        <time>2021-06-27T09:14:39Z</time>
      </trkpt>
      <trkpt lat="48.41897" lon="-4.61336">
        <ele>86.18</ele>
        <time>2021-06-27T09:14:40Z</time>
      </trkpt>
      <trkpt lat="48.4192" lon="-4.61363">
        <ele>84.73</ele>
        <time>2021-06-27T09:14:49Z</time>
      </trkpt>
      <trkpt lat="48.41927" lon="-4.61371">
        <ele>83.77</ele>
        <time>2021-06-27T09:14:51Z</time>
      </trkpt>
      <trkpt lat="48.41936" lon="-4.61381">
        <ele>83.77</ele>
        <time>2021-06-27T09:14:53Z</time>
      </trkpt>
      <trkpt lat="48.41957" lon="-4.61407">
        <ele>81.85</ele>
        <time>2021-06-27T09:14:59Z</time>
      </trkpt>
      <trkpt lat="48.41961" lon="-4.61411">
        <ele>81.37</ele>
        <time>2021-06-27T09:15:00Z</time>
      </trkpt>
      <trkpt lat="48.41983" lon="-4.61431">
        <ele>80.41</ele>
        <time>2021-06-27T09:15:06Z</time>
      </trkpt>
      <trkpt lat="48.42007" lon="-4.61449">
        <ele>78.48</ele>
        <time>2021-06-27T09:15:11Z</time>
      </trkpt>
      <trkpt lat="48.42043" lon="-4.61474">
        <ele>76.08</ele>
        <time>2021-06-27T09:15:20Z</time>
      </trkpt>
      <trkpt lat="48.42047" lon="-4.61477">
        <ele>75.6</ele>
        <time>2021-06-27T09:15:21Z</time>
      </trkpt>
      <trkpt lat="48.42058" lon="-4.61484">
        <ele>74.64</ele>
        <time>2021-06-27T09:15:23Z</time>
      </trkpt>
      <trkpt lat="48.42063" lon="-4.6149">
        <ele>73.68</ele>
        <time>2021-06-27T09:15:24Z</time>
      </trkpt>
      <trkpt lat="48.42068" lon="-4.61496">
        <ele>73.68</ele>
        <time>2021-06-27T09:15:25Z</time>
      </trkpt>
      <trkpt lat="48.42073" lon="-4.61502">
        <ele>72.72</ele>
        <time>2021-06-27T09:15:26Z</time>
      </trkpt>
      <trkpt lat="48.42079" lon="-4.61506">
        <ele>72.24</ele>
        <time>2021-06-27T09:15:27Z</time>
      </trkpt>
      <trkpt lat="48.42084" lon="-4.61509">
        <ele>71.27</ele>
        <time>2021-06-27T09:15:28Z</time>
      </trkpt>
      <trkpt lat="48.42089" lon="-4.61512">
        <ele>69.83</ele>
        <time>2021-06-27T09:15:29Z</time>
      </trkpt>
      <trkpt lat="48.42094" lon="-4.61517">
        <ele>69.35</ele>
        <time>2021-06-27T09:15:30Z</time>
      </trkpt>
      <trkpt lat="48.42097" lon="-4.61521">
        <ele>68.39</ele>
        <time>2021-06-27T09:15:31Z</time>
      </trkpt>
      <trkpt lat="48.421" lon="-4.61525">
        <ele>67.91</ele>
        <time>2021-06-27T09:15:32Z</time>
      </trkpt>
      <trkpt lat="48.42104" lon="-4.61529">
        <ele>66.95</ele>
        <time>2021-06-27T09:15:33Z</time>
      </trkpt>
      <trkpt lat="48.42109" lon="-4.61533">
        <ele>65.99</ele>
        <time>2021-06-27T09:15:34Z</time>
      </trkpt>
      <trkpt lat="48.42113" lon="-4.61538">
        <ele>65.51</ele>
        <time>2021-06-27T09:15:35Z</time>
      </trkpt>
      <trkpt lat="48.42117" lon="-4.61544">
        <ele>64.55</ele>
        <time>2021-06-27T09:15:36Z</time>
      </trkpt>
      <trkpt lat="48.42122" lon="-4.6155">
        <ele>64.07</ele>
        <time>2021-06-27T09:15:37Z</time>
      </trkpt>
      <trkpt lat="48.42128" lon="-4.61555">
        <ele>63.1</ele>
        <time>2021-06-27T09:15:38Z</time>
      </trkpt>
      <trkpt lat="48.42133" lon="-4.61559">
        <ele>62.62</ele>
        <time>2021-06-27T09:15:39Z</time>
      </trkpt>
      <trkpt lat="48.42154" lon="-4.61575">
        <ele>60.22</ele>
        <time>2021-06-27T09:15:43Z</time>
      </trkpt>
      <trkpt lat="48.4216" lon="-4.61579">
        <ele>60.22</ele>
        <time>2021-06-27T09:15:44Z</time>
      </trkpt>
      <trkpt lat="48.42182" lon="-4.61594">
        <ele>58.78</ele>
        <time>2021-06-27T09:15:48Z</time>
      </trkpt>
      <trkpt lat="48.42214" lon="-4.6162">
        <ele>57.34</ele>
        <time>2021-06-27T09:15:54Z</time>
      </trkpt>
      <trkpt lat="48.42223" lon="-4.61627">
        <ele>56.37</ele>
        <time>2021-06-27T09:15:56Z</time>
      </trkpt>
      <trkpt lat="48.42228" lon="-4.61631">
        <ele>55.41</ele>
        <time>2021-06-27T09:15:57Z</time>
      </trkpt>
      <trkpt lat="48.42232" lon="-4.61633">
        <ele>55.41</ele>
        <time>2021-06-27T09:15:58Z</time>
      </trkpt>
      <trkpt lat="48.42235" lon="-4.61632">
        <ele>55.41</ele>
        <time>2021-06-27T09:15:59Z</time>
      </trkpt>
      <trkpt lat="48.42242" lon="-4.61619">
        <ele>57.34</ele>
        <time>2021-06-27T09:16:04Z</time>
      </trkpt>
      <trkpt lat="48.42245" lon="-4.61589">
        <ele>57.34</ele>
        <time>2021-06-27T09:16:10Z</time>
      </trkpt>
      <trkpt lat="48.42253" lon="-4.61539">
        <ele>57.34</ele>
        <time>2021-06-27T09:16:18Z</time>
      </trkpt>
      <trkpt lat="48.42268" lon="-4.61519">
        <ele>57.34</ele>
        <time>2021-06-27T09:16:22Z</time>
      </trkpt>
      <trkpt lat="48.42313" lon="-4.61491">
        <ele>55.41</ele>
        <time>2021-06-27T09:16:30Z</time>
      </trkpt>
      <trkpt lat="48.42401" lon="-4.61466">
        <ele>53.01</ele>
        <time>2021-06-27T09:16:44Z</time>
      </trkpt>
      <trkpt lat="48.42411" lon="-4.61465">
        <ele>54.45</ele>
        <time>2021-06-27T09:16:46Z</time>
      </trkpt>
      <trkpt lat="48.42445" lon="-4.61462">
        <ele>54.45</ele>
        <time>2021-06-27T09:16:52Z</time>
      </trkpt>
      <trkpt lat="48.42454" lon="-4.61458">
        <ele>54.93</ele>
        <time>2021-06-27T09:16:54Z</time>
      </trkpt>
      <trkpt lat="48.42457" lon="-4.61453">
        <ele>54.93</ele>
        <time>2021-06-27T09:16:55Z</time>
      </trkpt>
      <trkpt lat="48.42458" lon="-4.61448">
        <ele>54.93</ele>
        <time>2021-06-27T09:16:56Z</time>
      </trkpt>
      <trkpt lat="48.42459" lon="-4.61442">
        <ele>54.93</ele>
        <time>2021-06-27T09:16:57Z</time>
      </trkpt>
      <trkpt lat="48.4246" lon="-4.61435">
        <ele>54.93</ele>
        <time>2021-06-27T09:16:58Z</time>
      </trkpt>
      <trkpt lat="48.42462" lon="-4.61429">
        <ele>54.93</ele>
        <time>2021-06-27T09:16:59Z</time>
      </trkpt>
      <trkpt lat="48.42463" lon="-4.61422">
        <ele>54.93</ele>
        <time>2021-06-27T09:17:00Z</time>
      </trkpt>
      <trkpt lat="48.4248" lon="-4.61344">
        <ele>54.93</ele>
        <time>2021-06-27T09:17:12Z</time>
      </trkpt>
      <trkpt lat="48.42481" lon="-4.61337">
        <ele>54.93</ele>
        <time>2021-06-27T09:17:13Z</time>
      </trkpt>
      <trkpt lat="48.4248" lon="-4.61331">
        <ele>54.93</ele>
        <time>2021-06-27T09:17:14Z</time>
      </trkpt>
      <trkpt lat="48.42466" lon="-4.61305">
        <ele>55.89</ele>
        <time>2021-06-27T09:17:20Z</time>
      </trkpt>
      <trkpt lat="48.42466" lon="-4.61299">
        <ele>55.89</ele>
        <time>2021-06-27T09:17:21Z</time>
      </trkpt>
      <trkpt lat="48.4247" lon="-4.61271">
        <ele>55.89</ele>
        <time>2021-06-27T09:17:25Z</time>
      </trkpt>
      <trkpt lat="48.42477" lon="-4.61254">
        <ele>54.45</ele>
        <time>2021-06-27T09:17:28Z</time>
      </trkpt>
      <trkpt lat="48.42479" lon="-4.6125">
        <ele>53.97</ele>
        <time>2021-06-27T09:17:29Z</time>
      </trkpt>
      <trkpt lat="48.42491" lon="-4.61231">
        <ele>53.97</ele>
        <time>2021-06-27T09:17:33Z</time>
      </trkpt>
      <trkpt lat="48.42494" lon="-4.61225">
        <ele>53.97</ele>
        <time>2021-06-27T09:17:34Z</time>
      </trkpt>
      <trkpt lat="48.42496" lon="-4.61219">
        <ele>53.97</ele>
        <time>2021-06-27T09:17:35Z</time>
      </trkpt>
      <trkpt lat="48.42497" lon="-4.61212">
        <ele>53.97</ele>
        <time>2021-06-27T09:17:36Z</time>
      </trkpt>
      <trkpt lat="48.42498" lon="-4.61205">
        <ele>53.97</ele>
        <time>2021-06-27T09:17:37Z</time>
      </trkpt>
      <trkpt lat="48.42499" lon="-4.61198">
        <ele>53.97</ele>
        <time>2021-06-27T09:17:38Z</time>
      </trkpt>
      <trkpt lat="48.42514" lon="-4.6109">
        <ele>50.61</ele>
        <time>2021-06-27T09:17:51Z</time>
      </trkpt>
      <trkpt lat="48.42522" lon="-4.60983">
        <ele>47.24</ele>
        <time>2021-06-27T09:18:02Z</time>
      </trkpt>
      <trkpt lat="48.42517" lon="-4.6084">
        <ele>47.24</ele>
        <time>2021-06-27T09:18:18Z</time>
      </trkpt>
      <trkpt lat="48.42516" lon="-4.60824">
        <ele>48.68</ele>
        <time>2021-06-27T09:18:20Z</time>
      </trkpt>
      <trkpt lat="48.42514" lon="-4.608">
        <ele>48.68</ele>
        <time>2021-06-27T09:18:23Z</time>
      </trkpt>
      <trkpt lat="48.42515" lon="-4.60791">
        <ele>48.68</ele>
        <time>2021-06-27T09:18:24Z</time>
      </trkpt>
      <trkpt lat="48.42518" lon="-4.60764">
        <ele>47.24</ele>
        <time>2021-06-27T09:18:27Z</time>
      </trkpt>
      <trkpt lat="48.42521" lon="-4.60666">
        <ele>44.36</ele>
        <time>2021-06-27T09:18:40Z</time>
      </trkpt>
      <trkpt lat="48.42521" lon="-4.60646">
        <ele>44.36</ele>
        <time>2021-06-27T09:18:43Z</time>
      </trkpt>
      <trkpt lat="48.42524" lon="-4.60618">
        <ele>44.36</ele>
        <time>2021-06-27T09:18:47Z</time>
      </trkpt>
      <trkpt lat="48.42527" lon="-4.60611">
        <ele>44.36</ele>
        <time>2021-06-27T09:18:48Z</time>
      </trkpt>
      <trkpt lat="48.4253" lon="-4.60605">
        <ele>44.36</ele>
        <time>2021-06-27T09:18:49Z</time>
      </trkpt>
      <trkpt lat="48.42533" lon="-4.60599">
        <ele>44.36</ele>
        <time>2021-06-27T09:18:50Z</time>
      </trkpt>
      <trkpt lat="48.42536" lon="-4.60593">
        <ele>44.36</ele>
        <time>2021-06-27T09:18:51Z</time>
      </trkpt>
      <trkpt lat="48.4256" lon="-4.60557">
        <ele>43.88</ele>
        <time>2021-06-27T09:18:57Z</time>
      </trkpt>
      <trkpt lat="48.42563" lon="-4.6055">
        <ele>43.88</ele>
        <time>2021-06-27T09:18:58Z</time>
      </trkpt>
      <trkpt lat="48.42599" lon="-4.60425">
        <ele>42.92</ele>
        <time>2021-06-27T09:19:13Z</time>
      </trkpt>
      <trkpt lat="48.42617" lon="-4.60367">
        <ele>42.44</ele>
        <time>2021-06-27T09:19:22Z</time>
      </trkpt>
      <trkpt lat="48.42616" lon="-4.60364">
        <ele>42.44</ele>
        <time>2021-06-27T09:19:23Z</time>
      </trkpt>
      <trkpt lat="48.42615" lon="-4.60363">
        <ele>42.44</ele>
        <time>2021-06-27T09:19:24Z</time>
      </trkpt>
      <trkpt lat="48.42614" lon="-4.60364">
        <ele>42.44</ele>
        <time>2021-06-27T09:19:25Z</time>
      </trkpt>
      <trkpt lat="48.42612" lon="-4.60365">
        <ele>42.44</ele>
        <time>2021-06-27T09:19:26Z</time>
      </trkpt>
      <trkpt lat="48.4261" lon="-4.60365">
        <ele>42.44</ele>
        <time>2021-06-27T09:19:27Z</time>
      </trkpt>
      <trkpt lat="48.42607" lon="-4.60363">
        <ele>43.88</ele>
        <time>2021-06-27T09:19:28Z</time>
      </trkpt>
      <trkpt lat="48.42604" lon="-4.60363">
        <ele>43.88</ele>
        <time>2021-06-27T09:19:29Z</time>
      </trkpt>
      <trkpt lat="48.42601" lon="-4.60362">
        <ele>43.88</ele>
        <time>2021-06-27T09:19:30Z</time>
      </trkpt>
      <trkpt lat="48.42543" lon="-4.60345">
        <ele>43.88</ele>
        <time>2021-06-27T09:19:44Z</time>
      </trkpt>
      <trkpt lat="48.42533" lon="-4.60342">
        <ele>43.88</ele>
        <time>2021-06-27T09:19:46Z</time>
      </trkpt>
      <trkpt lat="48.42528" lon="-4.6034">
        <ele>42.44</ele>
        <time>2021-06-27T09:19:47Z</time>
      </trkpt>
      <trkpt lat="48.42523" lon="-4.60338">
        <ele>42.44</ele>
        <time>2021-06-27T09:19:48Z</time>
      </trkpt>
      <trkpt lat="48.42497" lon="-4.6033">
        <ele>42.44</ele>
        <time>2021-06-27T09:19:53Z</time>
      </trkpt>
      <trkpt lat="48.42428" lon="-4.60304">
        <ele>42.44</ele>
        <time>2021-06-27T09:20:05Z</time>
      </trkpt>
      <trkpt lat="48.42424" lon="-4.60302">
        <ele>42.44</ele>
        <time>2021-06-27T09:20:06Z</time>
      </trkpt>
      <trkpt lat="48.42422" lon="-4.603">
        <ele>42.44</ele>
        <time>2021-06-27T09:20:07Z</time>
      </trkpt>
      <trkpt lat="48.4242" lon="-4.60297">
        <ele>42.44</ele>
        <time>2021-06-27T09:20:08Z</time>
      </trkpt>
      <trkpt lat="48.42419" lon="-4.60296">
        <ele>42.44</ele>
        <time>2021-06-27T09:20:09Z</time>
      </trkpt>
      <trkpt lat="48.42414" lon="-4.60279">
        <ele>42.44</ele>
        <time>2021-06-27T09:20:16Z</time>
      </trkpt>
      <trkpt lat="48.42413" lon="-4.60278">
        <ele>42.44</ele>
        <time>2021-06-27T09:20:17Z</time>
      </trkpt>
      <trkpt lat="48.42411" lon="-4.60277">
        <ele>42.44</ele>
        <time>2021-06-27T09:20:18Z</time>
      </trkpt>
      <trkpt lat="48.42408" lon="-4.60277">
        <ele>42.44</ele>
        <time>2021-06-27T09:20:19Z</time>
      </trkpt>
      <trkpt lat="48.42406" lon="-4.60277">
        <ele>42.44</ele>
        <time>2021-06-27T09:20:20Z</time>
      </trkpt>
      <trkpt lat="48.42375" lon="-4.60263">
        <ele>42.44</ele>
        <time>2021-06-27T09:20:31Z</time>
      </trkpt>
      <trkpt lat="48.4233" lon="-4.60252">
        <ele>42.44</ele>
        <time>2021-06-27T09:20:42Z</time>
      </trkpt>
      <trkpt lat="48.42275" lon="-4.60225">
        <ele>42.44</ele>
        <time>2021-06-27T09:20:55Z</time>
      </trkpt>
      <trkpt lat="48.42233" lon="-4.60215">
        <ele>42.44</ele>
        <time>2021-06-27T09:21:05Z</time>
      </trkpt>
      <trkpt lat="48.42229" lon="-4.60216">
        <ele>42.44</ele>
        <time>2021-06-27T09:21:06Z</time>
      </trkpt>
      <trkpt lat="48.42202" lon="-4.60219">
        <ele>42.44</ele>
        <time>2021-06-27T09:21:13Z</time>
      </trkpt>
      <trkpt lat="48.42185" lon="-4.60224">
        <ele>42.44</ele>
        <time>2021-06-27T09:21:17Z</time>
      </trkpt>
      <trkpt lat="48.4218" lon="-4.60225">
        <ele>42.44</ele>
        <time>2021-06-27T09:21:18Z</time>
      </trkpt>
      <trkpt lat="48.42146" lon="-4.60227">
        <ele>42.44</ele>
        <time>2021-06-27T09:21:26Z</time>
      </trkpt>
      <trkpt lat="48.42141" lon="-4.60225">
        <ele>42.44</ele>
        <time>2021-06-27T09:21:27Z</time>
      </trkpt>
      <trkpt lat="48.42137" lon="-4.60223">
        <ele>42.44</ele>
        <time>2021-06-27T09:21:28Z</time>
      </trkpt>
      <trkpt lat="48.42133" lon="-4.6022">
        <ele>43.88</ele>
        <time>2021-06-27T09:21:29Z</time>
      </trkpt>
      <trkpt lat="48.42129" lon="-4.60218">
        <ele>43.88</ele>
        <time>2021-06-27T09:21:30Z</time>
      </trkpt>
      <trkpt lat="48.4212" lon="-4.6021">
        <ele>43.88</ele>
        <time>2021-06-27T09:21:33Z</time>
      </trkpt>
      <trkpt lat="48.42115" lon="-4.60207">
        <ele>43.88</ele>
        <time>2021-06-27T09:21:34Z</time>
      </trkpt>
      <trkpt lat="48.42103" lon="-4.60197">
        <ele>44.36</ele>
        <time>2021-06-27T09:21:37Z</time>
      </trkpt>
      <trkpt lat="48.421" lon="-4.60194">
        <ele>44.36</ele>
        <time>2021-06-27T09:21:38Z</time>
      </trkpt>
      <trkpt lat="48.42061" lon="-4.60147">
        <ele>44.36</ele>
        <time>2021-06-27T09:21:49Z</time>
      </trkpt>
      <trkpt lat="48.42043" lon="-4.60124">
        <ele>44.36</ele>
        <time>2021-06-27T09:21:54Z</time>
      </trkpt>
      <trkpt lat="48.42039" lon="-4.60119">
        <ele>44.36</ele>
        <time>2021-06-27T09:21:55Z</time>
      </trkpt>
      <trkpt lat="48.42036" lon="-4.60113">
        <ele>44.36</ele>
        <time>2021-06-27T09:21:56Z</time>
      </trkpt>
      <trkpt lat="48.42033" lon="-4.60106">
        <ele>44.36</ele>
        <time>2021-06-27T09:21:57Z</time>
      </trkpt>
      <trkpt lat="48.42032" lon="-4.601">
        <ele>44.36</ele>
        <time>2021-06-27T09:21:58Z</time>
      </trkpt>
      <trkpt lat="48.42031" lon="-4.60092">
        <ele>44.36</ele>
        <time>2021-06-27T09:21:59Z</time>
      </trkpt>
      <trkpt lat="48.4203" lon="-4.60084">
        <ele>44.36</ele>
        <time>2021-06-27T09:22:00Z</time>
      </trkpt>
      <trkpt lat="48.42028" lon="-4.60063">
        <ele>42.92</ele>
        <time>2021-06-27T09:22:03Z</time>
      </trkpt>
      <trkpt lat="48.42028" lon="-4.60056">
        <ele>42.92</ele>
        <time>2021-06-27T09:22:04Z</time>
      </trkpt>
      <trkpt lat="48.42029" lon="-4.60042">
        <ele>42.92</ele>
        <time>2021-06-27T09:22:06Z</time>
      </trkpt>
      <trkpt lat="48.42032" lon="-4.60021">
        <ele>42.44</ele>
        <time>2021-06-27T09:22:09Z</time>
      </trkpt>
      <trkpt lat="48.42034" lon="-4.60015">
        <ele>42.44</ele>
        <time>2021-06-27T09:22:10Z</time>
      </trkpt>
      <trkpt lat="48.42036" lon="-4.60008">
        <ele>42.44</ele>
        <time>2021-06-27T09:22:11Z</time>
      </trkpt>
      <trkpt lat="48.42037" lon="-4.60001">
        <ele>42.44</ele>
        <time>2021-06-27T09:22:12Z</time>
      </trkpt>
      <trkpt lat="48.42037" lon="-4.59994">
        <ele>42.44</ele>
        <time>2021-06-27T09:22:13Z</time>
      </trkpt>
      <trkpt lat="48.42037" lon="-4.59986">
        <ele>42.44</ele>
        <time>2021-06-27T09:22:14Z</time>
      </trkpt>
      <trkpt lat="48.42037" lon="-4.59979">
        <ele>42.44</ele>
        <time>2021-06-27T09:22:15Z</time>
      </trkpt>
      <trkpt lat="48.42037" lon="-4.59972">
        <ele>42.44</ele>
        <time>2021-06-27T09:22:16Z</time>
      </trkpt>
      <trkpt lat="48.42037" lon="-4.59965">
        <ele>42.44</ele>
        <time>2021-06-27T09:22:17Z</time>
      </trkpt>
      <trkpt lat="48.42037" lon="-4.59958">
        <ele>42.44</ele>
        <time>2021-06-27T09:22:18Z</time>
      </trkpt>
      <trkpt lat="48.42038" lon="-4.59949">
        <ele>42.44</ele>
        <time>2021-06-27T09:22:19Z</time>
      </trkpt>
      <trkpt lat="48.42042" lon="-4.59916">
        <ele>42.44</ele>
        <time>2021-06-27T09:22:23Z</time>
      </trkpt>
      <trkpt lat="48.42042" lon="-4.59909">
        <ele>42.44</ele>
        <time>2021-06-27T09:22:24Z</time>
      </trkpt>
      <trkpt lat="48.4204" lon="-4.59903">
        <ele>42.44</ele>
        <time>2021-06-27T09:22:25Z</time>
      </trkpt>
      <trkpt lat="48.42038" lon="-4.59898">
        <ele>42.44</ele>
        <time>2021-06-27T09:22:26Z</time>
      </trkpt>
      <trkpt lat="48.42033" lon="-4.59895">
        <ele>42.44</ele>
        <time>2021-06-27T09:22:27Z</time>
      </trkpt>
      <trkpt lat="48.42029" lon="-4.59891">
        <ele>42.44</ele>
        <time>2021-06-27T09:22:28Z</time>
      </trkpt>
      <trkpt lat="48.42006" lon="-4.59874">
        <ele>42.44</ele>
        <time>2021-06-27T09:22:33Z</time>
      </trkpt>
      <trkpt lat="48.42003" lon="-4.59869">
        <ele>42.44</ele>
        <time>2021-06-27T09:22:34Z</time>
      </trkpt>
      <trkpt lat="48.41973" lon="-4.59809">
        <ele>42.44</ele>
        <time>2021-06-27T09:22:44Z</time>
      </trkpt>
      <trkpt lat="48.41971" lon="-4.59802">
        <ele>42.44</ele>
        <time>2021-06-27T09:22:45Z</time>
      </trkpt>
      <trkpt lat="48.4197" lon="-4.59795">
        <ele>42.44</ele>
        <time>2021-06-27T09:22:46Z</time>
      </trkpt>
      <trkpt lat="48.4197" lon="-4.59788">
        <ele>42.44</ele>
        <time>2021-06-27T09:22:47Z</time>
      </trkpt>
      <trkpt lat="48.41969" lon="-4.59781">
        <ele>42.44</ele>
        <time>2021-06-27T09:22:48Z</time>
      </trkpt>
      <trkpt lat="48.41966" lon="-4.59739">
        <ele>43.88</ele>
        <time>2021-06-27T09:22:56Z</time>
      </trkpt>
      <trkpt lat="48.4196" lon="-4.59676">
        <ele>43.88</ele>
        <time>2021-06-27T09:23:07Z</time>
      </trkpt>
      <trkpt lat="48.41958" lon="-4.59662">
        <ele>43.88</ele>
        <time>2021-06-27T09:23:09Z</time>
      </trkpt>
      <trkpt lat="48.41931" lon="-4.5957">
        <ele>43.88</ele>
        <time>2021-06-27T09:23:24Z</time>
      </trkpt>
      <trkpt lat="48.41918" lon="-4.59535">
        <ele>43.88</ele>
        <time>2021-06-27T09:23:30Z</time>
      </trkpt>
      <trkpt lat="48.41916" lon="-4.59529">
        <ele>43.88</ele>
        <time>2021-06-27T09:23:31Z</time>
      </trkpt>
      <trkpt lat="48.41914" lon="-4.59524">
        <ele>43.88</ele>
        <time>2021-06-27T09:23:32Z</time>
      </trkpt>
      <trkpt lat="48.41911" lon="-4.59519">
        <ele>43.88</ele>
        <time>2021-06-27T09:23:33Z</time>
      </trkpt>
      <trkpt lat="48.41909" lon="-4.59515">
        <ele>43.88</ele>
        <time>2021-06-27T09:23:34Z</time>
      </trkpt>
      <trkpt lat="48.41906" lon="-4.5951">
        <ele>43.88</ele>
        <time>2021-06-27T09:23:35Z</time>
      </trkpt>
      <trkpt lat="48.41897" lon="-4.59497">
        <ele>43.88</ele>
        <time>2021-06-27T09:23:38Z</time>
      </trkpt>
      <trkpt lat="48.41894" lon="-4.59493">
        <ele>43.88</ele>
        <time>2021-06-27T09:23:39Z</time>
      </trkpt>
      <trkpt lat="48.4185" lon="-4.59434">
        <ele>43.88</ele>
        <time>2021-06-27T09:23:53Z</time>
      </trkpt>
      <trkpt lat="48.41839" lon="-4.5942">
        <ele>43.88</ele>
        <time>2021-06-27T09:23:56Z</time>
      </trkpt>
      <trkpt lat="48.41836" lon="-4.59417">
        <ele>43.88</ele>
        <time>2021-06-27T09:23:57Z</time>
      </trkpt>
      <trkpt lat="48.41823" lon="-4.59407">
        <ele>43.88</ele>
        <time>2021-06-27T09:24:00Z</time>
      </trkpt>
      <trkpt lat="48.41809" lon="-4.59399">
        <ele>43.88</ele>
        <time>2021-06-27T09:24:03Z</time>
      </trkpt>
      <trkpt lat="48.41776" lon="-4.59393">
        <ele>43.88</ele>
        <time>2021-06-27T09:24:10Z</time>
      </trkpt>
      <trkpt lat="48.41772" lon="-4.59396">
        <ele>43.88</ele>
        <time>2021-06-27T09:24:11Z</time>
      </trkpt>
      <trkpt lat="48.41769" lon="-4.594">
        <ele>43.88</ele>
        <time>2021-06-27T09:24:12Z</time>
      </trkpt>
      <trkpt lat="48.41767" lon="-4.59404">
        <ele>43.88</ele>
        <time>2021-06-27T09:24:13Z</time>
      </trkpt>
      <trkpt lat="48.41764" lon="-4.59407">
        <ele>43.88</ele>
        <time>2021-06-27T09:24:14Z</time>
      </trkpt>
      <trkpt lat="48.4176" lon="-4.59407">
        <ele>43.88</ele>
        <time>2021-06-27T09:24:15Z</time>
      </trkpt>
      <trkpt lat="48.41757" lon="-4.59406">
        <ele>43.88</ele>
        <time>2021-06-27T09:24:16Z</time>
      </trkpt>
      <trkpt lat="48.4172" lon="-4.59405">
        <ele>43.88</ele>
        <time>2021-06-27T09:24:24Z</time>
      </trkpt>
      <trkpt lat="48.41716" lon="-4.59406">
        <ele>43.88</ele>
        <time>2021-06-27T09:24:25Z</time>
      </trkpt>
      <trkpt lat="48.41688" lon="-4.59407">
        <ele>44.84</ele>
        <time>2021-06-27T09:24:31Z</time>
      </trkpt>
      <trkpt lat="48.41683" lon="-4.59408">
        <ele>44.84</ele>
        <time>2021-06-27T09:24:32Z</time>
      </trkpt>
      <trkpt lat="48.41678" lon="-4.59408">
        <ele>44.84</ele>
        <time>2021-06-27T09:24:33Z</time>
      </trkpt>
      <trkpt lat="48.41673" lon="-4.59407">
        <ele>44.84</ele>
        <time>2021-06-27T09:24:34Z</time>
      </trkpt>
      <trkpt lat="48.41669" lon="-4.59407">
        <ele>44.84</ele>
        <time>2021-06-27T09:24:35Z</time>
      </trkpt>
      <trkpt lat="48.41621" lon="-4.59394">
        <ele>43.4</ele>
        <time>2021-06-27T09:24:46Z</time>
      </trkpt>
      <trkpt lat="48.41612" lon="-4.59389">
        <ele>43.4</ele>
        <time>2021-06-27T09:24:48Z</time>
      </trkpt>
      <trkpt lat="48.41607" lon="-4.59388">
        <ele>42.92</ele>
        <time>2021-06-27T09:24:49Z</time>
      </trkpt>
      <trkpt lat="48.41602" lon="-4.59387">
        <ele>42.92</ele>
        <time>2021-06-27T09:24:50Z</time>
      </trkpt>
      <trkpt lat="48.41597" lon="-4.59386">
        <ele>42.44</ele>
        <time>2021-06-27T09:24:51Z</time>
      </trkpt>
      <trkpt lat="48.41591" lon="-4.59385">
        <ele>42.44</ele>
        <time>2021-06-27T09:24:52Z</time>
      </trkpt>
      <trkpt lat="48.41585" lon="-4.59386">
        <ele>42.44</ele>
        <time>2021-06-27T09:24:53Z</time>
      </trkpt>
      <trkpt lat="48.4158" lon="-4.59386">
        <ele>42.44</ele>
        <time>2021-06-27T09:24:54Z</time>
      </trkpt>
      <trkpt lat="48.4154" lon="-4.5939">
        <ele>42.44</ele>
        <time>2021-06-27T09:25:02Z</time>
      </trkpt>
      <trkpt lat="48.41536" lon="-4.59392">
        <ele>42.44</ele>
        <time>2021-06-27T09:25:03Z</time>
      </trkpt>
      <trkpt lat="48.41532" lon="-4.59393">
        <ele>43.4</ele>
        <time>2021-06-27T09:25:04Z</time>
      </trkpt>
      <trkpt lat="48.41529" lon="-4.59392">
        <ele>43.4</ele>
        <time>2021-06-27T09:25:05Z</time>
      </trkpt>
      <trkpt lat="48.41525" lon="-4.5939">
        <ele>43.4</ele>
        <time>2021-06-27T09:25:06Z</time>
      </trkpt>
      <trkpt lat="48.41522" lon="-4.59386">
        <ele>43.4</ele>
        <time>2021-06-27T09:25:07Z</time>
      </trkpt>
      <trkpt lat="48.41518" lon="-4.59383">
        <ele>43.4</ele>
        <time>2021-06-27T09:25:08Z</time>
      </trkpt>
      <trkpt lat="48.41515" lon="-4.59378">
        <ele>43.4</ele>
        <time>2021-06-27T09:25:09Z</time>
      </trkpt>
      <trkpt lat="48.41511" lon="-4.59374">
        <ele>43.4</ele>
        <time>2021-06-27T09:25:10Z</time>
      </trkpt>
      <trkpt lat="48.41508" lon="-4.5937">
        <ele>43.4</ele>
        <time>2021-06-27T09:25:11Z</time>
      </trkpt>
      <trkpt lat="48.41504" lon="-4.59366">
        <ele>43.4</ele>
        <time>2021-06-27T09:25:12Z</time>
      </trkpt>
      <trkpt lat="48.41499" lon="-4.59362">
        <ele>43.4</ele>
        <time>2021-06-27T09:25:13Z</time>
      </trkpt>
      <trkpt lat="48.41432" lon="-4.59291">
        <ele>43.4</ele>
        <time>2021-06-27T09:25:29Z</time>
      </trkpt>
      <trkpt lat="48.41409" lon="-4.59248">
        <ele>43.88</ele>
        <time>2021-06-27T09:25:36Z</time>
      </trkpt>
      <trkpt lat="48.41395" lon="-4.59174">
        <ele>43.88</ele>
        <time>2021-06-27T09:25:45Z</time>
      </trkpt>
      <trkpt lat="48.41406" lon="-4.5905">
        <ele>43.88</ele>
        <time>2021-06-27T09:25:59Z</time>
      </trkpt>
      <trkpt lat="48.41416" lon="-4.58982">
        <ele>45.32</ele>
        <time>2021-06-27T09:26:08Z</time>
      </trkpt>
      <trkpt lat="48.41419" lon="-4.58978">
        <ele>45.8</ele>
        <time>2021-06-27T09:26:09Z</time>
      </trkpt>
      <trkpt lat="48.41437" lon="-4.58979">
        <ele>45.8</ele>
        <time>2021-06-27T09:26:13Z</time>
      </trkpt>
      <trkpt lat="48.41441" lon="-4.58976">
        <ele>45.8</ele>
        <time>2021-06-27T09:26:14Z</time>
      </trkpt>
      <trkpt lat="48.41443" lon="-4.58972">
        <ele>45.8</ele>
        <time>2021-06-27T09:26:15Z</time>
      </trkpt>
      <trkpt lat="48.41445" lon="-4.58968">
        <ele>46.28</ele>
        <time>2021-06-27T09:26:16Z</time>
      </trkpt>
      <trkpt lat="48.41446" lon="-4.58964">
        <ele>46.28</ele>
        <time>2021-06-27T09:26:17Z</time>
      </trkpt>
      <trkpt lat="48.41469" lon="-4.58895">
        <ele>48.68</ele>
        <time>2021-06-27T09:26:30Z</time>
      </trkpt>
      <trkpt lat="48.41486" lon="-4.58852">
        <ele>51.57</ele>
        <time>2021-06-27T09:26:42Z</time>
      </trkpt>
      <trkpt lat="48.41501" lon="-4.58809">
        <ele>54.93</ele>
        <time>2021-06-27T09:26:55Z</time>
      </trkpt>
      <trkpt lat="48.41521" lon="-4.58757">
        <ele>56.86</ele>
        <time>2021-06-27T09:27:09Z</time>
      </trkpt>
      <trkpt lat="48.41522" lon="-4.5874">
        <ele>57.82</ele>
        <time>2021-06-27T09:27:15Z</time>
      </trkpt>
      <trkpt lat="48.41491" lon="-4.58711">
        <ele>54.93</ele>
        <time>2021-06-27T09:27:27Z</time>
      </trkpt>
      <trkpt lat="48.41465" lon="-4.58694">
        <ele>53.01</ele>
        <time>2021-06-27T09:27:32Z</time>
      </trkpt>
      <trkpt lat="48.41444" lon="-4.58686">
        <ele>50.61</ele>
        <time>2021-06-27T09:27:36Z</time>
      </trkpt>
      <trkpt lat="48.41441" lon="-4.58683">
        <ele>50.61</ele>
        <time>2021-06-27T09:27:37Z</time>
      </trkpt>
      <trkpt lat="48.41437" lon="-4.5868">
        <ele>50.13</ele>
        <time>2021-06-27T09:27:38Z</time>
      </trkpt>
      <trkpt lat="48.4138" lon="-4.5865">
        <ele>46.76</ele>
        <time>2021-06-27T09:27:49Z</time>
      </trkpt>
      <trkpt lat="48.41333" lon="-4.58627">
        <ele>45.32</ele>
        <time>2021-06-27T09:27:57Z</time>
      </trkpt>
      <trkpt lat="48.41329" lon="-4.58621">
        <ele>45.32</ele>
        <time>2021-06-27T09:27:58Z</time>
      </trkpt>
      <trkpt lat="48.41326" lon="-4.58614">
        <ele>45.32</ele>
        <time>2021-06-27T09:27:59Z</time>
      </trkpt>
      <trkpt lat="48.41326" lon="-4.58607">
        <ele>45.32</ele>
        <time>2021-06-27T09:28:00Z</time>
      </trkpt>
      <trkpt lat="48.41326" lon="-4.58601">
        <ele>45.32</ele>
        <time>2021-06-27T09:28:01Z</time>
      </trkpt>
      <trkpt lat="48.41326" lon="-4.58588">
        <ele>45.32</ele>
        <time>2021-06-27T09:28:03Z</time>
      </trkpt>
      <trkpt lat="48.41325" lon="-4.5858">
        <ele>45.32</ele>
        <time>2021-06-27T09:28:04Z</time>
      </trkpt>
      <trkpt lat="48.41324" lon="-4.58573">
        <ele>45.32</ele>
        <time>2021-06-27T09:28:05Z</time>
      </trkpt>
      <trkpt lat="48.41301" lon="-4.5849">
        <ele>46.76</ele>
        <time>2021-06-27T09:28:17Z</time>
      </trkpt>
      <trkpt lat="48.41298" lon="-4.58484">
        <ele>46.76</ele>
        <time>2021-06-27T09:28:18Z</time>
      </trkpt>
      <trkpt lat="48.41295" lon="-4.58478">
        <ele>46.76</ele>
        <time>2021-06-27T09:28:19Z</time>
      </trkpt>
      <trkpt lat="48.41293" lon="-4.58472">
        <ele>46.76</ele>
        <time>2021-06-27T09:28:20Z</time>
      </trkpt>
      <trkpt lat="48.4129" lon="-4.58466">
        <ele>47.24</ele>
        <time>2021-06-27T09:28:21Z</time>
      </trkpt>
      <trkpt lat="48.41286" lon="-4.58461">
        <ele>47.24</ele>
        <time>2021-06-27T09:28:22Z</time>
      </trkpt>
      <trkpt lat="48.41283" lon="-4.58455">
        <ele>47.24</ele>
        <time>2021-06-27T09:28:23Z</time>
      </trkpt>
      <trkpt lat="48.41273" lon="-4.58438">
        <ele>47.24</ele>
        <time>2021-06-27T09:28:26Z</time>
      </trkpt>
      <trkpt lat="48.4127" lon="-4.58432">
        <ele>47.72</ele>
        <time>2021-06-27T09:28:27Z</time>
      </trkpt>
      <trkpt lat="48.41259" lon="-4.58416">
        <ele>47.72</ele>
        <time>2021-06-27T09:28:30Z</time>
      </trkpt>
      <trkpt lat="48.41249" lon="-4.58395">
        <ele>48.68</ele>
        <time>2021-06-27T09:28:34Z</time>
      </trkpt>
      <trkpt lat="48.41247" lon="-4.58389">
        <ele>48.68</ele>
        <time>2021-06-27T09:28:35Z</time>
      </trkpt>
      <trkpt lat="48.41241" lon="-4.58379">
        <ele>48.68</ele>
        <time>2021-06-27T09:28:37Z</time>
      </trkpt>
      <trkpt lat="48.41238" lon="-4.58375">
        <ele>49.16</ele>
        <time>2021-06-27T09:28:38Z</time>
      </trkpt>
      <trkpt lat="48.41234" lon="-4.5837">
        <ele>49.16</ele>
        <time>2021-06-27T09:28:39Z</time>
      </trkpt>
      <trkpt lat="48.41223" lon="-4.58359">
        <ele>49.65</ele>
        <time>2021-06-27T09:28:42Z</time>
      </trkpt>
      <trkpt lat="48.41201" lon="-4.58346">
        <ele>50.13</ele>
        <time>2021-06-27T09:28:47Z</time>
      </trkpt>
      <trkpt lat="48.41173" lon="-4.58326">
        <ele>50.61</ele>
        <time>2021-06-27T09:28:55Z</time>
      </trkpt>
      <trkpt lat="48.41172" lon="-4.58321">
        <ele>50.61</ele>
        <time>2021-06-27T09:28:56Z</time>
      </trkpt>
      <trkpt lat="48.41172" lon="-4.58315">
        <ele>50.61</ele>
        <time>2021-06-27T09:28:57Z</time>
      </trkpt>
      <trkpt lat="48.41172" lon="-4.58311">
        <ele>50.61</ele>
        <time>2021-06-27T09:28:58Z</time>
      </trkpt>
      <trkpt lat="48.41171" lon="-4.58307">
        <ele>51.57</ele>
        <time>2021-06-27T09:28:59Z</time>
      </trkpt>
      <trkpt lat="48.4117" lon="-4.58305">
        <ele>51.57</ele>
        <time>2021-06-27T09:29:00Z</time>
      </trkpt>
      <trkpt lat="48.41168" lon="-4.58304">
        <ele>51.57</ele>
        <time>2021-06-27T09:29:01Z</time>
      </trkpt>
      <trkpt lat="48.41164" lon="-4.58304">
        <ele>51.57</ele>
        <time>2021-06-27T09:29:02Z</time>
      </trkpt>
      <trkpt lat="48.41139" lon="-4.58299">
        <ele>51.57</ele>
        <time>2021-06-27T09:29:08Z</time>
      </trkpt>
      <trkpt lat="48.41126" lon="-4.58293">
        <ele>51.57</ele>
        <time>2021-06-27T09:29:11Z</time>
      </trkpt>
      <trkpt lat="48.41122" lon="-4.5829">
        <ele>51.09</ele>
        <time>2021-06-27T09:29:12Z</time>
      </trkpt>
      <trkpt lat="48.41119" lon="-4.58286">
        <ele>51.57</ele>
        <time>2021-06-27T09:29:13Z</time>
      </trkpt>
      <trkpt lat="48.41115" lon="-4.58281">
        <ele>52.05</ele>
        <time>2021-06-27T09:29:14Z</time>
      </trkpt>
      <trkpt lat="48.41113" lon="-4.58275">
        <ele>52.05</ele>
        <time>2021-06-27T09:29:15Z</time>
      </trkpt>
      <trkpt lat="48.41113" lon="-4.58268">
        <ele>52.05</ele>
        <time>2021-06-27T09:29:16Z</time>
      </trkpt>
      <trkpt lat="48.41113" lon="-4.58262">
        <ele>52.05</ele>
        <time>2021-06-27T09:29:17Z</time>
      </trkpt>
      <trkpt lat="48.41115" lon="-4.58256">
        <ele>52.53</ele>
        <time>2021-06-27T09:29:18Z</time>
      </trkpt>
      <trkpt lat="48.41117" lon="-4.58244">
        <ele>53.01</ele>
        <time>2021-06-27T09:29:20Z</time>
      </trkpt>
      <trkpt lat="48.41127" lon="-4.58159">
        <ele>54.93</ele>
        <time>2021-06-27T09:29:35Z</time>
      </trkpt>
      <trkpt lat="48.41118" lon="-4.58148">
        <ele>54.93</ele>
        <time>2021-06-27T09:29:38Z</time>
      </trkpt>
      <trkpt lat="48.41101" lon="-4.58137">
        <ele>54.93</ele>
        <time>2021-06-27T09:29:42Z</time>
      </trkpt>
      <trkpt lat="48.41096" lon="-4.58136">
        <ele>54.93</ele>
        <time>2021-06-27T09:29:43Z</time>
      </trkpt>
      <trkpt lat="48.41091" lon="-4.58136">
        <ele>54.93</ele>
        <time>2021-06-27T09:29:44Z</time>
      </trkpt>
      <trkpt lat="48.41086" lon="-4.58136">
        <ele>54.93</ele>
        <time>2021-06-27T09:29:45Z</time>
      </trkpt>
      <trkpt lat="48.4108" lon="-4.58137">
        <ele>53.97</ele>
        <time>2021-06-27T09:29:46Z</time>
      </trkpt>
      <trkpt lat="48.41074" lon="-4.58136">
        <ele>53.97</ele>
        <time>2021-06-27T09:29:47Z</time>
      </trkpt>
      <trkpt lat="48.41069" lon="-4.58135">
        <ele>53.97</ele>
        <time>2021-06-27T09:29:48Z</time>
      </trkpt>
      <trkpt lat="48.41064" lon="-4.58132">
        <ele>53.97</ele>
        <time>2021-06-27T09:29:49Z</time>
      </trkpt>
      <trkpt lat="48.41059" lon="-4.58128">
        <ele>53.97</ele>
        <time>2021-06-27T09:29:50Z</time>
      </trkpt>
      <trkpt lat="48.41054" lon="-4.58124">
        <ele>53.97</ele>
        <time>2021-06-27T09:29:51Z</time>
      </trkpt>
      <trkpt lat="48.41051" lon="-4.58118">
        <ele>53.97</ele>
        <time>2021-06-27T09:29:52Z</time>
      </trkpt>
      <trkpt lat="48.41049" lon="-4.58111">
        <ele>53.97</ele>
        <time>2021-06-27T09:29:53Z</time>
      </trkpt>
      <trkpt lat="48.41049" lon="-4.58104">
        <ele>53.97</ele>
        <time>2021-06-27T09:29:54Z</time>
      </trkpt>
      <trkpt lat="48.41049" lon="-4.58096">
        <ele>53.97</ele>
        <time>2021-06-27T09:29:55Z</time>
      </trkpt>
      <trkpt lat="48.41051" lon="-4.58087">
        <ele>53.97</ele>
        <time>2021-06-27T09:29:56Z</time>
      </trkpt>
      <trkpt lat="48.41065" lon="-4.58017">
        <ele>56.86</ele>
        <time>2021-06-27T09:30:06Z</time>
      </trkpt>
      <trkpt lat="48.41068" lon="-4.57997">
        <ele>57.34</ele>
        <time>2021-06-27T09:30:09Z</time>
      </trkpt>
      <trkpt lat="48.41068" lon="-4.57991">
        <ele>57.34</ele>
        <time>2021-06-27T09:30:10Z</time>
      </trkpt>
      <trkpt lat="48.41066" lon="-4.57984">
        <ele>57.34</ele>
        <time>2021-06-27T09:30:11Z</time>
      </trkpt>
      <trkpt lat="48.41064" lon="-4.5798">
        <ele>57.34</ele>
        <time>2021-06-27T09:30:12Z</time>
      </trkpt>
      <trkpt lat="48.41061" lon="-4.57977">
        <ele>57.34</ele>
        <time>2021-06-27T09:30:13Z</time>
      </trkpt>
      <trkpt lat="48.41057" lon="-4.57973">
        <ele>57.34</ele>
        <time>2021-06-27T09:30:14Z</time>
      </trkpt>
      <trkpt lat="48.41053" lon="-4.57971">
        <ele>57.34</ele>
        <time>2021-06-27T09:30:15Z</time>
      </trkpt>
      <trkpt lat="48.41047" lon="-4.57968">
        <ele>57.34</ele>
        <time>2021-06-27T09:30:16Z</time>
      </trkpt>
      <trkpt lat="48.41036" lon="-4.57962">
        <ele>55.41</ele>
        <time>2021-06-27T09:30:18Z</time>
      </trkpt>
      <trkpt lat="48.4103" lon="-4.57957">
        <ele>55.41</ele>
        <time>2021-06-27T09:30:19Z</time>
      </trkpt>
      <trkpt lat="48.41025" lon="-4.57951">
        <ele>54.93</ele>
        <time>2021-06-27T09:30:20Z</time>
      </trkpt>
      <trkpt lat="48.41021" lon="-4.57944">
        <ele>54.45</ele>
        <time>2021-06-27T09:30:21Z</time>
      </trkpt>
      <trkpt lat="48.41018" lon="-4.57936">
        <ele>54.45</ele>
        <time>2021-06-27T09:30:22Z</time>
      </trkpt>
      <trkpt lat="48.41017" lon="-4.57927">
        <ele>54.45</ele>
        <time>2021-06-27T09:30:23Z</time>
      </trkpt>
      <trkpt lat="48.41017" lon="-4.57918">
        <ele>54.45</ele>
        <time>2021-06-27T09:30:24Z</time>
      </trkpt>
      <trkpt lat="48.41017" lon="-4.5791">
        <ele>54.45</ele>
        <time>2021-06-27T09:30:25Z</time>
      </trkpt>
      <trkpt lat="48.4102" lon="-4.57856">
        <ele>56.37</ele>
        <time>2021-06-27T09:30:32Z</time>
      </trkpt>
      <trkpt lat="48.41026" lon="-4.578">
        <ele>57.34</ele>
        <time>2021-06-27T09:30:40Z</time>
      </trkpt>
      <trkpt lat="48.4104" lon="-4.57669">
        <ele>59.26</ele>
        <time>2021-06-27T09:30:59Z</time>
      </trkpt>
      <trkpt lat="48.41054" lon="-4.57612">
        <ele>59.74</ele>
        <time>2021-06-27T09:31:08Z</time>
      </trkpt>
      <trkpt lat="48.41055" lon="-4.57591">
        <ele>59.74</ele>
        <time>2021-06-27T09:31:12Z</time>
      </trkpt>
      <trkpt lat="48.41052" lon="-4.57587">
        <ele>59.74</ele>
        <time>2021-06-27T09:31:13Z</time>
      </trkpt>
      <trkpt lat="48.41049" lon="-4.57583">
        <ele>59.74</ele>
        <time>2021-06-27T09:31:14Z</time>
      </trkpt>
      <trkpt lat="48.41037" lon="-4.57569">
        <ele>56.37</ele>
        <time>2021-06-27T09:31:17Z</time>
      </trkpt>
      <trkpt lat="48.41026" lon="-4.57557">
        <ele>55.89</ele>
        <time>2021-06-27T09:31:19Z</time>
      </trkpt>
      <trkpt lat="48.4101" lon="-4.57542">
        <ele>55.89</ele>
        <time>2021-06-27T09:31:22Z</time>
      </trkpt>
      <trkpt lat="48.41006" lon="-4.57536">
        <ele>56.86</ele>
        <time>2021-06-27T09:31:23Z</time>
      </trkpt>
      <trkpt lat="48.41003" lon="-4.57529">
        <ele>56.86</ele>
        <time>2021-06-27T09:31:24Z</time>
      </trkpt>
      <trkpt lat="48.41001" lon="-4.57522">
        <ele>57.34</ele>
        <time>2021-06-27T09:31:25Z</time>
      </trkpt>
      <trkpt lat="48.40999" lon="-4.57516">
        <ele>57.34</ele>
        <time>2021-06-27T09:31:26Z</time>
      </trkpt>
      <trkpt lat="48.40997" lon="-4.5751">
        <ele>57.82</ele>
        <time>2021-06-27T09:31:27Z</time>
      </trkpt>
      <trkpt lat="48.40995" lon="-4.57504">
        <ele>57.82</ele>
        <time>2021-06-27T09:31:28Z</time>
      </trkpt>
      <trkpt lat="48.40983" lon="-4.57468">
        <ele>60.22</ele>
        <time>2021-06-27T09:31:35Z</time>
      </trkpt>
      <trkpt lat="48.40984" lon="-4.57462">
        <ele>60.22</ele>
        <time>2021-06-27T09:31:36Z</time>
      </trkpt>
      <trkpt lat="48.40986" lon="-4.57457">
        <ele>60.22</ele>
        <time>2021-06-27T09:31:37Z</time>
      </trkpt>
      <trkpt lat="48.40989" lon="-4.57452">
        <ele>60.22</ele>
        <time>2021-06-27T09:31:38Z</time>
      </trkpt>
      <trkpt lat="48.40992" lon="-4.57448">
        <ele>60.22</ele>
        <time>2021-06-27T09:31:39Z</time>
      </trkpt>
      <trkpt lat="48.40995" lon="-4.57443">
        <ele>60.7</ele>
        <time>2021-06-27T09:31:40Z</time>
      </trkpt>
      <trkpt lat="48.41001" lon="-4.57434">
        <ele>60.7</ele>
        <time>2021-06-27T09:31:42Z</time>
      </trkpt>
      <trkpt lat="48.41007" lon="-4.57386">
        <ele>63.58</ele>
        <time>2021-06-27T09:31:53Z</time>
      </trkpt>
      <trkpt lat="48.40979" lon="-4.57325">
        <ele>65.03</ele>
        <time>2021-06-27T09:32:06Z</time>
      </trkpt>
      <trkpt lat="48.40976" lon="-4.5732">
        <ele>65.03</ele>
        <time>2021-06-27T09:32:07Z</time>
      </trkpt>
      <trkpt lat="48.40973" lon="-4.57316">
        <ele>65.03</ele>
        <time>2021-06-27T09:32:08Z</time>
      </trkpt>
      <trkpt lat="48.40944" lon="-4.57278">
        <ele>64.55</ele>
        <time>2021-06-27T09:32:19Z</time>
      </trkpt>
      <trkpt lat="48.40943" lon="-4.57279">
        <ele>64.55</ele>
        <time>2021-06-27T09:32:20Z</time>
      </trkpt>
      <trkpt lat="48.40941" lon="-4.57282">
        <ele>64.55</ele>
        <time>2021-06-27T09:32:21Z</time>
      </trkpt>
      <trkpt lat="48.40939" lon="-4.57285">
        <ele>64.55</ele>
        <time>2021-06-27T09:32:22Z</time>
      </trkpt>
      <trkpt lat="48.40937" lon="-4.57289">
        <ele>64.55</ele>
        <time>2021-06-27T09:32:23Z</time>
      </trkpt>
      <trkpt lat="48.40933" lon="-4.57293">
        <ele>63.58</ele>
        <time>2021-06-27T09:32:24Z</time>
      </trkpt>
      <trkpt lat="48.4093" lon="-4.57297">
        <ele>63.58</ele>
        <time>2021-06-27T09:32:25Z</time>
      </trkpt>
      <trkpt lat="48.40917" lon="-4.57312">
        <ele>62.14</ele>
        <time>2021-06-27T09:32:28Z</time>
      </trkpt>
      <trkpt lat="48.409" lon="-4.57333">
        <ele>61.66</ele>
        <time>2021-06-27T09:32:32Z</time>
      </trkpt>
      <trkpt lat="48.40863" lon="-4.57378">
        <ele>59.74</ele>
        <time>2021-06-27T09:32:41Z</time>
      </trkpt>
      <trkpt lat="48.40859" lon="-4.57382">
        <ele>59.26</ele>
        <time>2021-06-27T09:32:42Z</time>
      </trkpt>
      <trkpt lat="48.40855" lon="-4.57386">
        <ele>58.3</ele>
        <time>2021-06-27T09:32:43Z</time>
      </trkpt>
      <trkpt lat="48.4085" lon="-4.57389">
        <ele>58.3</ele>
        <time>2021-06-27T09:32:44Z</time>
      </trkpt>
      <trkpt lat="48.40846" lon="-4.57393">
        <ele>58.3</ele>
        <time>2021-06-27T09:32:45Z</time>
      </trkpt>
      <trkpt lat="48.40842" lon="-4.57396">
        <ele>58.3</ele>
        <time>2021-06-27T09:32:46Z</time>
      </trkpt>
      <trkpt lat="48.40838" lon="-4.574">
        <ele>57.82</ele>
        <time>2021-06-27T09:32:47Z</time>
      </trkpt>
      <trkpt lat="48.40835" lon="-4.57405">
        <ele>57.34</ele>
        <time>2021-06-27T09:32:48Z</time>
      </trkpt>
      <trkpt lat="48.40813" lon="-4.57428">
        <ele>55.89</ele>
        <time>2021-06-27T09:32:53Z</time>
      </trkpt>
      <trkpt lat="48.40779" lon="-4.57465">
        <ele>53.97</ele>
        <time>2021-06-27T09:33:00Z</time>
      </trkpt>
      <trkpt lat="48.40774" lon="-4.57471">
        <ele>53.49</ele>
        <time>2021-06-27T09:33:01Z</time>
      </trkpt>
      <trkpt lat="48.40769" lon="-4.57477">
        <ele>53.49</ele>
        <time>2021-06-27T09:33:02Z</time>
      </trkpt>
      <trkpt lat="48.40764" lon="-4.57481">
        <ele>53.49</ele>
        <time>2021-06-27T09:33:03Z</time>
      </trkpt>
      <trkpt lat="48.40759" lon="-4.57483">
        <ele>53.49</ele>
        <time>2021-06-27T09:33:04Z</time>
      </trkpt>
      <trkpt lat="48.40753" lon="-4.57484">
        <ele>53.49</ele>
        <time>2021-06-27T09:33:05Z</time>
      </trkpt>
      <trkpt lat="48.407" lon="-4.57488">
        <ele>50.61</ele>
        <time>2021-06-27T09:33:13Z</time>
      </trkpt>
      <trkpt lat="48.40623" lon="-4.57479">
        <ele>49.16</ele>
        <time>2021-06-27T09:33:23Z</time>
      </trkpt>
      <trkpt lat="48.40616" lon="-4.57481">
        <ele>49.16</ele>
        <time>2021-06-27T09:33:24Z</time>
      </trkpt>
      <trkpt lat="48.4061" lon="-4.57484">
        <ele>48.68</ele>
        <time>2021-06-27T09:33:25Z</time>
      </trkpt>
      <trkpt lat="48.40604" lon="-4.57484">
        <ele>49.16</ele>
        <time>2021-06-27T09:33:26Z</time>
      </trkpt>
      <trkpt lat="48.40599" lon="-4.57481">
        <ele>49.16</ele>
        <time>2021-06-27T09:33:27Z</time>
      </trkpt>
      <trkpt lat="48.40594" lon="-4.57477">
        <ele>49.16</ele>
        <time>2021-06-27T09:33:28Z</time>
      </trkpt>
      <trkpt lat="48.4059" lon="-4.57472">
        <ele>49.16</ele>
        <time>2021-06-27T09:33:29Z</time>
      </trkpt>
      <trkpt lat="48.40585" lon="-4.57466">
        <ele>49.16</ele>
        <time>2021-06-27T09:33:30Z</time>
      </trkpt>
      <trkpt lat="48.4055" lon="-4.57399">
        <ele>52.53</ele>
        <time>2021-06-27T09:33:41Z</time>
      </trkpt>
      <trkpt lat="48.40537" lon="-4.5738">
        <ele>53.49</ele>
        <time>2021-06-27T09:33:46Z</time>
      </trkpt>
      <trkpt lat="48.40534" lon="-4.57375">
        <ele>53.97</ele>
        <time>2021-06-27T09:33:47Z</time>
      </trkpt>
      <trkpt lat="48.40532" lon="-4.5737">
        <ele>53.97</ele>
        <time>2021-06-27T09:33:48Z</time>
      </trkpt>
      <trkpt lat="48.40529" lon="-4.57366">
        <ele>54.45</ele>
        <time>2021-06-27T09:33:49Z</time>
      </trkpt>
      <trkpt lat="48.40527" lon="-4.57361">
        <ele>54.45</ele>
        <time>2021-06-27T09:33:50Z</time>
      </trkpt>
      <trkpt lat="48.40516" lon="-4.57339">
        <ele>54.93</ele>
        <time>2021-06-27T09:33:54Z</time>
      </trkpt>
      <trkpt lat="48.40513" lon="-4.57334">
        <ele>54.93</ele>
        <time>2021-06-27T09:33:55Z</time>
      </trkpt>
      <trkpt lat="48.4051" lon="-4.57329">
        <ele>55.41</ele>
        <time>2021-06-27T09:33:56Z</time>
      </trkpt>
      <trkpt lat="48.40496" lon="-4.5731">
        <ele>56.37</ele>
        <time>2021-06-27T09:34:00Z</time>
      </trkpt>
      <trkpt lat="48.40483" lon="-4.57289">
        <ele>56.37</ele>
        <time>2021-06-27T09:34:04Z</time>
      </trkpt>
      <trkpt lat="48.4048" lon="-4.57284">
        <ele>56.37</ele>
        <time>2021-06-27T09:34:05Z</time>
      </trkpt>
      <trkpt lat="48.40477" lon="-4.57279">
        <ele>56.37</ele>
        <time>2021-06-27T09:34:06Z</time>
      </trkpt>
      <trkpt lat="48.40465" lon="-4.57263">
        <ele>56.86</ele>
        <time>2021-06-27T09:34:10Z</time>
      </trkpt>
      <trkpt lat="48.40463" lon="-4.57263">
        <ele>57.34</ele>
        <time>2021-06-27T09:34:11Z</time>
      </trkpt>
      <trkpt lat="48.40462" lon="-4.57266">
        <ele>57.34</ele>
        <time>2021-06-27T09:34:12Z</time>
      </trkpt>
      <trkpt lat="48.40462" lon="-4.57269">
        <ele>57.34</ele>
        <time>2021-06-27T09:34:13Z</time>
      </trkpt>
      <trkpt lat="48.40462" lon="-4.57271">
        <ele>57.34</ele>
        <time>2021-06-27T09:34:14Z</time>
      </trkpt>
      <trkpt lat="48.40463" lon="-4.57272">
        <ele>57.34</ele>
        <time>2021-06-27T09:34:19Z</time>
      </trkpt>
      <trkpt lat="48.40464" lon="-4.57271">
        <ele>57.34</ele>
        <time>2021-06-27T09:34:20Z</time>
      </trkpt>
      <trkpt lat="48.40467" lon="-4.57271">
        <ele>57.82</ele>
        <time>2021-06-27T09:34:32Z</time>
      </trkpt>
      <trkpt lat="48.40468" lon="-4.57272">
        <ele>57.82</ele>
        <time>2021-06-27T09:34:55Z</time>
      </trkpt>
      <trkpt lat="48.40469" lon="-4.57273">
        <ele>57.82</ele>
        <time>2021-06-27T09:35:15Z</time>
      </trkpt>
      <trkpt lat="48.40468" lon="-4.57271">
        <ele>57.82</ele>
        <time>2021-06-27T09:35:40Z</time>
      </trkpt>
      <trkpt lat="48.40469" lon="-4.57272">
        <ele>57.82</ele>
        <time>2021-06-27T09:35:59Z</time>
      </trkpt>
      <trkpt lat="48.40466" lon="-4.57273">
        <ele>57.82</ele>
        <time>2021-06-27T09:36:24Z</time>
      </trkpt>
      <trkpt lat="48.40467" lon="-4.57272">
        <ele>57.82</ele>
        <time>2021-06-27T09:36:49Z</time>
      </trkpt>
      <trkpt lat="48.40464" lon="-4.57271">
        <ele>57.82</ele>
        <time>2021-06-27T09:37:11Z</time>
      </trkpt>
      <trkpt lat="48.40464" lon="-4.57271">
        <ele>57.82</ele>
        <time>2021-06-27T09:37:32Z</time>
      </trkpt>
      <trkpt lat="48.40464" lon="-4.57272">
        <ele>57.82</ele>
        <time>2021-06-27T09:37:50Z</time>
      </trkpt>
      <trkpt lat="48.40464" lon="-4.57271">
        <ele>57.34</ele>
        <time>2021-06-27T09:38:15Z</time>
      </trkpt>
      <trkpt lat="48.40463" lon="-4.57271">
        <ele>57.34</ele>
        <time>2021-06-27T09:38:32Z</time>
      </trkpt>
      <trkpt lat="48.40463" lon="-4.57271">
        <ele>57.34</ele>
        <time>2021-06-27T09:38:45Z</time>
      </trkpt>
      <trkpt lat="48.40463" lon="-4.57271">
        <ele>57.34</ele>
        <time>2021-06-27T09:39:06Z</time>
      </trkpt>
      <trkpt lat="48.40462" lon="-4.57272">
        <ele>57.34</ele>
        <time>2021-06-27T09:39:13Z</time>
      </trkpt>
      <trkpt lat="48.40461" lon="-4.57274">
        <ele>57.34</ele>
        <time>2021-06-27T09:39:14Z</time>
      </trkpt>
      <trkpt lat="48.40461" lon="-4.57275">
        <ele>57.34</ele>
        <time>2021-06-27T09:39:15Z</time>
      </trkpt>
      <trkpt lat="48.4046" lon="-4.57278">
        <ele>57.34</ele>
        <time>2021-06-27T09:39:16Z</time>
      </trkpt>
      <trkpt lat="48.40459" lon="-4.5728">
        <ele>57.34</ele>
        <time>2021-06-27T09:39:17Z</time>
      </trkpt>
      <trkpt lat="48.40442" lon="-4.57311">
        <ele>54.93</ele>
        <time>2021-06-27T09:39:25Z</time>
      </trkpt>
      <trkpt lat="48.4043" lon="-4.57333">
        <ele>54.45</ele>
        <time>2021-06-27T09:39:29Z</time>
      </trkpt>
      <trkpt lat="48.40428" lon="-4.57339">
        <ele>54.45</ele>
        <time>2021-06-27T09:39:30Z</time>
      </trkpt>
      <trkpt lat="48.40425" lon="-4.57344">
        <ele>53.97</ele>
        <time>2021-06-27T09:39:31Z</time>
      </trkpt>
      <trkpt lat="48.4041" lon="-4.57364">
        <ele>52.53</ele>
        <time>2021-06-27T09:39:36Z</time>
      </trkpt>
      <trkpt lat="48.4036" lon="-4.57432">
        <ele>49.65</ele>
        <time>2021-06-27T09:39:50Z</time>
      </trkpt>
      <trkpt lat="48.40341" lon="-4.5746">
        <ele>49.65</ele>
        <time>2021-06-27T09:39:55Z</time>
      </trkpt>
      <trkpt lat="48.40296" lon="-4.57492">
        <ele>48.2</ele>
        <time>2021-06-27T09:40:05Z</time>
      </trkpt>
      <trkpt lat="48.40285" lon="-4.57496">
        <ele>48.2</ele>
        <time>2021-06-27T09:40:07Z</time>
      </trkpt>
      <trkpt lat="48.40279" lon="-4.57496">
        <ele>48.2</ele>
        <time>2021-06-27T09:40:08Z</time>
      </trkpt>
      <trkpt lat="48.40273" lon="-4.57494">
        <ele>48.2</ele>
        <time>2021-06-27T09:40:09Z</time>
      </trkpt>
      <trkpt lat="48.40267" lon="-4.5749">
        <ele>48.2</ele>
        <time>2021-06-27T09:40:10Z</time>
      </trkpt>
      <trkpt lat="48.40262" lon="-4.57486">
        <ele>48.2</ele>
        <time>2021-06-27T09:40:11Z</time>
      </trkpt>
      <trkpt lat="48.40196" lon="-4.57427">
        <ele>47.72</ele>
        <time>2021-06-27T09:40:23Z</time>
      </trkpt>
      <trkpt lat="48.40192" lon="-4.5742">
        <ele>47.72</ele>
        <time>2021-06-27T09:40:24Z</time>
      </trkpt>
      <trkpt lat="48.40187" lon="-4.57412">
        <ele>47.72</ele>
        <time>2021-06-27T09:40:25Z</time>
      </trkpt>
      <trkpt lat="48.4018" lon="-4.57396">
        <ele>47.72</ele>
        <time>2021-06-27T09:40:27Z</time>
      </trkpt>
      <trkpt lat="48.40138" lon="-4.57329">
        <ele>49.16</ele>
        <time>2021-06-27T09:40:37Z</time>
      </trkpt>
      <trkpt lat="48.40134" lon="-4.57325">
        <ele>49.65</ele>
        <time>2021-06-27T09:40:38Z</time>
      </trkpt>
      <trkpt lat="48.4013" lon="-4.57322">
        <ele>50.13</ele>
        <time>2021-06-27T09:40:39Z</time>
      </trkpt>
      <trkpt lat="48.40111" lon="-4.57308">
        <ele>50.61</ele>
        <time>2021-06-27T09:40:44Z</time>
      </trkpt>
      <trkpt lat="48.401" lon="-4.57298">
        <ele>50.61</ele>
        <time>2021-06-27T09:40:47Z</time>
      </trkpt>
      <trkpt lat="48.40096" lon="-4.57294">
        <ele>50.61</ele>
        <time>2021-06-27T09:40:48Z</time>
      </trkpt>
      <trkpt lat="48.40069" lon="-4.5726">
        <ele>50.61</ele>
        <time>2021-06-27T09:40:55Z</time>
      </trkpt>
      <trkpt lat="48.40061" lon="-4.57253">
        <ele>51.09</ele>
        <time>2021-06-27T09:40:57Z</time>
      </trkpt>
      <trkpt lat="48.40053" lon="-4.57248">
        <ele>51.57</ele>
        <time>2021-06-27T09:40:59Z</time>
      </trkpt>
      <trkpt lat="48.40044" lon="-4.57245">
        <ele>51.57</ele>
        <time>2021-06-27T09:41:01Z</time>
      </trkpt>
      <trkpt lat="48.4003" lon="-4.57243">
        <ele>51.57</ele>
        <time>2021-06-27T09:41:04Z</time>
      </trkpt>
      <trkpt lat="48.40025" lon="-4.57241">
        <ele>51.57</ele>
        <time>2021-06-27T09:41:05Z</time>
      </trkpt>
      <trkpt lat="48.40021" lon="-4.57237">
        <ele>51.57</ele>
        <time>2021-06-27T09:41:06Z</time>
      </trkpt>
      <trkpt lat="48.39998" lon="-4.57215">
        <ele>51.57</ele>
        <time>2021-06-27T09:41:13Z</time>
      </trkpt>
      <trkpt lat="48.39995" lon="-4.57217">
        <ele>51.57</ele>
        <time>2021-06-27T09:41:14Z</time>
      </trkpt>
      <trkpt lat="48.39992" lon="-4.5722">
        <ele>51.57</ele>
        <time>2021-06-27T09:41:15Z</time>
      </trkpt>
      <trkpt lat="48.39973" lon="-4.57247">
        <ele>50.61</ele>
        <time>2021-06-27T09:41:21Z</time>
      </trkpt>
      <trkpt lat="48.39966" lon="-4.57256">
        <ele>50.61</ele>
        <time>2021-06-27T09:41:23Z</time>
      </trkpt>
      <trkpt lat="48.39947" lon="-4.57288">
        <ele>49.65</ele>
        <time>2021-06-27T09:41:28Z</time>
      </trkpt>
      <trkpt lat="48.39925" lon="-4.57325">
        <ele>49.16</ele>
        <time>2021-06-27T09:41:33Z</time>
      </trkpt>
      <trkpt lat="48.39865" lon="-4.57411">
        <ele>48.2</ele>
        <time>2021-06-27T09:41:45Z</time>
      </trkpt>
      <trkpt lat="48.39862" lon="-4.57418">
        <ele>48.2</ele>
        <time>2021-06-27T09:41:46Z</time>
      </trkpt>
      <trkpt lat="48.39842" lon="-4.57446">
        <ele>48.2</ele>
        <time>2021-06-27T09:41:50Z</time>
      </trkpt>
      <trkpt lat="48.39836" lon="-4.57452">
        <ele>48.2</ele>
        <time>2021-06-27T09:41:51Z</time>
      </trkpt>
      <trkpt lat="48.39829" lon="-4.57458">
        <ele>48.2</ele>
        <time>2021-06-27T09:41:52Z</time>
      </trkpt>
      <trkpt lat="48.3978" lon="-4.57511">
        <ele>48.2</ele>
        <time>2021-06-27T09:42:01Z</time>
      </trkpt>
      <trkpt lat="48.39772" lon="-4.57523">
        <ele>48.2</ele>
        <time>2021-06-27T09:42:03Z</time>
      </trkpt>
      <trkpt lat="48.39767" lon="-4.57526">
        <ele>48.2</ele>
        <time>2021-06-27T09:42:04Z</time>
      </trkpt>
      <trkpt lat="48.39763" lon="-4.57526">
        <ele>48.2</ele>
        <time>2021-06-27T09:42:05Z</time>
      </trkpt>
      <trkpt lat="48.39759" lon="-4.57527">
        <ele>48.2</ele>
        <time>2021-06-27T09:42:06Z</time>
      </trkpt>
      <trkpt lat="48.39756" lon="-4.5753">
        <ele>49.65</ele>
        <time>2021-06-27T09:42:07Z</time>
      </trkpt>
      <trkpt lat="48.39753" lon="-4.57534">
        <ele>49.65</ele>
        <time>2021-06-27T09:42:08Z</time>
      </trkpt>
      <trkpt lat="48.39742" lon="-4.57548">
        <ele>49.65</ele>
        <time>2021-06-27T09:42:11Z</time>
      </trkpt>
      <trkpt lat="48.39737" lon="-4.57553">
        <ele>49.65</ele>
        <time>2021-06-27T09:42:12Z</time>
      </trkpt>
      <trkpt lat="48.39698" lon="-4.57584">
        <ele>50.13</ele>
        <time>2021-06-27T09:42:21Z</time>
      </trkpt>
      <trkpt lat="48.39684" lon="-4.57592">
        <ele>50.13</ele>
        <time>2021-06-27T09:42:24Z</time>
      </trkpt>
      <trkpt lat="48.3968" lon="-4.57596">
        <ele>50.13</ele>
        <time>2021-06-27T09:42:25Z</time>
      </trkpt>
      <trkpt lat="48.39671" lon="-4.57605">
        <ele>50.13</ele>
        <time>2021-06-27T09:42:27Z</time>
      </trkpt>
      <trkpt lat="48.39654" lon="-4.57619">
        <ele>50.13</ele>
        <time>2021-06-27T09:42:31Z</time>
      </trkpt>
      <trkpt lat="48.39609" lon="-4.57654">
        <ele>50.13</ele>
        <time>2021-06-27T09:42:41Z</time>
      </trkpt>
      <trkpt lat="48.39551" lon="-4.57706">
        <ele>50.13</ele>
        <time>2021-06-27T09:42:54Z</time>
      </trkpt>
      <trkpt lat="48.39517" lon="-4.57728">
        <ele>50.13</ele>
        <time>2021-06-27T09:43:01Z</time>
      </trkpt>
      <trkpt lat="48.39512" lon="-4.57729">
        <ele>50.13</ele>
        <time>2021-06-27T09:43:02Z</time>
      </trkpt>
      <trkpt lat="48.39506" lon="-4.57729">
        <ele>50.13</ele>
        <time>2021-06-27T09:43:03Z</time>
      </trkpt>
      <trkpt lat="48.39496" lon="-4.57725">
        <ele>50.13</ele>
        <time>2021-06-27T09:43:05Z</time>
      </trkpt>
      <trkpt lat="48.39488" lon="-4.5772">
        <ele>50.13</ele>
        <time>2021-06-27T09:43:07Z</time>
      </trkpt>
      <trkpt lat="48.39483" lon="-4.5773">
        <ele>50.13</ele>
        <time>2021-06-27T09:43:13Z</time>
      </trkpt>
      <trkpt lat="48.39502" lon="-4.57771">
        <ele>50.13</ele>
        <time>2021-06-27T09:43:22Z</time>
      </trkpt>
      <trkpt lat="48.39501" lon="-4.57776">
        <ele>50.13</ele>
        <time>2021-06-27T09:43:23Z</time>
      </trkpt>
      <trkpt lat="48.395" lon="-4.57781">
        <ele>50.13</ele>
        <time>2021-06-27T09:43:24Z</time>
      </trkpt>
      <trkpt lat="48.39497" lon="-4.578">
        <ele>50.13</ele>
        <time>2021-06-27T09:43:27Z</time>
      </trkpt>
      <trkpt lat="48.39495" lon="-4.57844">
        <ele>50.13</ele>
        <time>2021-06-27T09:43:33Z</time>
      </trkpt>
      <trkpt lat="48.39494" lon="-4.57851">
        <ele>50.13</ele>
        <time>2021-06-27T09:43:34Z</time>
      </trkpt>
      <trkpt lat="48.3949" lon="-4.57881">
        <ele>50.13</ele>
        <time>2021-06-27T09:43:38Z</time>
      </trkpt>
      <trkpt lat="48.39491" lon="-4.57888">
        <ele>50.13</ele>
        <time>2021-06-27T09:43:39Z</time>
      </trkpt>
      <trkpt lat="48.39494" lon="-4.57893">
        <ele>48.68</ele>
        <time>2021-06-27T09:43:40Z</time>
      </trkpt>
      <trkpt lat="48.39497" lon="-4.57896">
        <ele>48.2</ele>
        <time>2021-06-27T09:43:41Z</time>
      </trkpt>
      <trkpt lat="48.39502" lon="-4.57898">
        <ele>48.2</ele>
        <time>2021-06-27T09:43:42Z</time>
      </trkpt>
      <trkpt lat="48.39507" lon="-4.57898">
        <ele>47.72</ele>
        <time>2021-06-27T09:43:43Z</time>
      </trkpt>
      <trkpt lat="48.39511" lon="-4.57899">
        <ele>47.72</ele>
        <time>2021-06-27T09:43:44Z</time>
      </trkpt>
      <trkpt lat="48.39516" lon="-4.579">
        <ele>47.72</ele>
        <time>2021-06-27T09:43:45Z</time>
      </trkpt>
      <trkpt lat="48.39587" lon="-4.57924">
        <ele>47.24</ele>
        <time>2021-06-27T09:43:57Z</time>
      </trkpt>
      <trkpt lat="48.39593" lon="-4.57928">
        <ele>47.24</ele>
        <time>2021-06-27T09:43:58Z</time>
      </trkpt>
      <trkpt lat="48.39598" lon="-4.57931">
        <ele>47.24</ele>
        <time>2021-06-27T09:43:59Z</time>
      </trkpt>
      <trkpt lat="48.39602" lon="-4.57932">
        <ele>48.68</ele>
        <time>2021-06-27T09:44:00Z</time>
      </trkpt>
      <trkpt lat="48.39607" lon="-4.57931">
        <ele>48.68</ele>
        <time>2021-06-27T09:44:01Z</time>
      </trkpt>
      <trkpt lat="48.39653" lon="-4.57939">
        <ele>48.68</ele>
        <time>2021-06-27T09:44:10Z</time>
      </trkpt>
      <trkpt lat="48.39673" lon="-4.57944">
        <ele>48.68</ele>
        <time>2021-06-27T09:44:13Z</time>
      </trkpt>
      <trkpt lat="48.39698" lon="-4.57953">
        <ele>48.68</ele>
        <time>2021-06-27T09:44:17Z</time>
      </trkpt>
      <trkpt lat="48.39787" lon="-4.57975">
        <ele>48.68</ele>
        <time>2021-06-27T09:44:30Z</time>
      </trkpt>
      <trkpt lat="48.39829" lon="-4.57986">
        <ele>48.68</ele>
        <time>2021-06-27T09:44:37Z</time>
      </trkpt>
      <trkpt lat="48.39835" lon="-4.57987">
        <ele>48.68</ele>
        <time>2021-06-27T09:44:38Z</time>
      </trkpt>
      <trkpt lat="48.39853" lon="-4.57991">
        <ele>48.68</ele>
        <time>2021-06-27T09:44:41Z</time>
      </trkpt>
      <trkpt lat="48.39921" lon="-4.58012">
        <ele>46.76</ele>
        <time>2021-06-27T09:44:52Z</time>
      </trkpt>
      <trkpt lat="48.3998" lon="-4.58021">
        <ele>46.28</ele>
        <time>2021-06-27T09:44:59Z</time>
      </trkpt>
      <trkpt lat="48.40029" lon="-4.58023">
        <ele>46.28</ele>
        <time>2021-06-27T09:45:05Z</time>
      </trkpt>
      <trkpt lat="48.40042" lon="-4.58023">
        <ele>49.16</ele>
        <time>2021-06-27T09:45:07Z</time>
      </trkpt>
      <trkpt lat="48.40049" lon="-4.58024">
        <ele>50.13</ele>
        <time>2021-06-27T09:45:08Z</time>
      </trkpt>
      <trkpt lat="48.40053" lon="-4.58028">
        <ele>50.13</ele>
        <time>2021-06-27T09:45:09Z</time>
      </trkpt>
      <trkpt lat="48.40055" lon="-4.58033">
        <ele>50.13</ele>
        <time>2021-06-27T09:45:10Z</time>
      </trkpt>
      <trkpt lat="48.40057" lon="-4.58039">
        <ele>50.13</ele>
        <time>2021-06-27T09:45:11Z</time>
      </trkpt>
      <trkpt lat="48.40058" lon="-4.58046">
        <ele>50.13</ele>
        <time>2021-06-27T09:45:12Z</time>
      </trkpt>
      <trkpt lat="48.4006" lon="-4.58054">
        <ele>50.13</ele>
        <time>2021-06-27T09:45:13Z</time>
      </trkpt>
      <trkpt lat="48.40062" lon="-4.58063">
        <ele>50.13</ele>
        <time>2021-06-27T09:45:14Z</time>
      </trkpt>
      <trkpt lat="48.4007" lon="-4.5809">
        <ele>50.13</ele>
        <time>2021-06-27T09:45:17Z</time>
      </trkpt>
      <trkpt lat="48.40108" lon="-4.58227">
        <ele>47.24</ele>
        <time>2021-06-27T09:45:31Z</time>
      </trkpt>
      <trkpt lat="48.40115" lon="-4.58248">
        <ele>47.24</ele>
        <time>2021-06-27T09:45:33Z</time>
      </trkpt>
      <trkpt lat="48.40119" lon="-4.58258">
        <ele>46.28</ele>
        <time>2021-06-27T09:45:34Z</time>
      </trkpt>
      <trkpt lat="48.40191" lon="-4.5838">
        <ele>47.24</ele>
        <time>2021-06-27T09:45:48Z</time>
      </trkpt>
      <trkpt lat="48.40258" lon="-4.58501">
        <ele>48.2</ele>
        <time>2021-06-27T09:46:03Z</time>
      </trkpt>
      <trkpt lat="48.40307" lon="-4.58589">
        <ele>48.68</ele>
        <time>2021-06-27T09:46:15Z</time>
      </trkpt>
      <trkpt lat="48.4031" lon="-4.58596">
        <ele>48.68</ele>
        <time>2021-06-27T09:46:16Z</time>
      </trkpt>
      <trkpt lat="48.40312" lon="-4.58605">
        <ele>47.24</ele>
        <time>2021-06-27T09:46:17Z</time>
      </trkpt>
      <trkpt lat="48.40313" lon="-4.58614">
        <ele>47.24</ele>
        <time>2021-06-27T09:46:18Z</time>
      </trkpt>
      <trkpt lat="48.40314" lon="-4.58623">
        <ele>47.24</ele>
        <time>2021-06-27T09:46:19Z</time>
      </trkpt>
      <trkpt lat="48.40315" lon="-4.58631">
        <ele>47.24</ele>
        <time>2021-06-27T09:46:20Z</time>
      </trkpt>
      <trkpt lat="48.40317" lon="-4.58638">
        <ele>48.2</ele>
        <time>2021-06-27T09:46:21Z</time>
      </trkpt>
      <trkpt lat="48.40319" lon="-4.58646">
        <ele>48.2</ele>
        <time>2021-06-27T09:46:22Z</time>
      </trkpt>
      <trkpt lat="48.40333" lon="-4.58708">
        <ele>48.2</ele>
        <time>2021-06-27T09:46:30Z</time>
      </trkpt>
      <trkpt lat="48.40334" lon="-4.58717">
        <ele>48.2</ele>
        <time>2021-06-27T09:46:31Z</time>
      </trkpt>
      <trkpt lat="48.40338" lon="-4.58778">
        <ele>49.65</ele>
        <time>2021-06-27T09:46:39Z</time>
      </trkpt>
      <trkpt lat="48.40341" lon="-4.5878">
        <ele>49.65</ele>
        <time>2021-06-27T09:46:40Z</time>
      </trkpt>
      <trkpt lat="48.40345" lon="-4.58781">
        <ele>49.65</ele>
        <time>2021-06-27T09:46:41Z</time>
      </trkpt>
      <trkpt lat="48.40349" lon="-4.58783">
        <ele>49.65</ele>
        <time>2021-06-27T09:46:42Z</time>
      </trkpt>
      <trkpt lat="48.40353" lon="-4.58785">
        <ele>49.65</ele>
        <time>2021-06-27T09:46:43Z</time>
      </trkpt>
      <trkpt lat="48.40357" lon="-4.58789">
        <ele>49.65</ele>
        <time>2021-06-27T09:46:44Z</time>
      </trkpt>
      <trkpt lat="48.4036" lon="-4.58795">
        <ele>49.65</ele>
        <time>2021-06-27T09:46:45Z</time>
      </trkpt>
      <trkpt lat="48.40364" lon="-4.588">
        <ele>49.65</ele>
        <time>2021-06-27T09:46:46Z</time>
      </trkpt>
      <trkpt lat="48.40389" lon="-4.58841">
        <ele>49.65</ele>
        <time>2021-06-27T09:46:53Z</time>
      </trkpt>
      <trkpt lat="48.40393" lon="-4.58845">
        <ele>49.65</ele>
        <time>2021-06-27T09:46:54Z</time>
      </trkpt>
      <trkpt lat="48.40398" lon="-4.58846">
        <ele>49.65</ele>
        <time>2021-06-27T09:46:55Z</time>
      </trkpt>
      <trkpt lat="48.40403" lon="-4.58844">
        <ele>49.65</ele>
        <time>2021-06-27T09:46:56Z</time>
      </trkpt>
      <trkpt lat="48.40408" lon="-4.58841">
        <ele>49.65</ele>
        <time>2021-06-27T09:46:57Z</time>
      </trkpt>
      <trkpt lat="48.40414" lon="-4.58839">
        <ele>49.65</ele>
        <time>2021-06-27T09:46:58Z</time>
      </trkpt>
      <trkpt lat="48.4042" lon="-4.58837">
        <ele>49.65</ele>
        <time>2021-06-27T09:46:59Z</time>
      </trkpt>
      <trkpt lat="48.40498" lon="-4.58813">
        <ele>47.24</ele>
        <time>2021-06-27T09:47:11Z</time>
      </trkpt>
      <trkpt lat="48.40504" lon="-4.58809">
        <ele>47.24</ele>
        <time>2021-06-27T09:47:12Z</time>
      </trkpt>
      <trkpt lat="48.4051" lon="-4.58803">
        <ele>46.76</ele>
        <time>2021-06-27T09:47:13Z</time>
      </trkpt>
      <trkpt lat="48.40526" lon="-4.58782">
        <ele>44.84</ele>
        <time>2021-06-27T09:47:16Z</time>
      </trkpt>
      <trkpt lat="48.40611" lon="-4.58675">
        <ele>44.84</ele>
        <time>2021-06-27T09:47:31Z</time>
      </trkpt>
      <trkpt lat="48.40642" lon="-4.58636">
        <ele>44.36</ele>
        <time>2021-06-27T09:47:37Z</time>
      </trkpt>
      <trkpt lat="48.40645" lon="-4.58629">
        <ele>44.36</ele>
        <time>2021-06-27T09:47:38Z</time>
      </trkpt>
      <trkpt lat="48.40648" lon="-4.58623">
        <ele>44.36</ele>
        <time>2021-06-27T09:47:39Z</time>
      </trkpt>
      <trkpt lat="48.40651" lon="-4.58618">
        <ele>45.32</ele>
        <time>2021-06-27T09:47:40Z</time>
      </trkpt>
      <trkpt lat="48.40655" lon="-4.58617">
        <ele>45.32</ele>
        <time>2021-06-27T09:47:41Z</time>
      </trkpt>
      <trkpt lat="48.40658" lon="-4.58619">
        <ele>45.32</ele>
        <time>2021-06-27T09:47:42Z</time>
      </trkpt>
      <trkpt lat="48.40662" lon="-4.58622">
        <ele>45.32</ele>
        <time>2021-06-27T09:47:43Z</time>
      </trkpt>
      <trkpt lat="48.40666" lon="-4.58627">
        <ele>45.32</ele>
        <time>2021-06-27T09:47:44Z</time>
      </trkpt>
      <trkpt lat="48.40669" lon="-4.58631">
        <ele>45.32</ele>
        <time>2021-06-27T09:47:45Z</time>
      </trkpt>
      <trkpt lat="48.407" lon="-4.58636">
        <ele>45.8</ele>
        <time>2021-06-27T09:47:54Z</time>
      </trkpt>
      <trkpt lat="48.40703" lon="-4.58633">
        <ele>45.8</ele>
        <time>2021-06-27T09:47:55Z</time>
      </trkpt>
      <trkpt lat="48.40711" lon="-4.58627">
        <ele>45.8</ele>
        <time>2021-06-27T09:47:57Z</time>
      </trkpt>
      <trkpt lat="48.40714" lon="-4.58623">
        <ele>45.8</ele>
        <time>2021-06-27T09:47:58Z</time>
      </trkpt>
      <trkpt lat="48.40725" lon="-4.58609">
        <ele>46.76</ele>
        <time>2021-06-27T09:48:01Z</time>
      </trkpt>
      <trkpt lat="48.40727" lon="-4.58604">
        <ele>46.76</ele>
        <time>2021-06-27T09:48:02Z</time>
      </trkpt>
      <trkpt lat="48.4073" lon="-4.58597">
        <ele>46.76</ele>
        <time>2021-06-27T09:48:03Z</time>
      </trkpt>
      <trkpt lat="48.40731" lon="-4.58591">
        <ele>46.76</ele>
        <time>2021-06-27T09:48:04Z</time>
      </trkpt>
      <trkpt lat="48.40732" lon="-4.58585">
        <ele>46.76</ele>
        <time>2021-06-27T09:48:05Z</time>
      </trkpt>
      <trkpt lat="48.40731" lon="-4.58577">
        <ele>46.76</ele>
        <time>2021-06-27T09:48:06Z</time>
      </trkpt>
      <trkpt lat="48.40729" lon="-4.5857">
        <ele>46.28</ele>
        <time>2021-06-27T09:48:07Z</time>
      </trkpt>
      <trkpt lat="48.40727" lon="-4.58562">
        <ele>46.28</ele>
        <time>2021-06-27T09:48:08Z</time>
      </trkpt>
      <trkpt lat="48.40727" lon="-4.58554">
        <ele>46.28</ele>
        <time>2021-06-27T09:48:09Z</time>
      </trkpt>
      <trkpt lat="48.40729" lon="-4.58546">
        <ele>46.28</ele>
        <time>2021-06-27T09:48:10Z</time>
      </trkpt>
      <trkpt lat="48.40731" lon="-4.5854">
        <ele>46.28</ele>
        <time>2021-06-27T09:48:11Z</time>
      </trkpt>
      <trkpt lat="48.40733" lon="-4.58533">
        <ele>46.28</ele>
        <time>2021-06-27T09:48:12Z</time>
      </trkpt>
      <trkpt lat="48.40742" lon="-4.58511">
        <ele>46.76</ele>
        <time>2021-06-27T09:48:15Z</time>
      </trkpt>
      <trkpt lat="48.40757" lon="-4.58467">
        <ele>46.76</ele>
        <time>2021-06-27T09:48:21Z</time>
      </trkpt>
      <trkpt lat="48.40758" lon="-4.58462">
        <ele>46.76</ele>
        <time>2021-06-27T09:48:22Z</time>
      </trkpt>
      <trkpt lat="48.40757" lon="-4.58459">
        <ele>46.76</ele>
        <time>2021-06-27T09:48:23Z</time>
      </trkpt>
      <trkpt lat="48.40755" lon="-4.58458">
        <ele>46.76</ele>
        <time>2021-06-27T09:48:25Z</time>
      </trkpt>
      <trkpt lat="48.40754" lon="-4.58459">
        <ele>46.76</ele>
        <time>2021-06-27T09:48:26Z</time>
      </trkpt>
      <trkpt lat="48.40753" lon="-4.58461">
        <ele>46.76</ele>
        <time>2021-06-27T09:48:27Z</time>
      </trkpt>
      <trkpt lat="48.40751" lon="-4.58463">
        <ele>47.24</ele>
        <time>2021-06-27T09:48:28Z</time>
      </trkpt>
      <trkpt lat="48.4075" lon="-4.58465">
        <ele>47.24</ele>
        <time>2021-06-27T09:48:29Z</time>
      </trkpt>
      <trkpt lat="48.40749" lon="-4.58468">
        <ele>47.72</ele>
        <time>2021-06-27T09:48:30Z</time>
      </trkpt>
      <trkpt lat="48.40747" lon="-4.58471">
        <ele>47.72</ele>
        <time>2021-06-27T09:48:31Z</time>
      </trkpt>
      <trkpt lat="48.40745" lon="-4.58474">
        <ele>48.68</ele>
        <time>2021-06-27T09:48:32Z</time>
      </trkpt>
      <trkpt lat="48.40722" lon="-4.58519">
        <ele>52.05</ele>
        <time>2021-06-27T09:48:42Z</time>
      </trkpt>
      <trkpt lat="48.40711" lon="-4.58554">
        <ele>53.49</ele>
        <time>2021-06-27T09:48:48Z</time>
      </trkpt>
      <trkpt lat="48.40708" lon="-4.58581">
        <ele>53.97</ele>
        <time>2021-06-27T09:48:52Z</time>
      </trkpt>
      <trkpt lat="48.40706" lon="-4.58587">
        <ele>54.45</ele>
        <time>2021-06-27T09:48:53Z</time>
      </trkpt>
      <trkpt lat="48.40703" lon="-4.58591">
        <ele>54.45</ele>
        <time>2021-06-27T09:48:54Z</time>
      </trkpt>
      <trkpt lat="48.407" lon="-4.58594">
        <ele>54.45</ele>
        <time>2021-06-27T09:48:55Z</time>
      </trkpt>
      <trkpt lat="48.40696" lon="-4.58596">
        <ele>54.45</ele>
        <time>2021-06-27T09:48:56Z</time>
      </trkpt>
      <trkpt lat="48.40692" lon="-4.58598">
        <ele>54.45</ele>
        <time>2021-06-27T09:48:57Z</time>
      </trkpt>
      <trkpt lat="48.40688" lon="-4.586">
        <ele>54.45</ele>
        <time>2021-06-27T09:48:58Z</time>
      </trkpt>
      <trkpt lat="48.40684" lon="-4.586">
        <ele>54.45</ele>
        <time>2021-06-27T09:48:59Z</time>
      </trkpt>
      <trkpt lat="48.4068" lon="-4.58599">
        <ele>54.45</ele>
        <time>2021-06-27T09:49:00Z</time>
      </trkpt>
      <trkpt lat="48.40676" lon="-4.58595">
        <ele>54.45</ele>
        <time>2021-06-27T09:49:01Z</time>
      </trkpt>
      <trkpt lat="48.40674" lon="-4.58591">
        <ele>54.93</ele>
        <time>2021-06-27T09:49:02Z</time>
      </trkpt>
      <trkpt lat="48.40672" lon="-4.58586">
        <ele>54.93</ele>
        <time>2021-06-27T09:49:03Z</time>
      </trkpt>
      <trkpt lat="48.4067" lon="-4.5858">
        <ele>55.41</ele>
        <time>2021-06-27T09:49:04Z</time>
      </trkpt>
      <trkpt lat="48.40679" lon="-4.58543">
        <ele>56.37</ele>
        <time>2021-06-27T09:49:12Z</time>
      </trkpt>
      <trkpt lat="48.40687" lon="-4.58539">
        <ele>57.34</ele>
        <time>2021-06-27T09:49:22Z</time>
      </trkpt>
      <trkpt lat="48.40688" lon="-4.5854">
        <ele>56.86</ele>
        <time>2021-06-27T09:49:35Z</time>
      </trkpt>
      <trkpt lat="48.40688" lon="-4.58541">
        <ele>56.86</ele>
        <time>2021-06-27T09:50:01Z</time>
      </trkpt>
      <trkpt lat="48.40688" lon="-4.58541">
        <ele>57.34</ele>
        <time>2021-06-27T09:50:27Z</time>
      </trkpt>
      <trkpt lat="48.40689" lon="-4.5854">
        <ele>57.34</ele>
        <time>2021-06-27T09:50:51Z</time>
      </trkpt>
      <trkpt lat="48.40688" lon="-4.58539">
        <ele>57.34</ele>
        <time>2021-06-27T09:51:16Z</time>
      </trkpt>
      <trkpt lat="48.40688" lon="-4.5854">
        <ele>56.86</ele>
        <time>2021-06-27T09:51:42Z</time>
      </trkpt>
      <trkpt lat="48.40688" lon="-4.5854">
        <ele>57.34</ele>
        <time>2021-06-27T09:52:08Z</time>
      </trkpt>
      <trkpt lat="48.40688" lon="-4.5854">
        <ele>57.34</ele>
        <time>2021-06-27T09:52:34Z</time>
      </trkpt>
      <trkpt lat="48.40689" lon="-4.5854">
        <ele>57.34</ele>
        <time>2021-06-27T09:52:57Z</time>
      </trkpt>
      <trkpt lat="48.40689" lon="-4.58541">
        <ele>57.34</ele>
        <time>2021-06-27T09:53:25Z</time>
      </trkpt>
      <trkpt lat="48.40689" lon="-4.58543">
        <ele>56.86</ele>
        <time>2021-06-27T09:53:50Z</time>
      </trkpt>
      <trkpt lat="48.40689" lon="-4.58544">
        <ele>57.34</ele>
        <time>2021-06-27T09:54:12Z</time>
      </trkpt>
      <trkpt lat="48.40689" lon="-4.58543">
        <ele>57.34</ele>
        <time>2021-06-27T09:54:37Z</time>
      </trkpt>
      <trkpt lat="48.40688" lon="-4.58544">
        <ele>57.34</ele>
        <time>2021-06-27T09:55:11Z</time>
      </trkpt>
      <trkpt lat="48.40688" lon="-4.58542">
        <ele>57.82</ele>
        <time>2021-06-27T09:55:32Z</time>
      </trkpt>
      <trkpt lat="48.40688" lon="-4.58542">
        <ele>57.34</ele>
        <time>2021-06-27T09:56:01Z</time>
      </trkpt>
      <trkpt lat="48.40688" lon="-4.58542">
        <ele>57.34</ele>
        <time>2021-06-27T09:56:29Z</time>
      </trkpt>
      <trkpt lat="48.40689" lon="-4.58542">
        <ele>57.34</ele>
        <time>2021-06-27T09:57:01Z</time>
      </trkpt>
      <trkpt lat="48.40689" lon="-4.58541">
        <ele>57.34</ele>
        <time>2021-06-27T09:57:29Z</time>
      </trkpt>
      <trkpt lat="48.40689" lon="-4.58541">
        <ele>57.34</ele>
        <time>2021-06-27T09:57:51Z</time>
      </trkpt>
      <trkpt lat="48.40688" lon="-4.58541">
        <ele>56.86</ele>
        <time>2021-06-27T09:58:22Z</time>
      </trkpt>
      <trkpt lat="48.40687" lon="-4.58543">
        <ele>56.86</ele>
        <time>2021-06-27T09:58:40Z</time>
      </trkpt>
      <trkpt lat="48.40687" lon="-4.58542">
        <ele>56.86</ele>
        <time>2021-06-27T09:59:00Z</time>
      </trkpt>
      <trkpt lat="48.40687" lon="-4.58542">
        <ele>56.86</ele>
        <time>2021-06-27T09:59:22Z</time>
      </trkpt>
      <trkpt lat="48.40687" lon="-4.58542">
        <ele>56.86</ele>
        <time>2021-06-27T09:59:49Z</time>
      </trkpt>
      <trkpt lat="48.40685" lon="-4.58543">
        <ele>56.86</ele>
        <time>2021-06-27T09:59:57Z</time>
      </trkpt>
      <trkpt lat="48.40684" lon="-4.58544">
        <ele>56.86</ele>
        <time>2021-06-27T09:59:58Z</time>
      </trkpt>
      <trkpt lat="48.40682" lon="-4.58545">
        <ele>56.86</ele>
        <time>2021-06-27T09:59:59Z</time>
      </trkpt>
      <trkpt lat="48.40674" lon="-4.58553">
        <ele>55.41</ele>
        <time>2021-06-27T10:00:03Z</time>
      </trkpt>
      <trkpt lat="48.40674" lon="-4.58593">
        <ele>54.45</ele>
        <time>2021-06-27T10:00:12Z</time>
      </trkpt>
      <trkpt lat="48.40677" lon="-4.58597">
        <ele>53.97</ele>
        <time>2021-06-27T10:00:13Z</time>
      </trkpt>
      <trkpt lat="48.4068" lon="-4.586">
        <ele>53.97</ele>
        <time>2021-06-27T10:00:14Z</time>
      </trkpt>
      <trkpt lat="48.40684" lon="-4.58602">
        <ele>53.97</ele>
        <time>2021-06-27T10:00:15Z</time>
      </trkpt>
      <trkpt lat="48.40688" lon="-4.58601">
        <ele>53.97</ele>
        <time>2021-06-27T10:00:16Z</time>
      </trkpt>
      <trkpt lat="48.40692" lon="-4.586">
        <ele>53.97</ele>
        <time>2021-06-27T10:00:17Z</time>
      </trkpt>
      <trkpt lat="48.40695" lon="-4.58598">
        <ele>53.97</ele>
        <time>2021-06-27T10:00:18Z</time>
      </trkpt>
      <trkpt lat="48.40706" lon="-4.58588">
        <ele>53.97</ele>
        <time>2021-06-27T10:00:22Z</time>
      </trkpt>
      <trkpt lat="48.40708" lon="-4.58583">
        <ele>53.97</ele>
        <time>2021-06-27T10:00:23Z</time>
      </trkpt>
      <trkpt lat="48.40708" lon="-4.58578">
        <ele>53.97</ele>
        <time>2021-06-27T10:00:24Z</time>
      </trkpt>
      <trkpt lat="48.40712" lon="-4.58545">
        <ele>53.49</ele>
        <time>2021-06-27T10:00:30Z</time>
      </trkpt>
      <trkpt lat="48.40715" lon="-4.58539">
        <ele>53.01</ele>
        <time>2021-06-27T10:00:31Z</time>
      </trkpt>
      <trkpt lat="48.40734" lon="-4.58493">
        <ele>49.65</ele>
        <time>2021-06-27T10:00:39Z</time>
      </trkpt>
      <trkpt lat="48.40751" lon="-4.58463">
        <ele>46.76</ele>
        <time>2021-06-27T10:00:45Z</time>
      </trkpt>
      <trkpt lat="48.40754" lon="-4.5846">
        <ele>46.76</ele>
        <time>2021-06-27T10:00:46Z</time>
      </trkpt>
      <trkpt lat="48.40756" lon="-4.58458">
        <ele>45.8</ele>
        <time>2021-06-27T10:00:47Z</time>
      </trkpt>
      <trkpt lat="48.40758" lon="-4.58459">
        <ele>45.8</ele>
        <time>2021-06-27T10:00:48Z</time>
      </trkpt>
      <trkpt lat="48.4076" lon="-4.5846">
        <ele>45.8</ele>
        <time>2021-06-27T10:00:49Z</time>
      </trkpt>
      <trkpt lat="48.40761" lon="-4.58463">
        <ele>45.8</ele>
        <time>2021-06-27T10:00:50Z</time>
      </trkpt>
      <trkpt lat="48.40761" lon="-4.58466">
        <ele>45.8</ele>
        <time>2021-06-27T10:00:51Z</time>
      </trkpt>
      <trkpt lat="48.40761" lon="-4.58468">
        <ele>45.8</ele>
        <time>2021-06-27T10:00:52Z</time>
      </trkpt>
      <trkpt lat="48.4076" lon="-4.58471">
        <ele>45.32</ele>
        <time>2021-06-27T10:00:53Z</time>
      </trkpt>
      <trkpt lat="48.40759" lon="-4.58475">
        <ele>45.32</ele>
        <time>2021-06-27T10:00:54Z</time>
      </trkpt>
      <trkpt lat="48.40735" lon="-4.58536">
        <ele>45.32</ele>
        <time>2021-06-27T10:01:07Z</time>
      </trkpt>
      <trkpt lat="48.4073" lon="-4.58553">
        <ele>45.32</ele>
        <time>2021-06-27T10:01:10Z</time>
      </trkpt>
      <trkpt lat="48.40729" lon="-4.58559">
        <ele>45.32</ele>
        <time>2021-06-27T10:01:11Z</time>
      </trkpt>
      <trkpt lat="48.40729" lon="-4.58565">
        <ele>45.32</ele>
        <time>2021-06-27T10:01:12Z</time>
      </trkpt>
      <trkpt lat="48.40731" lon="-4.58572">
        <ele>44.84</ele>
        <time>2021-06-27T10:01:13Z</time>
      </trkpt>
      <trkpt lat="48.40732" lon="-4.58578">
        <ele>44.84</ele>
        <time>2021-06-27T10:01:14Z</time>
      </trkpt>
      <trkpt lat="48.40734" lon="-4.58584">
        <ele>44.84</ele>
        <time>2021-06-27T10:01:15Z</time>
      </trkpt>
      <trkpt lat="48.40734" lon="-4.5859">
        <ele>44.84</ele>
        <time>2021-06-27T10:01:16Z</time>
      </trkpt>
      <trkpt lat="48.40734" lon="-4.58597">
        <ele>44.84</ele>
        <time>2021-06-27T10:01:17Z</time>
      </trkpt>
      <trkpt lat="48.40732" lon="-4.58603">
        <ele>44.84</ele>
        <time>2021-06-27T10:01:18Z</time>
      </trkpt>
      <trkpt lat="48.4073" lon="-4.58608">
        <ele>44.84</ele>
        <time>2021-06-27T10:01:19Z</time>
      </trkpt>
      <trkpt lat="48.40728" lon="-4.58613">
        <ele>44.84</ele>
        <time>2021-06-27T10:01:20Z</time>
      </trkpt>
      <trkpt lat="48.40725" lon="-4.58617">
        <ele>44.84</ele>
        <time>2021-06-27T10:01:21Z</time>
      </trkpt>
      <trkpt lat="48.40721" lon="-4.58621">
        <ele>44.84</ele>
        <time>2021-06-27T10:01:22Z</time>
      </trkpt>
      <trkpt lat="48.40713" lon="-4.5863">
        <ele>44.84</ele>
        <time>2021-06-27T10:01:24Z</time>
      </trkpt>
      <trkpt lat="48.40705" lon="-4.58637">
        <ele>44.84</ele>
        <time>2021-06-27T10:01:26Z</time>
      </trkpt>
      <trkpt lat="48.407" lon="-4.5864">
        <ele>44.84</ele>
        <time>2021-06-27T10:01:27Z</time>
      </trkpt>
      <trkpt lat="48.40696" lon="-4.58641">
        <ele>44.84</ele>
        <time>2021-06-27T10:01:28Z</time>
      </trkpt>
      <trkpt lat="48.40687" lon="-4.58643">
        <ele>44.84</ele>
        <time>2021-06-27T10:01:30Z</time>
      </trkpt>
      <trkpt lat="48.40683" lon="-4.58642">
        <ele>44.84</ele>
        <time>2021-06-27T10:01:31Z</time>
      </trkpt>
      <trkpt lat="48.40679" lon="-4.5864">
        <ele>44.84</ele>
        <time>2021-06-27T10:01:32Z</time>
      </trkpt>
      <trkpt lat="48.40676" lon="-4.58637">
        <ele>44.84</ele>
        <time>2021-06-27T10:01:33Z</time>
      </trkpt>
      <trkpt lat="48.40673" lon="-4.58633">
        <ele>44.84</ele>
        <time>2021-06-27T10:01:34Z</time>
      </trkpt>
      <trkpt lat="48.40669" lon="-4.58629">
        <ele>44.84</ele>
        <time>2021-06-27T10:01:35Z</time>
      </trkpt>
      <trkpt lat="48.40663" lon="-4.5862">
        <ele>44.84</ele>
        <time>2021-06-27T10:01:37Z</time>
      </trkpt>
      <trkpt lat="48.40659" lon="-4.58618">
        <ele>44.84</ele>
        <time>2021-06-27T10:01:38Z</time>
      </trkpt>
      <trkpt lat="48.40655" lon="-4.58617">
        <ele>44.84</ele>
        <time>2021-06-27T10:01:39Z</time>
      </trkpt>
      <trkpt lat="48.40652" lon="-4.58619">
        <ele>44.84</ele>
        <time>2021-06-27T10:01:40Z</time>
      </trkpt>
      <trkpt lat="48.40651" lon="-4.58622">
        <ele>44.84</ele>
        <time>2021-06-27T10:01:41Z</time>
      </trkpt>
      <trkpt lat="48.4065" lon="-4.58626">
        <ele>44.84</ele>
        <time>2021-06-27T10:01:42Z</time>
      </trkpt>
      <trkpt lat="48.40646" lon="-4.58636">
        <ele>44.84</ele>
        <time>2021-06-27T10:01:44Z</time>
      </trkpt>
      <trkpt lat="48.40587" lon="-4.58715">
        <ele>44.84</ele>
        <time>2021-06-27T10:02:00Z</time>
      </trkpt>
      <trkpt lat="48.40515" lon="-4.58807">
        <ele>46.76</ele>
        <time>2021-06-27T10:02:19Z</time>
      </trkpt>
      <trkpt lat="48.40476" lon="-4.58829">
        <ele>48.2</ele>
        <time>2021-06-27T10:02:30Z</time>
      </trkpt>
      <trkpt lat="48.40414" lon="-4.5885">
        <ele>49.16</ele>
        <time>2021-06-27T10:02:44Z</time>
      </trkpt>
      <trkpt lat="48.40407" lon="-4.58853">
        <ele>49.65</ele>
        <time>2021-06-27T10:02:46Z</time>
      </trkpt>
      <trkpt lat="48.40404" lon="-4.58851">
        <ele>49.65</ele>
        <time>2021-06-27T10:02:47Z</time>
      </trkpt>
      <trkpt lat="48.404" lon="-4.58848">
        <ele>49.65</ele>
        <time>2021-06-27T10:02:48Z</time>
      </trkpt>
      <trkpt lat="48.40396" lon="-4.58844">
        <ele>49.65</ele>
        <time>2021-06-27T10:02:49Z</time>
      </trkpt>
      <trkpt lat="48.40393" lon="-4.58839">
        <ele>49.65</ele>
        <time>2021-06-27T10:02:50Z</time>
      </trkpt>
      <trkpt lat="48.4039" lon="-4.58833">
        <ele>49.65</ele>
        <time>2021-06-27T10:02:51Z</time>
      </trkpt>
      <trkpt lat="48.40374" lon="-4.58807">
        <ele>49.65</ele>
        <time>2021-06-27T10:02:56Z</time>
      </trkpt>
      <trkpt lat="48.40371" lon="-4.58802">
        <ele>49.65</ele>
        <time>2021-06-27T10:02:57Z</time>
      </trkpt>
      <trkpt lat="48.40367" lon="-4.58797">
        <ele>49.65</ele>
        <time>2021-06-27T10:02:58Z</time>
      </trkpt>
      <trkpt lat="48.40363" lon="-4.58792">
        <ele>49.65</ele>
        <time>2021-06-27T10:02:59Z</time>
      </trkpt>
      <trkpt lat="48.4036" lon="-4.58788">
        <ele>49.65</ele>
        <time>2021-06-27T10:03:00Z</time>
      </trkpt>
      <trkpt lat="48.40355" lon="-4.58786">
        <ele>49.65</ele>
        <time>2021-06-27T10:03:01Z</time>
      </trkpt>
      <trkpt lat="48.4035" lon="-4.58785">
        <ele>49.65</ele>
        <time>2021-06-27T10:03:02Z</time>
      </trkpt>
      <trkpt lat="48.40343" lon="-4.5878">
        <ele>49.65</ele>
        <time>2021-06-27T10:03:04Z</time>
      </trkpt>
      <trkpt lat="48.40341" lon="-4.58774">
        <ele>49.65</ele>
        <time>2021-06-27T10:03:05Z</time>
      </trkpt>
      <trkpt lat="48.4034" lon="-4.58769">
        <ele>49.65</ele>
        <time>2021-06-27T10:03:06Z</time>
      </trkpt>
      <trkpt lat="48.40337" lon="-4.58718">
        <ele>48.68</ele>
        <time>2021-06-27T10:03:13Z</time>
      </trkpt>
      <trkpt lat="48.40336" lon="-4.5871">
        <ele>48.2</ele>
        <time>2021-06-27T10:03:14Z</time>
      </trkpt>
      <trkpt lat="48.40335" lon="-4.58703">
        <ele>48.2</ele>
        <time>2021-06-27T10:03:15Z</time>
      </trkpt>
      <trkpt lat="48.40333" lon="-4.58687">
        <ele>48.2</ele>
        <time>2021-06-27T10:03:17Z</time>
      </trkpt>
      <trkpt lat="48.40331" lon="-4.5868">
        <ele>48.2</ele>
        <time>2021-06-27T10:03:18Z</time>
      </trkpt>
      <trkpt lat="48.40314" lon="-4.58623">
        <ele>47.72</ele>
        <time>2021-06-27T10:03:26Z</time>
      </trkpt>
      <trkpt lat="48.40313" lon="-4.58616">
        <ele>47.24</ele>
        <time>2021-06-27T10:03:27Z</time>
      </trkpt>
      <trkpt lat="48.40312" lon="-4.58609">
        <ele>46.76</ele>
        <time>2021-06-27T10:03:28Z</time>
      </trkpt>
      <trkpt lat="48.40311" lon="-4.58602">
        <ele>46.76</ele>
        <time>2021-06-27T10:03:29Z</time>
      </trkpt>
      <trkpt lat="48.40308" lon="-4.58596">
        <ele>46.76</ele>
        <time>2021-06-27T10:03:30Z</time>
      </trkpt>
      <trkpt lat="48.40306" lon="-4.58591">
        <ele>48.2</ele>
        <time>2021-06-27T10:03:31Z</time>
      </trkpt>
      <trkpt lat="48.40303" lon="-4.58587">
        <ele>48.68</ele>
        <time>2021-06-27T10:03:32Z</time>
      </trkpt>
      <trkpt lat="48.40279" lon="-4.58546">
        <ele>48.68</ele>
        <time>2021-06-27T10:03:40Z</time>
      </trkpt>
      <trkpt lat="48.40224" lon="-4.58443">
        <ele>47.24</ele>
        <time>2021-06-27T10:03:55Z</time>
      </trkpt>
      <trkpt lat="48.40169" lon="-4.58348">
        <ele>47.24</ele>
        <time>2021-06-27T10:04:10Z</time>
      </trkpt>
      <trkpt lat="48.4012" lon="-4.58266">
        <ele>46.76</ele>
        <time>2021-06-27T10:04:23Z</time>
      </trkpt>
      <trkpt lat="48.40094" lon="-4.58176">
        <ele>49.65</ele>
        <time>2021-06-27T10:04:36Z</time>
      </trkpt>
      <trkpt lat="48.4009" lon="-4.58157">
        <ele>49.65</ele>
        <time>2021-06-27T10:04:39Z</time>
      </trkpt>
      <trkpt lat="48.40078" lon="-4.58115">
        <ele>49.65</ele>
        <time>2021-06-27T10:04:45Z</time>
      </trkpt>
      <trkpt lat="48.40076" lon="-4.58108">
        <ele>49.65</ele>
        <time>2021-06-27T10:04:46Z</time>
      </trkpt>
      <trkpt lat="48.40055" lon="-4.5803">
        <ele>48.68</ele>
        <time>2021-06-27T10:04:57Z</time>
      </trkpt>
      <trkpt lat="48.40051" lon="-4.58028">
        <ele>48.68</ele>
        <time>2021-06-27T10:04:58Z</time>
      </trkpt>
      <trkpt lat="48.40048" lon="-4.58028">
        <ele>48.68</ele>
        <time>2021-06-27T10:04:59Z</time>
      </trkpt>
      <trkpt lat="48.40017" lon="-4.58025">
        <ele>46.76</ele>
        <time>2021-06-27T10:05:05Z</time>
      </trkpt>
      <trkpt lat="48.40007" lon="-4.58025">
        <ele>46.76</ele>
        <time>2021-06-27T10:05:07Z</time>
      </trkpt>
      <trkpt lat="48.39951" lon="-4.58013">
        <ele>46.28</ele>
        <time>2021-06-27T10:05:18Z</time>
      </trkpt>
      <trkpt lat="48.39906" lon="-4.58003">
        <ele>46.76</ele>
        <time>2021-06-27T10:05:27Z</time>
      </trkpt>
      <trkpt lat="48.39896" lon="-4.58">
        <ele>46.76</ele>
        <time>2021-06-27T10:05:29Z</time>
      </trkpt>
      <trkpt lat="48.39891" lon="-4.57999">
        <ele>46.76</ele>
        <time>2021-06-27T10:05:30Z</time>
      </trkpt>
      <trkpt lat="48.39863" lon="-4.57989">
        <ele>46.76</ele>
        <time>2021-06-27T10:05:36Z</time>
      </trkpt>
      <trkpt lat="48.39847" lon="-4.57985">
        <ele>46.76</ele>
        <time>2021-06-27T10:05:39Z</time>
      </trkpt>
      <trkpt lat="48.39768" lon="-4.57966">
        <ele>47.72</ele>
        <time>2021-06-27T10:05:53Z</time>
      </trkpt>
      <trkpt lat="48.39695" lon="-4.5795">
        <ele>47.72</ele>
        <time>2021-06-27T10:06:05Z</time>
      </trkpt>
      <trkpt lat="48.39634" lon="-4.57935">
        <ele>48.2</ele>
        <time>2021-06-27T10:06:16Z</time>
      </trkpt>
      <trkpt lat="48.39628" lon="-4.57934">
        <ele>48.2</ele>
        <time>2021-06-27T10:06:17Z</time>
      </trkpt>
      <trkpt lat="48.39623" lon="-4.57933">
        <ele>48.2</ele>
        <time>2021-06-27T10:06:18Z</time>
      </trkpt>
      <trkpt lat="48.39604" lon="-4.57932">
        <ele>48.68</ele>
        <time>2021-06-27T10:06:23Z</time>
      </trkpt>
      <trkpt lat="48.396" lon="-4.57929">
        <ele>48.68</ele>
        <time>2021-06-27T10:06:24Z</time>
      </trkpt>
      <trkpt lat="48.39596" lon="-4.57926">
        <ele>48.68</ele>
        <time>2021-06-27T10:06:25Z</time>
      </trkpt>
      <trkpt lat="48.39592" lon="-4.57924">
        <ele>48.68</ele>
        <time>2021-06-27T10:06:26Z</time>
      </trkpt>
      <trkpt lat="48.39588" lon="-4.57922">
        <ele>48.68</ele>
        <time>2021-06-27T10:06:27Z</time>
      </trkpt>
      <trkpt lat="48.39585" lon="-4.5792">
        <ele>48.68</ele>
        <time>2021-06-27T10:06:28Z</time>
      </trkpt>
      <trkpt lat="48.3958" lon="-4.57918">
        <ele>48.68</ele>
        <time>2021-06-27T10:06:29Z</time>
      </trkpt>
      <trkpt lat="48.39576" lon="-4.57916">
        <ele>48.68</ele>
        <time>2021-06-27T10:06:30Z</time>
      </trkpt>
      <trkpt lat="48.39572" lon="-4.57915">
        <ele>48.68</ele>
        <time>2021-06-27T10:06:31Z</time>
      </trkpt>
      <trkpt lat="48.39568" lon="-4.57913">
        <ele>48.68</ele>
        <time>2021-06-27T10:06:32Z</time>
      </trkpt>
      <trkpt lat="48.39564" lon="-4.57912">
        <ele>48.68</ele>
        <time>2021-06-27T10:06:33Z</time>
      </trkpt>
      <trkpt lat="48.39509" lon="-4.57899">
        <ele>47.24</ele>
        <time>2021-06-27T10:06:45Z</time>
      </trkpt>
      <trkpt lat="48.39505" lon="-4.57896">
        <ele>47.24</ele>
        <time>2021-06-27T10:06:46Z</time>
      </trkpt>
      <trkpt lat="48.39502" lon="-4.57892">
        <ele>47.24</ele>
        <time>2021-06-27T10:06:47Z</time>
      </trkpt>
      <trkpt lat="48.39499" lon="-4.57887">
        <ele>48.68</ele>
        <time>2021-06-27T10:06:48Z</time>
      </trkpt>
      <trkpt lat="48.39498" lon="-4.57881">
        <ele>48.68</ele>
        <time>2021-06-27T10:06:49Z</time>
      </trkpt>
      <trkpt lat="48.39498" lon="-4.57875">
        <ele>48.68</ele>
        <time>2021-06-27T10:06:50Z</time>
      </trkpt>
      <trkpt lat="48.39498" lon="-4.57869">
        <ele>48.68</ele>
        <time>2021-06-27T10:06:51Z</time>
      </trkpt>
      <trkpt lat="48.39499" lon="-4.57862">
        <ele>48.68</ele>
        <time>2021-06-27T10:06:52Z</time>
      </trkpt>
      <trkpt lat="48.39499" lon="-4.57855">
        <ele>48.68</ele>
        <time>2021-06-27T10:06:53Z</time>
      </trkpt>
      <trkpt lat="48.395" lon="-4.57848">
        <ele>48.68</ele>
        <time>2021-06-27T10:06:54Z</time>
      </trkpt>
      <trkpt lat="48.39507" lon="-4.57772">
        <ele>49.16</ele>
        <time>2021-06-27T10:07:05Z</time>
      </trkpt>
      <trkpt lat="48.39505" lon="-4.57769">
        <ele>49.16</ele>
        <time>2021-06-27T10:07:06Z</time>
      </trkpt>
      <trkpt lat="48.39503" lon="-4.57764">
        <ele>49.16</ele>
        <time>2021-06-27T10:07:07Z</time>
      </trkpt>
      <trkpt lat="48.39472" lon="-4.57706">
        <ele>49.16</ele>
        <time>2021-06-27T10:07:17Z</time>
      </trkpt>
      <trkpt lat="48.39458" lon="-4.57684">
        <ele>49.16</ele>
        <time>2021-06-27T10:07:21Z</time>
      </trkpt>
      <trkpt lat="48.39454" lon="-4.57679">
        <ele>49.16</ele>
        <time>2021-06-27T10:07:22Z</time>
      </trkpt>
      <trkpt lat="48.39449" lon="-4.57674">
        <ele>49.16</ele>
        <time>2021-06-27T10:07:23Z</time>
      </trkpt>
      <trkpt lat="48.39446" lon="-4.57667">
        <ele>49.16</ele>
        <time>2021-06-27T10:07:24Z</time>
      </trkpt>
      <trkpt lat="48.39443" lon="-4.57662">
        <ele>49.16</ele>
        <time>2021-06-27T10:07:25Z</time>
      </trkpt>
      <trkpt lat="48.3944" lon="-4.57657">
        <ele>49.16</ele>
        <time>2021-06-27T10:07:26Z</time>
      </trkpt>
      <trkpt lat="48.39435" lon="-4.57654">
        <ele>49.16</ele>
        <time>2021-06-27T10:07:27Z</time>
      </trkpt>
      <trkpt lat="48.3942" lon="-4.57646">
        <ele>49.16</ele>
        <time>2021-06-27T10:07:30Z</time>
      </trkpt>
      <trkpt lat="48.39415" lon="-4.57642">
        <ele>49.65</ele>
        <time>2021-06-27T10:07:31Z</time>
      </trkpt>
      <trkpt lat="48.3941" lon="-4.5764">
        <ele>49.16</ele>
        <time>2021-06-27T10:07:32Z</time>
      </trkpt>
      <trkpt lat="48.39404" lon="-4.57639">
        <ele>49.65</ele>
        <time>2021-06-27T10:07:33Z</time>
      </trkpt>
      <trkpt lat="48.39399" lon="-4.57638">
        <ele>49.65</ele>
        <time>2021-06-27T10:07:34Z</time>
      </trkpt>
      <trkpt lat="48.39393" lon="-4.57638">
        <ele>49.65</ele>
        <time>2021-06-27T10:07:35Z</time>
      </trkpt>
      <trkpt lat="48.39388" lon="-4.57638">
        <ele>49.65</ele>
        <time>2021-06-27T10:07:36Z</time>
      </trkpt>
      <trkpt lat="48.39382" lon="-4.57636">
        <ele>49.16</ele>
        <time>2021-06-27T10:07:37Z</time>
      </trkpt>
      <trkpt lat="48.39376" lon="-4.57633">
        <ele>49.16</ele>
        <time>2021-06-27T10:07:38Z</time>
      </trkpt>
      <trkpt lat="48.39371" lon="-4.5763">
        <ele>49.16</ele>
        <time>2021-06-27T10:07:39Z</time>
      </trkpt>
      <trkpt lat="48.39365" lon="-4.57626">
        <ele>49.16</ele>
        <time>2021-06-27T10:07:40Z</time>
      </trkpt>
      <trkpt lat="48.39328" lon="-4.57603">
        <ele>48.2</ele>
        <time>2021-06-27T10:07:47Z</time>
      </trkpt>
      <trkpt lat="48.39323" lon="-4.57599">
        <ele>48.2</ele>
        <time>2021-06-27T10:07:48Z</time>
      </trkpt>
      <trkpt lat="48.3932" lon="-4.57594">
        <ele>48.2</ele>
        <time>2021-06-27T10:07:49Z</time>
      </trkpt>
      <trkpt lat="48.39318" lon="-4.57588">
        <ele>48.2</ele>
        <time>2021-06-27T10:07:50Z</time>
      </trkpt>
      <trkpt lat="48.39318" lon="-4.57582">
        <ele>48.2</ele>
        <time>2021-06-27T10:07:51Z</time>
      </trkpt>
      <trkpt lat="48.3932" lon="-4.57576">
        <ele>48.2</ele>
        <time>2021-06-27T10:07:52Z</time>
      </trkpt>
      <trkpt lat="48.39336" lon="-4.57483">
        <ele>51.09</ele>
        <time>2021-06-27T10:08:06Z</time>
      </trkpt>
      <trkpt lat="48.39345" lon="-4.57419">
        <ele>51.09</ele>
        <time>2021-06-27T10:08:15Z</time>
      </trkpt>
      <trkpt lat="48.39356" lon="-4.57354">
        <ele>51.57</ele>
        <time>2021-06-27T10:08:27Z</time>
      </trkpt>
      <trkpt lat="48.39345" lon="-4.57321">
        <ele>51.57</ele>
        <time>2021-06-27T10:08:35Z</time>
      </trkpt>
      <trkpt lat="48.39341" lon="-4.57321">
        <ele>51.57</ele>
        <time>2021-06-27T10:08:36Z</time>
      </trkpt>
      <trkpt lat="48.39282" lon="-4.57332">
        <ele>51.57</ele>
        <time>2021-06-27T10:08:49Z</time>
      </trkpt>
      <trkpt lat="48.39216" lon="-4.57345">
        <ele>52.05</ele>
        <time>2021-06-27T10:09:03Z</time>
      </trkpt>
      <trkpt lat="48.39199" lon="-4.57348">
        <ele>53.01</ele>
        <time>2021-06-27T10:09:07Z</time>
      </trkpt>
      <trkpt lat="48.39185" lon="-4.5735">
        <ele>53.01</ele>
        <time>2021-06-27T10:09:10Z</time>
      </trkpt>
      <trkpt lat="48.39172" lon="-4.57353">
        <ele>53.01</ele>
        <time>2021-06-27T10:09:13Z</time>
      </trkpt>
      <trkpt lat="48.39168" lon="-4.57354">
        <ele>53.01</ele>
        <time>2021-06-27T10:09:14Z</time>
      </trkpt>
      <trkpt lat="48.39159" lon="-4.57355">
        <ele>52.53</ele>
        <time>2021-06-27T10:09:16Z</time>
      </trkpt>
      <trkpt lat="48.39154" lon="-4.57356">
        <ele>53.49</ele>
        <time>2021-06-27T10:09:17Z</time>
      </trkpt>
      <trkpt lat="48.3915" lon="-4.57358">
        <ele>53.49</ele>
        <time>2021-06-27T10:09:18Z</time>
      </trkpt>
      <trkpt lat="48.39146" lon="-4.57362">
        <ele>53.49</ele>
        <time>2021-06-27T10:09:19Z</time>
      </trkpt>
      <trkpt lat="48.39143" lon="-4.57366">
        <ele>51.57</ele>
        <time>2021-06-27T10:09:20Z</time>
      </trkpt>
      <trkpt lat="48.39138" lon="-4.57369">
        <ele>51.57</ele>
        <time>2021-06-27T10:09:21Z</time>
      </trkpt>
      <trkpt lat="48.39133" lon="-4.57369">
        <ele>51.57</ele>
        <time>2021-06-27T10:09:22Z</time>
      </trkpt>
      <trkpt lat="48.39129" lon="-4.5737">
        <ele>51.57</ele>
        <time>2021-06-27T10:09:23Z</time>
      </trkpt>
      <trkpt lat="48.39099" lon="-4.57376">
        <ele>51.57</ele>
        <time>2021-06-27T10:09:29Z</time>
      </trkpt>
      <trkpt lat="48.39094" lon="-4.57377">
        <ele>51.57</ele>
        <time>2021-06-27T10:09:30Z</time>
      </trkpt>
      <trkpt lat="48.39089" lon="-4.57378">
        <ele>51.57</ele>
        <time>2021-06-27T10:09:31Z</time>
      </trkpt>
      <trkpt lat="48.38991" lon="-4.57401">
        <ele>53.01</ele>
        <time>2021-06-27T10:09:48Z</time>
      </trkpt>
      <trkpt lat="48.38902" lon="-4.57435">
        <ele>53.49</ele>
        <time>2021-06-27T10:10:04Z</time>
      </trkpt>
      <trkpt lat="48.38897" lon="-4.57435">
        <ele>53.01</ele>
        <time>2021-06-27T10:10:05Z</time>
      </trkpt>
      <trkpt lat="48.38891" lon="-4.57434">
        <ele>53.01</ele>
        <time>2021-06-27T10:10:06Z</time>
      </trkpt>
      <trkpt lat="48.38821" lon="-4.57413">
        <ele>53.01</ele>
        <time>2021-06-27T10:10:19Z</time>
      </trkpt>
      <trkpt lat="48.38763" lon="-4.57398">
        <ele>53.49</ele>
        <time>2021-06-27T10:10:30Z</time>
      </trkpt>
      <trkpt lat="48.38737" lon="-4.57392">
        <ele>53.97</ele>
        <time>2021-06-27T10:10:35Z</time>
      </trkpt>
      <trkpt lat="48.38712" lon="-4.57393">
        <ele>54.45</ele>
        <time>2021-06-27T10:10:40Z</time>
      </trkpt>
      <trkpt lat="48.38707" lon="-4.57393">
        <ele>54.45</ele>
        <time>2021-06-27T10:10:41Z</time>
      </trkpt>
      <trkpt lat="48.38691" lon="-4.57393">
        <ele>54.45</ele>
        <time>2021-06-27T10:10:44Z</time>
      </trkpt>
      <trkpt lat="48.38646" lon="-4.57388">
        <ele>54.93</ele>
        <time>2021-06-27T10:10:53Z</time>
      </trkpt>
      <trkpt lat="48.38641" lon="-4.57388">
        <ele>54.93</ele>
        <time>2021-06-27T10:10:54Z</time>
      </trkpt>
      <trkpt lat="48.38636" lon="-4.57387">
        <ele>55.41</ele>
        <time>2021-06-27T10:10:55Z</time>
      </trkpt>
      <trkpt lat="48.38627" lon="-4.57386">
        <ele>55.89</ele>
        <time>2021-06-27T10:10:57Z</time>
      </trkpt>
      <trkpt lat="48.38623" lon="-4.57384">
        <ele>55.89</ele>
        <time>2021-06-27T10:10:58Z</time>
      </trkpt>
      <trkpt lat="48.38618" lon="-4.57381">
        <ele>56.37</ele>
        <time>2021-06-27T10:10:59Z</time>
      </trkpt>
      <trkpt lat="48.38615" lon="-4.57376">
        <ele>56.37</ele>
        <time>2021-06-27T10:11:00Z</time>
      </trkpt>
      <trkpt lat="48.38612" lon="-4.5737">
        <ele>56.37</ele>
        <time>2021-06-27T10:11:01Z</time>
      </trkpt>
      <trkpt lat="48.38609" lon="-4.57364">
        <ele>56.37</ele>
        <time>2021-06-27T10:11:02Z</time>
      </trkpt>
      <trkpt lat="48.38605" lon="-4.57359">
        <ele>56.37</ele>
        <time>2021-06-27T10:11:03Z</time>
      </trkpt>
      <trkpt lat="48.38601" lon="-4.57355">
        <ele>56.37</ele>
        <time>2021-06-27T10:11:04Z</time>
      </trkpt>
      <trkpt lat="48.38597" lon="-4.57352">
        <ele>56.37</ele>
        <time>2021-06-27T10:11:05Z</time>
      </trkpt>
      <trkpt lat="48.38592" lon="-4.5735">
        <ele>56.37</ele>
        <time>2021-06-27T10:11:06Z</time>
      </trkpt>
      <trkpt lat="48.38567" lon="-4.57341">
        <ele>56.86</ele>
        <time>2021-06-27T10:11:12Z</time>
      </trkpt>
      <trkpt lat="48.38562" lon="-4.57339">
        <ele>56.86</ele>
        <time>2021-06-27T10:11:13Z</time>
      </trkpt>
      <trkpt lat="48.38525" lon="-4.57319">
        <ele>58.78</ele>
        <time>2021-06-27T10:11:22Z</time>
      </trkpt>
      <trkpt lat="48.38522" lon="-4.57315">
        <ele>59.26</ele>
        <time>2021-06-27T10:11:23Z</time>
      </trkpt>
      <trkpt lat="48.38519" lon="-4.5731">
        <ele>59.26</ele>
        <time>2021-06-27T10:11:24Z</time>
      </trkpt>
      <trkpt lat="48.38517" lon="-4.57304">
        <ele>59.26</ele>
        <time>2021-06-27T10:11:25Z</time>
      </trkpt>
      <trkpt lat="48.38515" lon="-4.57298">
        <ele>59.26</ele>
        <time>2021-06-27T10:11:26Z</time>
      </trkpt>
      <trkpt lat="48.38512" lon="-4.57293">
        <ele>59.26</ele>
        <time>2021-06-27T10:11:27Z</time>
      </trkpt>
      <trkpt lat="48.38509" lon="-4.57287">
        <ele>59.26</ele>
        <time>2021-06-27T10:11:28Z</time>
      </trkpt>
      <trkpt lat="48.38503" lon="-4.57274">
        <ele>57.82</ele>
        <time>2021-06-27T10:11:30Z</time>
      </trkpt>
      <trkpt lat="48.385" lon="-4.57266">
        <ele>57.82</ele>
        <time>2021-06-27T10:11:31Z</time>
      </trkpt>
      <trkpt lat="48.38497" lon="-4.57258">
        <ele>57.34</ele>
        <time>2021-06-27T10:11:32Z</time>
      </trkpt>
      <trkpt lat="48.38496" lon="-4.5725">
        <ele>56.86</ele>
        <time>2021-06-27T10:11:33Z</time>
      </trkpt>
      <trkpt lat="48.38495" lon="-4.57242">
        <ele>56.86</ele>
        <time>2021-06-27T10:11:34Z</time>
      </trkpt>
      <trkpt lat="48.38494" lon="-4.57233">
        <ele>56.86</ele>
        <time>2021-06-27T10:11:35Z</time>
      </trkpt>
      <trkpt lat="48.38495" lon="-4.57224">
        <ele>56.37</ele>
        <time>2021-06-27T10:11:36Z</time>
      </trkpt>
      <trkpt lat="48.38495" lon="-4.57215">
        <ele>55.89</ele>
        <time>2021-06-27T10:11:37Z</time>
      </trkpt>
      <trkpt lat="48.38497" lon="-4.57189">
        <ele>55.41</ele>
        <time>2021-06-27T10:11:40Z</time>
      </trkpt>
      <trkpt lat="48.3851" lon="-4.57127">
        <ele>54.93</ele>
        <time>2021-06-27T10:11:48Z</time>
      </trkpt>
      <trkpt lat="48.38509" lon="-4.57124">
        <ele>54.93</ele>
        <time>2021-06-27T10:11:49Z</time>
      </trkpt>
      <trkpt lat="48.38507" lon="-4.57122">
        <ele>54.93</ele>
        <time>2021-06-27T10:11:50Z</time>
      </trkpt>
      <trkpt lat="48.38482" lon="-4.57104">
        <ele>54.93</ele>
        <time>2021-06-27T10:11:58Z</time>
      </trkpt>
      <trkpt lat="48.38444" lon="-4.57087">
        <ele>56.86</ele>
        <time>2021-06-27T10:12:06Z</time>
      </trkpt>
      <trkpt lat="48.3844" lon="-4.57086">
        <ele>56.86</ele>
        <time>2021-06-27T10:12:07Z</time>
      </trkpt>
      <trkpt lat="48.38436" lon="-4.57088">
        <ele>57.34</ele>
        <time>2021-06-27T10:12:08Z</time>
      </trkpt>
      <trkpt lat="48.38397" lon="-4.57113">
        <ele>58.78</ele>
        <time>2021-06-27T10:12:19Z</time>
      </trkpt>
      <trkpt lat="48.38366" lon="-4.57134">
        <ele>59.74</ele>
        <time>2021-06-27T10:12:27Z</time>
      </trkpt>
      <trkpt lat="48.38358" lon="-4.57139">
        <ele>60.7</ele>
        <time>2021-06-27T10:12:29Z</time>
      </trkpt>
      <trkpt lat="48.38354" lon="-4.57141">
        <ele>61.18</ele>
        <time>2021-06-27T10:12:30Z</time>
      </trkpt>
      <trkpt lat="48.38326" lon="-4.57161">
        <ele>61.66</ele>
        <time>2021-06-27T10:12:37Z</time>
      </trkpt>
      <trkpt lat="48.38317" lon="-4.57166">
        <ele>62.62</ele>
        <time>2021-06-27T10:12:39Z</time>
      </trkpt>
      <trkpt lat="48.38312" lon="-4.57166">
        <ele>62.62</ele>
        <time>2021-06-27T10:12:40Z</time>
      </trkpt>
      <trkpt lat="48.38307" lon="-4.57165">
        <ele>62.62</ele>
        <time>2021-06-27T10:12:41Z</time>
      </trkpt>
      <trkpt lat="48.38303" lon="-4.57164">
        <ele>62.62</ele>
        <time>2021-06-27T10:12:42Z</time>
      </trkpt>
      <trkpt lat="48.38299" lon="-4.57163">
        <ele>63.1</ele>
        <time>2021-06-27T10:12:43Z</time>
      </trkpt>
      <trkpt lat="48.38282" lon="-4.57155">
        <ele>63.58</ele>
        <time>2021-06-27T10:12:47Z</time>
      </trkpt>
      <trkpt lat="48.38279" lon="-4.57151">
        <ele>63.58</ele>
        <time>2021-06-27T10:12:48Z</time>
      </trkpt>
      <trkpt lat="48.38277" lon="-4.57146">
        <ele>63.58</ele>
        <time>2021-06-27T10:12:49Z</time>
      </trkpt>
      <trkpt lat="48.38274" lon="-4.57134">
        <ele>64.55</ele>
        <time>2021-06-27T10:12:51Z</time>
      </trkpt>
      <trkpt lat="48.3827" lon="-4.57113">
        <ele>64.55</ele>
        <time>2021-06-27T10:12:54Z</time>
      </trkpt>
      <trkpt lat="48.38265" lon="-4.57099">
        <ele>64.55</ele>
        <time>2021-06-27T10:12:56Z</time>
      </trkpt>
      <trkpt lat="48.38262" lon="-4.57094">
        <ele>64.07</ele>
        <time>2021-06-27T10:12:57Z</time>
      </trkpt>
      <trkpt lat="48.38259" lon="-4.57089">
        <ele>64.55</ele>
        <time>2021-06-27T10:12:58Z</time>
      </trkpt>
      <trkpt lat="48.38255" lon="-4.57085">
        <ele>64.55</ele>
        <time>2021-06-27T10:12:59Z</time>
      </trkpt>
      <trkpt lat="48.38252" lon="-4.57081">
        <ele>64.07</ele>
        <time>2021-06-27T10:13:00Z</time>
      </trkpt>
      <trkpt lat="48.38248" lon="-4.57079">
        <ele>64.07</ele>
        <time>2021-06-27T10:13:01Z</time>
      </trkpt>
      <trkpt lat="48.38244" lon="-4.57076">
        <ele>64.07</ele>
        <time>2021-06-27T10:13:02Z</time>
      </trkpt>
      <trkpt lat="48.38206" lon="-4.5705">
        <ele>66.47</ele>
        <time>2021-06-27T10:13:11Z</time>
      </trkpt>
      <trkpt lat="48.38177" lon="-4.57006">
        <ele>68.87</ele>
        <time>2021-06-27T10:13:22Z</time>
      </trkpt>
      <trkpt lat="48.38138" lon="-4.56955">
        <ele>72.24</ele>
        <time>2021-06-27T10:13:35Z</time>
      </trkpt>
      <trkpt lat="48.381" lon="-4.56904">
        <ele>75.12</ele>
        <time>2021-06-27T10:13:48Z</time>
      </trkpt>
      <trkpt lat="48.3808" lon="-4.56851">
        <ele>76.08</ele>
        <time>2021-06-27T10:13:59Z</time>
      </trkpt>
      <trkpt lat="48.38078" lon="-4.56832">
        <ele>76.08</ele>
        <time>2021-06-27T10:14:02Z</time>
      </trkpt>
      <trkpt lat="48.38072" lon="-4.56789">
        <ele>76.08</ele>
        <time>2021-06-27T10:14:08Z</time>
      </trkpt>
      <trkpt lat="48.38067" lon="-4.56765">
        <ele>76.08</ele>
        <time>2021-06-27T10:14:11Z</time>
      </trkpt>
      <trkpt lat="48.38066" lon="-4.56757">
        <ele>76.08</ele>
        <time>2021-06-27T10:14:12Z</time>
      </trkpt>
      <trkpt lat="48.38064" lon="-4.5674">
        <ele>74.64</ele>
        <time>2021-06-27T10:14:14Z</time>
      </trkpt>
      <trkpt lat="48.38062" lon="-4.56732">
        <ele>74.64</ele>
        <time>2021-06-27T10:14:15Z</time>
      </trkpt>
      <trkpt lat="48.38059" lon="-4.56725">
        <ele>74.16</ele>
        <time>2021-06-27T10:14:16Z</time>
      </trkpt>
      <trkpt lat="48.38055" lon="-4.56719">
        <ele>74.16</ele>
        <time>2021-06-27T10:14:17Z</time>
      </trkpt>
      <trkpt lat="48.3805" lon="-4.56714">
        <ele>74.16</ele>
        <time>2021-06-27T10:14:18Z</time>
      </trkpt>
      <trkpt lat="48.38037" lon="-4.56699">
        <ele>74.16</ele>
        <time>2021-06-27T10:14:21Z</time>
      </trkpt>
      <trkpt lat="48.38032" lon="-4.56696">
        <ele>74.16</ele>
        <time>2021-06-27T10:14:22Z</time>
      </trkpt>
      <trkpt lat="48.38027" lon="-4.56693">
        <ele>74.16</ele>
        <time>2021-06-27T10:14:23Z</time>
      </trkpt>
      <trkpt lat="48.38022" lon="-4.56692">
        <ele>75.6</ele>
        <time>2021-06-27T10:14:24Z</time>
      </trkpt>
      <trkpt lat="48.38018" lon="-4.56692">
        <ele>75.6</ele>
        <time>2021-06-27T10:14:25Z</time>
      </trkpt>
      <trkpt lat="48.38014" lon="-4.56692">
        <ele>76.08</ele>
        <time>2021-06-27T10:14:26Z</time>
      </trkpt>
      <trkpt lat="48.3801" lon="-4.56693">
        <ele>76.08</ele>
        <time>2021-06-27T10:14:27Z</time>
      </trkpt>
      <trkpt lat="48.38006" lon="-4.56695">
        <ele>76.56</ele>
        <time>2021-06-27T10:14:28Z</time>
      </trkpt>
      <trkpt lat="48.37969" lon="-4.56709">
        <ele>79.93</ele>
        <time>2021-06-27T10:14:39Z</time>
      </trkpt>
      <trkpt lat="48.37928" lon="-4.56727">
        <ele>82.33</ele>
        <time>2021-06-27T10:14:52Z</time>
      </trkpt>
      <trkpt lat="48.37883" lon="-4.56746">
        <ele>84.73</ele>
        <time>2021-06-27T10:15:05Z</time>
      </trkpt>
      <trkpt lat="48.37833" lon="-4.56754">
        <ele>88.1</ele>
        <time>2021-06-27T10:15:18Z</time>
      </trkpt>
      <trkpt lat="48.37772" lon="-4.56755">
        <ele>90.5</ele>
        <time>2021-06-27T10:15:34Z</time>
      </trkpt>
      <trkpt lat="48.37749" lon="-4.56752">
        <ele>91.46</ele>
        <time>2021-06-27T10:15:39Z</time>
      </trkpt>
      <trkpt lat="48.37745" lon="-4.56752">
        <ele>91.46</ele>
        <time>2021-06-27T10:15:40Z</time>
      </trkpt>
      <trkpt lat="48.3774" lon="-4.56752">
        <ele>91.94</ele>
        <time>2021-06-27T10:15:41Z</time>
      </trkpt>
      <trkpt lat="48.37705" lon="-4.56757">
        <ele>92.9</ele>
        <time>2021-06-27T10:15:49Z</time>
      </trkpt>
      <trkpt lat="48.37683" lon="-4.56766">
        <ele>93.39</ele>
        <time>2021-06-27T10:15:54Z</time>
      </trkpt>
      <trkpt lat="48.37679" lon="-4.56767">
        <ele>93.39</ele>
        <time>2021-06-27T10:15:55Z</time>
      </trkpt>
      <trkpt lat="48.37656" lon="-4.5677">
        <ele>93.39</ele>
        <time>2021-06-27T10:16:00Z</time>
      </trkpt>
      <trkpt lat="48.37651" lon="-4.5677">
        <ele>93.39</ele>
        <time>2021-06-27T10:16:01Z</time>
      </trkpt>
      <trkpt lat="48.37625" lon="-4.56768">
        <ele>94.35</ele>
        <time>2021-06-27T10:16:07Z</time>
      </trkpt>
      <trkpt lat="48.3762" lon="-4.5677">
        <ele>94.35</ele>
        <time>2021-06-27T10:16:08Z</time>
      </trkpt>
      <trkpt lat="48.37617" lon="-4.56774">
        <ele>94.35</ele>
        <time>2021-06-27T10:16:09Z</time>
      </trkpt>
      <trkpt lat="48.37614" lon="-4.56778">
        <ele>94.83</ele>
        <time>2021-06-27T10:16:10Z</time>
      </trkpt>
      <trkpt lat="48.37611" lon="-4.56783">
        <ele>94.83</ele>
        <time>2021-06-27T10:16:11Z</time>
      </trkpt>
      <trkpt lat="48.37575" lon="-4.56835">
        <ele>97.23</ele>
        <time>2021-06-27T10:16:24Z</time>
      </trkpt>
      <trkpt lat="48.37573" lon="-4.56883">
        <ele>97.23</ele>
        <time>2021-06-27T10:16:33Z</time>
      </trkpt>
      <trkpt lat="48.37572" lon="-4.56889">
        <ele>97.23</ele>
        <time>2021-06-27T10:16:34Z</time>
      </trkpt>
      <trkpt lat="48.37571" lon="-4.56896">
        <ele>97.23</ele>
        <time>2021-06-27T10:16:35Z</time>
      </trkpt>
      <trkpt lat="48.37571" lon="-4.56902">
        <ele>97.23</ele>
        <time>2021-06-27T10:16:36Z</time>
      </trkpt>
      <trkpt lat="48.37572" lon="-4.56906">
        <ele>97.23</ele>
        <time>2021-06-27T10:16:37Z</time>
      </trkpt>
      <trkpt lat="48.37573" lon="-4.56908">
        <ele>97.23</ele>
        <time>2021-06-27T10:16:38Z</time>
      </trkpt>
      <trkpt lat="48.37575" lon="-4.56936">
        <ele>97.71</ele>
        <time>2021-06-27T10:16:46Z</time>
      </trkpt>
      <trkpt lat="48.37579" lon="-4.56948">
        <ele>97.71</ele>
        <time>2021-06-27T10:16:48Z</time>
      </trkpt>
      <trkpt lat="48.3758" lon="-4.56955">
        <ele>97.71</ele>
        <time>2021-06-27T10:16:49Z</time>
      </trkpt>
      <trkpt lat="48.3758" lon="-4.56963">
        <ele>97.71</ele>
        <time>2021-06-27T10:16:50Z</time>
      </trkpt>
      <trkpt lat="48.3758" lon="-4.56987">
        <ele>97.71</ele>
        <time>2021-06-27T10:16:53Z</time>
      </trkpt>
      <trkpt lat="48.37581" lon="-4.57004">
        <ele>97.71</ele>
        <time>2021-06-27T10:16:55Z</time>
      </trkpt>
      <trkpt lat="48.37581" lon="-4.57012">
        <ele>97.71</ele>
        <time>2021-06-27T10:16:56Z</time>
      </trkpt>
      <trkpt lat="48.37582" lon="-4.5702">
        <ele>97.71</ele>
        <time>2021-06-27T10:16:57Z</time>
      </trkpt>
      <trkpt lat="48.37587" lon="-4.57064">
        <ele>97.71</ele>
        <time>2021-06-27T10:17:02Z</time>
      </trkpt>
      <trkpt lat="48.37588" lon="-4.57072">
        <ele>97.71</ele>
        <time>2021-06-27T10:17:03Z</time>
      </trkpt>
      <trkpt lat="48.3759" lon="-4.57081">
        <ele>97.71</ele>
        <time>2021-06-27T10:17:04Z</time>
      </trkpt>
      <trkpt lat="48.37594" lon="-4.57155">
        <ele>97.71</ele>
        <time>2021-06-27T10:17:13Z</time>
      </trkpt>
      <trkpt lat="48.37595" lon="-4.57162">
        <ele>97.71</ele>
        <time>2021-06-27T10:17:14Z</time>
      </trkpt>
      <trkpt lat="48.37597" lon="-4.57168">
        <ele>97.71</ele>
        <time>2021-06-27T10:17:15Z</time>
      </trkpt>
      <trkpt lat="48.37599" lon="-4.57173">
        <ele>97.71</ele>
        <time>2021-06-27T10:17:16Z</time>
      </trkpt>
      <trkpt lat="48.37601" lon="-4.57177">
        <ele>97.71</ele>
        <time>2021-06-27T10:17:17Z</time>
      </trkpt>
      <trkpt lat="48.37602" lon="-4.57182">
        <ele>97.71</ele>
        <time>2021-06-27T10:17:18Z</time>
      </trkpt>
      <trkpt lat="48.37603" lon="-4.57189">
        <ele>97.71</ele>
        <time>2021-06-27T10:17:19Z</time>
      </trkpt>
      <trkpt lat="48.37604" lon="-4.57197">
        <ele>97.71</ele>
        <time>2021-06-27T10:17:20Z</time>
      </trkpt>
      <trkpt lat="48.37611" lon="-4.57256">
        <ele>97.71</ele>
        <time>2021-06-27T10:17:27Z</time>
      </trkpt>
      <trkpt lat="48.37612" lon="-4.57264">
        <ele>97.71</ele>
        <time>2021-06-27T10:17:28Z</time>
      </trkpt>
      <trkpt lat="48.37606" lon="-4.57363">
        <ele>96.75</ele>
        <time>2021-06-27T10:17:38Z</time>
      </trkpt>
      <trkpt lat="48.37601" lon="-4.5739">
        <ele>96.75</ele>
        <time>2021-06-27T10:17:41Z</time>
      </trkpt>
      <trkpt lat="48.376" lon="-4.57399">
        <ele>96.75</ele>
        <time>2021-06-27T10:17:42Z</time>
      </trkpt>
      <trkpt lat="48.37599" lon="-4.57408">
        <ele>96.75</ele>
        <time>2021-06-27T10:17:43Z</time>
      </trkpt>
      <trkpt lat="48.37595" lon="-4.57455">
        <ele>96.75</ele>
        <time>2021-06-27T10:17:48Z</time>
      </trkpt>
      <trkpt lat="48.37593" lon="-4.57462">
        <ele>96.75</ele>
        <time>2021-06-27T10:17:49Z</time>
      </trkpt>
      <trkpt lat="48.37591" lon="-4.57469">
        <ele>98.19</ele>
        <time>2021-06-27T10:17:50Z</time>
      </trkpt>
      <trkpt lat="48.37588" lon="-4.57472">
        <ele>98.19</ele>
        <time>2021-06-27T10:17:51Z</time>
      </trkpt>
      <trkpt lat="48.37584" lon="-4.57474">
        <ele>98.19</ele>
        <time>2021-06-27T10:17:52Z</time>
      </trkpt>
      <trkpt lat="48.37578" lon="-4.57474">
        <ele>98.19</ele>
        <time>2021-06-27T10:17:53Z</time>
      </trkpt>
      <trkpt lat="48.37574" lon="-4.57473">
        <ele>98.19</ele>
        <time>2021-06-27T10:17:54Z</time>
      </trkpt>
      <trkpt lat="48.37569" lon="-4.5747">
        <ele>98.19</ele>
        <time>2021-06-27T10:17:55Z</time>
      </trkpt>
      <trkpt lat="48.37565" lon="-4.57468">
        <ele>96.75</ele>
        <time>2021-06-27T10:17:56Z</time>
      </trkpt>
      <trkpt lat="48.3756" lon="-4.57464">
        <ele>96.75</ele>
        <time>2021-06-27T10:17:57Z</time>
      </trkpt>
      <trkpt lat="48.37556" lon="-4.5746">
        <ele>96.75</ele>
        <time>2021-06-27T10:17:58Z</time>
      </trkpt>
      <trkpt lat="48.37551" lon="-4.57457">
        <ele>95.79</ele>
        <time>2021-06-27T10:17:59Z</time>
      </trkpt>
      <trkpt lat="48.37546" lon="-4.57454">
        <ele>95.79</ele>
        <time>2021-06-27T10:18:00Z</time>
      </trkpt>
      <trkpt lat="48.37469" lon="-4.5741">
        <ele>92.9</ele>
        <time>2021-06-27T10:18:14Z</time>
      </trkpt>
      <trkpt lat="48.37462" lon="-4.57406">
        <ele>92.9</ele>
        <time>2021-06-27T10:18:15Z</time>
      </trkpt>
      <trkpt lat="48.37425" lon="-4.57385">
        <ele>89.06</ele>
        <time>2021-06-27T10:18:20Z</time>
      </trkpt>
      <trkpt lat="48.3741" lon="-4.57376">
        <ele>87.62</ele>
        <time>2021-06-27T10:18:22Z</time>
      </trkpt>
      <trkpt lat="48.37402" lon="-4.57375">
        <ele>86.66</ele>
        <time>2021-06-27T10:18:23Z</time>
      </trkpt>
      <trkpt lat="48.37395" lon="-4.57378">
        <ele>86.66</ele>
        <time>2021-06-27T10:18:24Z</time>
      </trkpt>
      <trkpt lat="48.37392" lon="-4.57381">
        <ele>86.66</ele>
        <time>2021-06-27T10:18:25Z</time>
      </trkpt>
      <trkpt lat="48.37388" lon="-4.57385">
        <ele>86.66</ele>
        <time>2021-06-27T10:18:26Z</time>
      </trkpt>
      <trkpt lat="48.37385" lon="-4.57391">
        <ele>86.66</ele>
        <time>2021-06-27T10:18:27Z</time>
      </trkpt>
      <trkpt lat="48.37382" lon="-4.57399">
        <ele>86.66</ele>
        <time>2021-06-27T10:18:28Z</time>
      </trkpt>
      <trkpt lat="48.3738" lon="-4.57407">
        <ele>86.66</ele>
        <time>2021-06-27T10:18:29Z</time>
      </trkpt>
      <trkpt lat="48.3738" lon="-4.57416">
        <ele>86.66</ele>
        <time>2021-06-27T10:18:30Z</time>
      </trkpt>
      <trkpt lat="48.3738" lon="-4.57426">
        <ele>86.66</ele>
        <time>2021-06-27T10:18:31Z</time>
      </trkpt>
      <trkpt lat="48.3738" lon="-4.57436">
        <ele>86.66</ele>
        <time>2021-06-27T10:18:32Z</time>
      </trkpt>
      <trkpt lat="48.37381" lon="-4.57486">
        <ele>88.1</ele>
        <time>2021-06-27T10:18:37Z</time>
      </trkpt>
      <trkpt lat="48.37381" lon="-4.57495">
        <ele>89.06</ele>
        <time>2021-06-27T10:18:38Z</time>
      </trkpt>
      <trkpt lat="48.37379" lon="-4.57504">
        <ele>89.06</ele>
        <time>2021-06-27T10:18:39Z</time>
      </trkpt>
      <trkpt lat="48.37378" lon="-4.57514">
        <ele>89.06</ele>
        <time>2021-06-27T10:18:40Z</time>
      </trkpt>
      <trkpt lat="48.37378" lon="-4.57525">
        <ele>89.54</ele>
        <time>2021-06-27T10:18:41Z</time>
      </trkpt>
      <trkpt lat="48.37378" lon="-4.57533">
        <ele>89.54</ele>
        <time>2021-06-27T10:18:42Z</time>
      </trkpt>
      <trkpt lat="48.37378" lon="-4.57542">
        <ele>89.54</ele>
        <time>2021-06-27T10:18:43Z</time>
      </trkpt>
      <trkpt lat="48.37378" lon="-4.57552">
        <ele>89.54</ele>
        <time>2021-06-27T10:18:44Z</time>
      </trkpt>
      <trkpt lat="48.37375" lon="-4.57561">
        <ele>89.54</ele>
        <time>2021-06-27T10:18:45Z</time>
      </trkpt>
      <trkpt lat="48.37369" lon="-4.57568">
        <ele>89.54</ele>
        <time>2021-06-27T10:18:46Z</time>
      </trkpt>
      <trkpt lat="48.37364" lon="-4.5757">
        <ele>89.54</ele>
        <time>2021-06-27T10:18:47Z</time>
      </trkpt>
      <trkpt lat="48.37358" lon="-4.5757">
        <ele>88.1</ele>
        <time>2021-06-27T10:18:48Z</time>
      </trkpt>
      <trkpt lat="48.37351" lon="-4.57568">
        <ele>87.14</ele>
        <time>2021-06-27T10:18:49Z</time>
      </trkpt>
      <trkpt lat="48.37344" lon="-4.57565">
        <ele>86.18</ele>
        <time>2021-06-27T10:18:50Z</time>
      </trkpt>
      <trkpt lat="48.37337" lon="-4.57561">
        <ele>84.25</ele>
        <time>2021-06-27T10:18:51Z</time>
      </trkpt>
      <trkpt lat="48.3733" lon="-4.57557">
        <ele>84.25</ele>
        <time>2021-06-27T10:18:52Z</time>
      </trkpt>
      <trkpt lat="48.37301" lon="-4.57542">
        <ele>81.37</ele>
        <time>2021-06-27T10:18:56Z</time>
      </trkpt>
      <trkpt lat="48.37293" lon="-4.57539">
        <ele>81.37</ele>
        <time>2021-06-27T10:18:57Z</time>
      </trkpt>
      <trkpt lat="48.37252" lon="-4.5752">
        <ele>78</ele>
        <time>2021-06-27T10:19:02Z</time>
      </trkpt>
      <trkpt lat="48.37215" lon="-4.57501">
        <ele>74.16</ele>
        <time>2021-06-27T10:19:06Z</time>
      </trkpt>
      <trkpt lat="48.37188" lon="-4.57483">
        <ele>70.79</ele>
        <time>2021-06-27T10:19:09Z</time>
      </trkpt>
      <trkpt lat="48.37178" lon="-4.57479">
        <ele>69.83</ele>
        <time>2021-06-27T10:19:10Z</time>
      </trkpt>
      <trkpt lat="48.37157" lon="-4.57473">
        <ele>68.39</ele>
        <time>2021-06-27T10:19:12Z</time>
      </trkpt>
      <trkpt lat="48.37147" lon="-4.57471">
        <ele>68.39</ele>
        <time>2021-06-27T10:19:13Z</time>
      </trkpt>
      <trkpt lat="48.37125" lon="-4.57471">
        <ele>69.83</ele>
        <time>2021-06-27T10:19:15Z</time>
      </trkpt>
      <trkpt lat="48.37117" lon="-4.57476">
        <ele>69.83</ele>
        <time>2021-06-27T10:19:16Z</time>
      </trkpt>
      <trkpt lat="48.37102" lon="-4.57484">
        <ele>69.83</ele>
        <time>2021-06-27T10:19:18Z</time>
      </trkpt>
      <trkpt lat="48.37096" lon="-4.57488">
        <ele>70.31</ele>
        <time>2021-06-27T10:19:19Z</time>
      </trkpt>
      <trkpt lat="48.37091" lon="-4.57492">
        <ele>70.79</ele>
        <time>2021-06-27T10:19:20Z</time>
      </trkpt>
      <trkpt lat="48.37088" lon="-4.575">
        <ele>72.24</ele>
        <time>2021-06-27T10:19:21Z</time>
      </trkpt>
      <trkpt lat="48.37086" lon="-4.57507">
        <ele>73.2</ele>
        <time>2021-06-27T10:19:22Z</time>
      </trkpt>
      <trkpt lat="48.37085" lon="-4.57515">
        <ele>73.68</ele>
        <time>2021-06-27T10:19:23Z</time>
      </trkpt>
      <trkpt lat="48.37085" lon="-4.57522">
        <ele>74.16</ele>
        <time>2021-06-27T10:19:24Z</time>
      </trkpt>
      <trkpt lat="48.37083" lon="-4.57529">
        <ele>74.16</ele>
        <time>2021-06-27T10:19:25Z</time>
      </trkpt>
      <trkpt lat="48.37077" lon="-4.57566">
        <ele>76.56</ele>
        <time>2021-06-27T10:19:30Z</time>
      </trkpt>
      <trkpt lat="48.37074" lon="-4.57588">
        <ele>78</ele>
        <time>2021-06-27T10:19:33Z</time>
      </trkpt>
      <trkpt lat="48.37068" lon="-4.57617">
        <ele>79.45</ele>
        <time>2021-06-27T10:19:37Z</time>
      </trkpt>
      <trkpt lat="48.37067" lon="-4.57625">
        <ele>79.45</ele>
        <time>2021-06-27T10:19:38Z</time>
      </trkpt>
      <trkpt lat="48.37065" lon="-4.57633">
        <ele>79.45</ele>
        <time>2021-06-27T10:19:39Z</time>
      </trkpt>
      <trkpt lat="48.37057" lon="-4.57663">
        <ele>79.93</ele>
        <time>2021-06-27T10:19:43Z</time>
      </trkpt>
      <trkpt lat="48.37045" lon="-4.57705">
        <ele>80.41</ele>
        <time>2021-06-27T10:19:49Z</time>
      </trkpt>
      <trkpt lat="48.37033" lon="-4.57758">
        <ele>80.89</ele>
        <time>2021-06-27T10:19:57Z</time>
      </trkpt>
      <trkpt lat="48.37033" lon="-4.57765">
        <ele>80.89</ele>
        <time>2021-06-27T10:19:58Z</time>
      </trkpt>
      <trkpt lat="48.37035" lon="-4.57778">
        <ele>81.37</ele>
        <time>2021-06-27T10:20:00Z</time>
      </trkpt>
      <trkpt lat="48.37038" lon="-4.57783">
        <ele>81.37</ele>
        <time>2021-06-27T10:20:01Z</time>
      </trkpt>
      <trkpt lat="48.37047" lon="-4.57798">
        <ele>81.85</ele>
        <time>2021-06-27T10:20:04Z</time>
      </trkpt>
      <trkpt lat="48.3705" lon="-4.57803">
        <ele>81.85</ele>
        <time>2021-06-27T10:20:05Z</time>
      </trkpt>
      <trkpt lat="48.37056" lon="-4.57819">
        <ele>82.33</ele>
        <time>2021-06-27T10:20:08Z</time>
      </trkpt>
      <trkpt lat="48.37055" lon="-4.57825">
        <ele>82.33</ele>
        <time>2021-06-27T10:20:09Z</time>
      </trkpt>
      <trkpt lat="48.37054" lon="-4.57831">
        <ele>82.33</ele>
        <time>2021-06-27T10:20:10Z</time>
      </trkpt>
      <trkpt lat="48.37045" lon="-4.5787">
        <ele>82.33</ele>
        <time>2021-06-27T10:20:17Z</time>
      </trkpt>
      <trkpt lat="48.37043" lon="-4.57873">
        <ele>82.33</ele>
        <time>2021-06-27T10:20:18Z</time>
      </trkpt>
      <trkpt lat="48.37039" lon="-4.57882">
        <ele>82.33</ele>
        <time>2021-06-27T10:20:20Z</time>
      </trkpt>
      <trkpt lat="48.37024" lon="-4.57937">
        <ele>79.93</ele>
        <time>2021-06-27T10:20:28Z</time>
      </trkpt>
      <trkpt lat="48.37021" lon="-4.5794">
        <ele>78.97</ele>
        <time>2021-06-27T10:20:29Z</time>
      </trkpt>
      <trkpt lat="48.37016" lon="-4.57941">
        <ele>78</ele>
        <time>2021-06-27T10:20:30Z</time>
      </trkpt>
      <trkpt lat="48.37012" lon="-4.5794">
        <ele>78</ele>
        <time>2021-06-27T10:20:31Z</time>
      </trkpt>
      <trkpt lat="48.37008" lon="-4.57939">
        <ele>78</ele>
        <time>2021-06-27T10:20:32Z</time>
      </trkpt>
      <trkpt lat="48.37003" lon="-4.57938">
        <ele>78</ele>
        <time>2021-06-27T10:20:33Z</time>
      </trkpt>
      <trkpt lat="48.36997" lon="-4.57937">
        <ele>78</ele>
        <time>2021-06-27T10:20:34Z</time>
      </trkpt>
      <trkpt lat="48.36977" lon="-4.57931">
        <ele>77.52</ele>
        <time>2021-06-27T10:20:38Z</time>
      </trkpt>
      <trkpt lat="48.36973" lon="-4.57935">
        <ele>77.52</ele>
        <time>2021-06-27T10:20:39Z</time>
      </trkpt>
      <trkpt lat="48.3697" lon="-4.57941">
        <ele>76.56</ele>
        <time>2021-06-27T10:20:40Z</time>
      </trkpt>
      <trkpt lat="48.36966" lon="-4.57954">
        <ele>76.56</ele>
        <time>2021-06-27T10:20:42Z</time>
      </trkpt>
      <trkpt lat="48.36964" lon="-4.57961">
        <ele>75.6</ele>
        <time>2021-06-27T10:20:43Z</time>
      </trkpt>
      <trkpt lat="48.36954" lon="-4.57998">
        <ele>74.64</ele>
        <time>2021-06-27T10:20:50Z</time>
      </trkpt>
      <trkpt lat="48.36941" lon="-4.58052">
        <ele>72.72</ele>
        <time>2021-06-27T10:20:57Z</time>
      </trkpt>
      <trkpt lat="48.36939" lon="-4.58059">
        <ele>72.72</ele>
        <time>2021-06-27T10:20:58Z</time>
      </trkpt>
      <trkpt lat="48.36933" lon="-4.58092">
        <ele>69.35</ele>
        <time>2021-06-27T10:21:02Z</time>
      </trkpt>
      <trkpt lat="48.36925" lon="-4.58128">
        <ele>66.95</ele>
        <time>2021-06-27T10:21:06Z</time>
      </trkpt>
      <trkpt lat="48.36921" lon="-4.58145">
        <ele>66.47</ele>
        <time>2021-06-27T10:21:08Z</time>
      </trkpt>
      <trkpt lat="48.36918" lon="-4.58153">
        <ele>65.51</ele>
        <time>2021-06-27T10:21:09Z</time>
      </trkpt>
      <trkpt lat="48.36915" lon="-4.58157">
        <ele>64.55</ele>
        <time>2021-06-27T10:21:10Z</time>
      </trkpt>
      <trkpt lat="48.36912" lon="-4.58161">
        <ele>64.07</ele>
        <time>2021-06-27T10:21:11Z</time>
      </trkpt>
      <trkpt lat="48.36908" lon="-4.58164">
        <ele>63.1</ele>
        <time>2021-06-27T10:21:12Z</time>
      </trkpt>
      <trkpt lat="48.36903" lon="-4.58169">
        <ele>63.1</ele>
        <time>2021-06-27T10:21:13Z</time>
      </trkpt>
      <trkpt lat="48.36898" lon="-4.58176">
        <ele>62.62</ele>
        <time>2021-06-27T10:21:14Z</time>
      </trkpt>
      <trkpt lat="48.36893" lon="-4.58183">
        <ele>62.14</ele>
        <time>2021-06-27T10:21:15Z</time>
      </trkpt>
      <trkpt lat="48.36889" lon="-4.58191">
        <ele>61.18</ele>
        <time>2021-06-27T10:21:16Z</time>
      </trkpt>
      <trkpt lat="48.36886" lon="-4.582">
        <ele>61.66</ele>
        <time>2021-06-27T10:21:17Z</time>
      </trkpt>
      <trkpt lat="48.36883" lon="-4.58209">
        <ele>61.66</ele>
        <time>2021-06-27T10:21:18Z</time>
      </trkpt>
      <trkpt lat="48.36881" lon="-4.58219">
        <ele>61.18</ele>
        <time>2021-06-27T10:21:19Z</time>
      </trkpt>
      <trkpt lat="48.36877" lon="-4.58228">
        <ele>61.66</ele>
        <time>2021-06-27T10:21:20Z</time>
      </trkpt>
      <trkpt lat="48.36866" lon="-4.58253">
        <ele>63.58</ele>
        <time>2021-06-27T10:21:23Z</time>
      </trkpt>
      <trkpt lat="48.36861" lon="-4.58257">
        <ele>63.58</ele>
        <time>2021-06-27T10:21:24Z</time>
      </trkpt>
      <trkpt lat="48.36856" lon="-4.58257">
        <ele>64.07</ele>
        <time>2021-06-27T10:21:25Z</time>
      </trkpt>
      <trkpt lat="48.3685" lon="-4.58256">
        <ele>64.07</ele>
        <time>2021-06-27T10:21:26Z</time>
      </trkpt>
      <trkpt lat="48.36845" lon="-4.58253">
        <ele>64.07</ele>
        <time>2021-06-27T10:21:27Z</time>
      </trkpt>
      <trkpt lat="48.36829" lon="-4.58245">
        <ele>62.62</ele>
        <time>2021-06-27T10:21:30Z</time>
      </trkpt>
      <trkpt lat="48.36823" lon="-4.58242">
        <ele>62.14</ele>
        <time>2021-06-27T10:21:31Z</time>
      </trkpt>
      <trkpt lat="48.36817" lon="-4.58238">
        <ele>62.14</ele>
        <time>2021-06-27T10:21:32Z</time>
      </trkpt>
      <trkpt lat="48.36804" lon="-4.5823">
        <ele>61.18</ele>
        <time>2021-06-27T10:21:34Z</time>
      </trkpt>
      <trkpt lat="48.36798" lon="-4.58224">
        <ele>61.18</ele>
        <time>2021-06-27T10:21:35Z</time>
      </trkpt>
      <trkpt lat="48.36768" lon="-4.58191">
        <ele>60.7</ele>
        <time>2021-06-27T10:21:40Z</time>
      </trkpt>
      <trkpt lat="48.36763" lon="-4.58182">
        <ele>60.7</ele>
        <time>2021-06-27T10:21:41Z</time>
      </trkpt>
      <trkpt lat="48.36719" lon="-4.58069">
        <ele>59.26</ele>
        <time>2021-06-27T10:21:52Z</time>
      </trkpt>
      <trkpt lat="48.36713" lon="-4.58035">
        <ele>59.26</ele>
        <time>2021-06-27T10:21:55Z</time>
      </trkpt>
      <trkpt lat="48.36712" lon="-4.58012">
        <ele>59.26</ele>
        <time>2021-06-27T10:21:57Z</time>
      </trkpt>
      <trkpt lat="48.36712" lon="-4.5799">
        <ele>59.26</ele>
        <time>2021-06-27T10:21:59Z</time>
      </trkpt>
      <trkpt lat="48.36711" lon="-4.5798">
        <ele>59.26</ele>
        <time>2021-06-27T10:22:00Z</time>
      </trkpt>
      <trkpt lat="48.36696" lon="-4.57918">
        <ele>62.14</ele>
        <time>2021-06-27T10:22:07Z</time>
      </trkpt>
      <trkpt lat="48.36693" lon="-4.57912">
        <ele>62.62</ele>
        <time>2021-06-27T10:22:08Z</time>
      </trkpt>
      <trkpt lat="48.36692" lon="-4.57905">
        <ele>62.62</ele>
        <time>2021-06-27T10:22:09Z</time>
      </trkpt>
      <trkpt lat="48.3669" lon="-4.57886">
        <ele>61.18</ele>
        <time>2021-06-27T10:22:12Z</time>
      </trkpt>
      <trkpt lat="48.3669" lon="-4.57879">
        <ele>61.18</ele>
        <time>2021-06-27T10:22:14Z</time>
      </trkpt>
      <trkpt lat="48.3669" lon="-4.57868">
        <ele>59.74</ele>
        <time>2021-06-27T10:22:18Z</time>
      </trkpt>
      <trkpt lat="48.3669" lon="-4.57862">
        <ele>59.26</ele>
        <time>2021-06-27T10:22:19Z</time>
      </trkpt>
      <trkpt lat="48.36687" lon="-4.5782">
        <ele>55.41</ele>
        <time>2021-06-27T10:22:24Z</time>
      </trkpt>
      <trkpt lat="48.36688" lon="-4.57784">
        <ele>52.05</ele>
        <time>2021-06-27T10:22:27Z</time>
      </trkpt>
      <trkpt lat="48.36689" lon="-4.57746">
        <ele>48.68</ele>
        <time>2021-06-27T10:22:30Z</time>
      </trkpt>
      <trkpt lat="48.36689" lon="-4.57734">
        <ele>48.68</ele>
        <time>2021-06-27T10:22:31Z</time>
      </trkpt>
      <trkpt lat="48.36691" lon="-4.57682">
        <ele>50.13</ele>
        <time>2021-06-27T10:22:38Z</time>
      </trkpt>
      <trkpt lat="48.36693" lon="-4.57659">
        <ele>50.13</ele>
        <time>2021-06-27T10:22:52Z</time>
      </trkpt>
      <trkpt lat="48.36696" lon="-4.57639">
        <ele>48.68</ele>
        <time>2021-06-27T10:22:56Z</time>
      </trkpt>
      <trkpt lat="48.36697" lon="-4.57625">
        <ele>47.24</ele>
        <time>2021-06-27T10:22:58Z</time>
      </trkpt>
      <trkpt lat="48.36706" lon="-4.57586">
        <ele>46.76</ele>
        <time>2021-06-27T10:23:03Z</time>
      </trkpt>
      <trkpt lat="48.36708" lon="-4.57576">
        <ele>46.76</ele>
        <time>2021-06-27T10:23:04Z</time>
      </trkpt>
      <trkpt lat="48.36709" lon="-4.57568">
        <ele>46.76</ele>
        <time>2021-06-27T10:23:05Z</time>
      </trkpt>
      <trkpt lat="48.3671" lon="-4.57559">
        <ele>46.76</ele>
        <time>2021-06-27T10:23:06Z</time>
      </trkpt>
      <trkpt lat="48.3671" lon="-4.57551">
        <ele>46.76</ele>
        <time>2021-06-27T10:23:07Z</time>
      </trkpt>
      <trkpt lat="48.36711" lon="-4.57542">
        <ele>45.8</ele>
        <time>2021-06-27T10:23:08Z</time>
      </trkpt>
      <trkpt lat="48.36712" lon="-4.57535">
        <ele>45.32</ele>
        <time>2021-06-27T10:23:09Z</time>
      </trkpt>
      <trkpt lat="48.36713" lon="-4.57527">
        <ele>44.36</ele>
        <time>2021-06-27T10:23:10Z</time>
      </trkpt>
      <trkpt lat="48.36714" lon="-4.57519">
        <ele>43.4</ele>
        <time>2021-06-27T10:23:11Z</time>
      </trkpt>
      <trkpt lat="48.36715" lon="-4.57509">
        <ele>42.44</ele>
        <time>2021-06-27T10:23:12Z</time>
      </trkpt>
      <trkpt lat="48.36715" lon="-4.57501">
        <ele>42.44</ele>
        <time>2021-06-27T10:23:13Z</time>
      </trkpt>
      <trkpt lat="48.36714" lon="-4.57494">
        <ele>41.95</ele>
        <time>2021-06-27T10:23:14Z</time>
      </trkpt>
      <trkpt lat="48.36712" lon="-4.57487">
        <ele>41.95</ele>
        <time>2021-06-27T10:23:15Z</time>
      </trkpt>
      <trkpt lat="48.3671" lon="-4.5748">
        <ele>41.95</ele>
        <time>2021-06-27T10:23:16Z</time>
      </trkpt>
      <trkpt lat="48.36707" lon="-4.57475">
        <ele>41.95</ele>
        <time>2021-06-27T10:23:17Z</time>
      </trkpt>
      <trkpt lat="48.36703" lon="-4.57471">
        <ele>43.88</ele>
        <time>2021-06-27T10:23:18Z</time>
      </trkpt>
      <trkpt lat="48.36699" lon="-4.57468">
        <ele>43.88</ele>
        <time>2021-06-27T10:23:19Z</time>
      </trkpt>
      <trkpt lat="48.36694" lon="-4.57465">
        <ele>44.36</ele>
        <time>2021-06-27T10:23:20Z</time>
      </trkpt>
      <trkpt lat="48.36689" lon="-4.57464">
        <ele>44.84</ele>
        <time>2021-06-27T10:23:21Z</time>
      </trkpt>
      <trkpt lat="48.36685" lon="-4.57463">
        <ele>45.32</ele>
        <time>2021-06-27T10:23:22Z</time>
      </trkpt>
      <trkpt lat="48.3668" lon="-4.57463">
        <ele>45.8</ele>
        <time>2021-06-27T10:23:23Z</time>
      </trkpt>
      <trkpt lat="48.36675" lon="-4.57461">
        <ele>46.76</ele>
        <time>2021-06-27T10:23:24Z</time>
      </trkpt>
      <trkpt lat="48.36656" lon="-4.57451">
        <ele>46.76</ele>
        <time>2021-06-27T10:23:28Z</time>
      </trkpt>
      <trkpt lat="48.36653" lon="-4.57445">
        <ele>46.76</ele>
        <time>2021-06-27T10:23:29Z</time>
      </trkpt>
      <trkpt lat="48.3665" lon="-4.57438">
        <ele>45.32</ele>
        <time>2021-06-27T10:23:30Z</time>
      </trkpt>
      <trkpt lat="48.36645" lon="-4.57421">
        <ele>44.36</ele>
        <time>2021-06-27T10:23:32Z</time>
      </trkpt>
      <trkpt lat="48.36632" lon="-4.57363">
        <ele>42.44</ele>
        <time>2021-06-27T10:23:38Z</time>
      </trkpt>
      <trkpt lat="48.36631" lon="-4.57354">
        <ele>42.44</ele>
        <time>2021-06-27T10:23:39Z</time>
      </trkpt>
      <trkpt lat="48.3663" lon="-4.57326">
        <ele>39.55</ele>
        <time>2021-06-27T10:23:42Z</time>
      </trkpt>
      <trkpt lat="48.36632" lon="-4.57314">
        <ele>39.55</ele>
        <time>2021-06-27T10:23:43Z</time>
      </trkpt>
      <trkpt lat="48.36633" lon="-4.57303">
        <ele>39.55</ele>
        <time>2021-06-27T10:23:44Z</time>
      </trkpt>
      <trkpt lat="48.36635" lon="-4.57277">
        <ele>39.07</ele>
        <time>2021-06-27T10:23:47Z</time>
      </trkpt>
      <trkpt lat="48.36638" lon="-4.57266">
        <ele>39.07</ele>
        <time>2021-06-27T10:23:48Z</time>
      </trkpt>
      <trkpt lat="48.36638" lon="-4.57255">
        <ele>39.07</ele>
        <time>2021-06-27T10:23:49Z</time>
      </trkpt>
      <trkpt lat="48.36638" lon="-4.57235">
        <ele>39.07</ele>
        <time>2021-06-27T10:23:51Z</time>
      </trkpt>
      <trkpt lat="48.36633" lon="-4.57192">
        <ele>38.59</ele>
        <time>2021-06-27T10:23:55Z</time>
      </trkpt>
      <trkpt lat="48.3663" lon="-4.57179">
        <ele>38.59</ele>
        <time>2021-06-27T10:23:56Z</time>
      </trkpt>
      <trkpt lat="48.36627" lon="-4.57168">
        <ele>38.59</ele>
        <time>2021-06-27T10:23:57Z</time>
      </trkpt>
      <trkpt lat="48.36624" lon="-4.57157">
        <ele>38.59</ele>
        <time>2021-06-27T10:23:58Z</time>
      </trkpt>
      <trkpt lat="48.36622" lon="-4.57145">
        <ele>38.11</ele>
        <time>2021-06-27T10:23:59Z</time>
      </trkpt>
      <trkpt lat="48.3661" lon="-4.57091">
        <ele>35.71</ele>
        <time>2021-06-27T10:24:04Z</time>
      </trkpt>
      <trkpt lat="48.36604" lon="-4.57057">
        <ele>36.19</ele>
        <time>2021-06-27T10:24:07Z</time>
      </trkpt>
      <trkpt lat="48.366" lon="-4.5702">
        <ele>33.3</ele>
        <time>2021-06-27T10:24:10Z</time>
      </trkpt>
      <trkpt lat="48.36597" lon="-4.57008">
        <ele>33.3</ele>
        <time>2021-06-27T10:24:11Z</time>
      </trkpt>
      <trkpt lat="48.36594" lon="-4.56997">
        <ele>33.3</ele>
        <time>2021-06-27T10:24:12Z</time>
      </trkpt>
      <trkpt lat="48.36587" lon="-4.56975">
        <ele>32.82</ele>
        <time>2021-06-27T10:24:14Z</time>
      </trkpt>
      <trkpt lat="48.36581" lon="-4.56952">
        <ele>31.38</ele>
        <time>2021-06-27T10:24:16Z</time>
      </trkpt>
      <trkpt lat="48.3658" lon="-4.5694">
        <ele>31.38</ele>
        <time>2021-06-27T10:24:17Z</time>
      </trkpt>
      <trkpt lat="48.36578" lon="-4.56927">
        <ele>29.94</ele>
        <time>2021-06-27T10:24:18Z</time>
      </trkpt>
      <trkpt lat="48.36576" lon="-4.56913">
        <ele>29.94</ele>
        <time>2021-06-27T10:24:19Z</time>
      </trkpt>
      <trkpt lat="48.36562" lon="-4.56844">
        <ele>32.34</ele>
        <time>2021-06-27T10:24:25Z</time>
      </trkpt>
      <trkpt lat="48.36558" lon="-4.56838">
        <ele>33.3</ele>
        <time>2021-06-27T10:24:26Z</time>
      </trkpt>
      <trkpt lat="48.36551" lon="-4.56828">
        <ele>34.74</ele>
        <time>2021-06-27T10:24:28Z</time>
      </trkpt>
      <trkpt lat="48.36549" lon="-4.56823">
        <ele>34.74</ele>
        <time>2021-06-27T10:24:29Z</time>
      </trkpt>
      <trkpt lat="48.36547" lon="-4.56816">
        <ele>34.74</ele>
        <time>2021-06-27T10:24:30Z</time>
      </trkpt>
      <trkpt lat="48.36544" lon="-4.56804">
        <ele>30.9</ele>
        <time>2021-06-27T10:24:32Z</time>
      </trkpt>
      <trkpt lat="48.36537" lon="-4.56787">
        <ele>28.98</ele>
        <time>2021-06-27T10:24:35Z</time>
      </trkpt>
      <trkpt lat="48.36532" lon="-4.56784">
        <ele>28.5</ele>
        <time>2021-06-27T10:24:36Z</time>
      </trkpt>
      <trkpt lat="48.36527" lon="-4.56781">
        <ele>27.05</ele>
        <time>2021-06-27T10:24:37Z</time>
      </trkpt>
      <trkpt lat="48.36505" lon="-4.56765">
        <ele>23.69</ele>
        <time>2021-06-27T10:24:41Z</time>
      </trkpt>
      <trkpt lat="48.36486" lon="-4.56752">
        <ele>25.13</ele>
        <time>2021-06-27T10:24:44Z</time>
      </trkpt>
      <trkpt lat="48.36475" lon="-4.56745">
        <ele>26.09</ele>
        <time>2021-06-27T10:24:46Z</time>
      </trkpt>
      <trkpt lat="48.36472" lon="-4.5674">
        <ele>26.57</ele>
        <time>2021-06-27T10:24:47Z</time>
      </trkpt>
      <trkpt lat="48.36466" lon="-4.56728">
        <ele>26.57</ele>
        <time>2021-06-27T10:24:49Z</time>
      </trkpt>
      <trkpt lat="48.3646" lon="-4.56703">
        <ele>27.53</ele>
        <time>2021-06-27T10:24:54Z</time>
      </trkpt>
      <trkpt lat="48.3646" lon="-4.56698">
        <ele>27.53</ele>
        <time>2021-06-27T10:24:55Z</time>
      </trkpt>
      <trkpt lat="48.36461" lon="-4.56693">
        <ele>27.53</ele>
        <time>2021-06-27T10:24:56Z</time>
      </trkpt>
      <trkpt lat="48.36463" lon="-4.56686">
        <ele>26.09</ele>
        <time>2021-06-27T10:24:57Z</time>
      </trkpt>
      <trkpt lat="48.36464" lon="-4.56679">
        <ele>26.09</ele>
        <time>2021-06-27T10:24:58Z</time>
      </trkpt>
      <trkpt lat="48.36464" lon="-4.56673">
        <ele>26.09</ele>
        <time>2021-06-27T10:24:59Z</time>
      </trkpt>
      <trkpt lat="48.36464" lon="-4.56668">
        <ele>28.02</ele>
        <time>2021-06-27T10:25:00Z</time>
      </trkpt>
      <trkpt lat="48.36456" lon="-4.56621">
        <ele>31.38</ele>
        <time>2021-06-27T10:25:10Z</time>
      </trkpt>
      <trkpt lat="48.36435" lon="-4.56587">
        <ele>33.3</ele>
        <time>2021-06-27T10:25:19Z</time>
      </trkpt>
      <trkpt lat="48.36417" lon="-4.56567">
        <ele>35.71</ele>
        <time>2021-06-27T10:25:29Z</time>
      </trkpt>
      <trkpt lat="48.36416" lon="-4.56564">
        <ele>35.71</ele>
        <time>2021-06-27T10:25:30Z</time>
      </trkpt>
      <trkpt lat="48.36415" lon="-4.56562">
        <ele>36.19</ele>
        <time>2021-06-27T10:25:31Z</time>
      </trkpt>
      <trkpt lat="48.36413" lon="-4.5656">
        <ele>36.19</ele>
        <time>2021-06-27T10:25:32Z</time>
      </trkpt>
      <trkpt lat="48.36411" lon="-4.56558">
        <ele>36.67</ele>
        <time>2021-06-27T10:25:33Z</time>
      </trkpt>
      <trkpt lat="48.36409" lon="-4.56556">
        <ele>36.67</ele>
        <time>2021-06-27T10:25:34Z</time>
      </trkpt>
      <trkpt lat="48.36406" lon="-4.56555">
        <ele>37.15</ele>
        <time>2021-06-27T10:25:35Z</time>
      </trkpt>
      <trkpt lat="48.36391" lon="-4.56534">
        <ele>40.51</ele>
        <time>2021-06-27T10:25:45Z</time>
      </trkpt>
      <trkpt lat="48.36391" lon="-4.56532">
        <ele>40.99</ele>
        <time>2021-06-27T10:25:46Z</time>
      </trkpt>
      <trkpt lat="48.3639" lon="-4.5653">
        <ele>40.99</ele>
        <time>2021-06-27T10:25:47Z</time>
      </trkpt>
      <trkpt lat="48.36385" lon="-4.56515">
        <ele>42.92</ele>
        <time>2021-06-27T10:25:56Z</time>
      </trkpt>
      <trkpt lat="48.36384" lon="-4.56514">
        <ele>42.92</ele>
        <time>2021-06-27T10:25:57Z</time>
      </trkpt>
      <trkpt lat="48.36384" lon="-4.56512">
        <ele>43.4</ele>
        <time>2021-06-27T10:25:58Z</time>
      </trkpt>
      <trkpt lat="48.36383" lon="-4.5651">
        <ele>43.4</ele>
        <time>2021-06-27T10:25:59Z</time>
      </trkpt>
      <trkpt lat="48.36383" lon="-4.56508">
        <ele>43.4</ele>
        <time>2021-06-27T10:26:00Z</time>
      </trkpt>
      <trkpt lat="48.36382" lon="-4.56506">
        <ele>43.4</ele>
        <time>2021-06-27T10:26:01Z</time>
      </trkpt>
      <trkpt lat="48.36381" lon="-4.56503">
        <ele>43.88</ele>
        <time>2021-06-27T10:26:02Z</time>
      </trkpt>
      <trkpt lat="48.3638" lon="-4.56501">
        <ele>43.88</ele>
        <time>2021-06-27T10:26:03Z</time>
      </trkpt>
      <trkpt lat="48.36379" lon="-4.56499">
        <ele>43.88</ele>
        <time>2021-06-27T10:26:04Z</time>
      </trkpt>
      <trkpt lat="48.36377" lon="-4.56497">
        <ele>43.88</ele>
        <time>2021-06-27T10:26:05Z</time>
      </trkpt>
      <trkpt lat="48.36375" lon="-4.56495">
        <ele>43.88</ele>
        <time>2021-06-27T10:26:06Z</time>
      </trkpt>
      <trkpt lat="48.36374" lon="-4.56493">
        <ele>43.88</ele>
        <time>2021-06-27T10:26:07Z</time>
      </trkpt>
      <trkpt lat="48.36372" lon="-4.56491">
        <ele>43.88</ele>
        <time>2021-06-27T10:26:08Z</time>
      </trkpt>
      <trkpt lat="48.3637" lon="-4.5649">
        <ele>43.88</ele>
        <time>2021-06-27T10:26:09Z</time>
      </trkpt>
      <trkpt lat="48.36345" lon="-4.56489">
        <ele>44.36</ele>
        <time>2021-06-27T10:26:20Z</time>
      </trkpt>
      <trkpt lat="48.36322" lon="-4.56505">
        <ele>46.76</ele>
        <time>2021-06-27T10:26:31Z</time>
      </trkpt>
      <trkpt lat="48.36307" lon="-4.56517">
        <ele>50.13</ele>
        <time>2021-06-27T10:26:41Z</time>
      </trkpt>
      <trkpt lat="48.36299" lon="-4.56519">
        <ele>51.57</ele>
        <time>2021-06-27T10:26:47Z</time>
      </trkpt>
      <trkpt lat="48.36282" lon="-4.56548">
        <ele>54.93</ele>
        <time>2021-06-27T10:26:59Z</time>
      </trkpt>
      <trkpt lat="48.3627" lon="-4.56586">
        <ele>58.3</ele>
        <time>2021-06-27T10:27:14Z</time>
      </trkpt>
      <trkpt lat="48.3627" lon="-4.56625">
        <ele>60.7</ele>
        <time>2021-06-27T10:27:27Z</time>
      </trkpt>
      <trkpt lat="48.36269" lon="-4.5666">
        <ele>61.66</ele>
        <time>2021-06-27T10:27:39Z</time>
      </trkpt>
      <trkpt lat="48.36268" lon="-4.56663">
        <ele>61.66</ele>
        <time>2021-06-27T10:27:40Z</time>
      </trkpt>
      <trkpt lat="48.36267" lon="-4.56666">
        <ele>61.66</ele>
        <time>2021-06-27T10:27:41Z</time>
      </trkpt>
      <trkpt lat="48.36265" lon="-4.56667">
        <ele>61.66</ele>
        <time>2021-06-27T10:27:42Z</time>
      </trkpt>
      <trkpt lat="48.36264" lon="-4.56668">
        <ele>61.66</ele>
        <time>2021-06-27T10:27:43Z</time>
      </trkpt>
      <trkpt lat="48.36262" lon="-4.56668">
        <ele>61.66</ele>
        <time>2021-06-27T10:27:44Z</time>
      </trkpt>
      <trkpt lat="48.36256" lon="-4.56673">
        <ele>62.14</ele>
        <time>2021-06-27T10:27:47Z</time>
      </trkpt>
      <trkpt lat="48.36255" lon="-4.56676">
        <ele>62.14</ele>
        <time>2021-06-27T10:27:48Z</time>
      </trkpt>
      <trkpt lat="48.36254" lon="-4.56679">
        <ele>62.14</ele>
        <time>2021-06-27T10:27:49Z</time>
      </trkpt>
      <trkpt lat="48.36254" lon="-4.56683">
        <ele>62.14</ele>
        <time>2021-06-27T10:27:50Z</time>
      </trkpt>
      <trkpt lat="48.36254" lon="-4.56687">
        <ele>62.14</ele>
        <time>2021-06-27T10:27:51Z</time>
      </trkpt>
      <trkpt lat="48.36254" lon="-4.56691">
        <ele>62.14</ele>
        <time>2021-06-27T10:27:52Z</time>
      </trkpt>
      <trkpt lat="48.36254" lon="-4.56695">
        <ele>62.62</ele>
        <time>2021-06-27T10:27:53Z</time>
      </trkpt>
      <trkpt lat="48.36254" lon="-4.56762">
        <ele>64.07</ele>
        <time>2021-06-27T10:28:08Z</time>
      </trkpt>
      <trkpt lat="48.36256" lon="-4.56832">
        <ele>66.47</ele>
        <time>2021-06-27T10:28:21Z</time>
      </trkpt>
      <trkpt lat="48.36255" lon="-4.56943">
        <ele>68.87</ele>
        <time>2021-06-27T10:28:40Z</time>
      </trkpt>
      <trkpt lat="48.36254" lon="-4.56993">
        <ele>70.31</ele>
        <time>2021-06-27T10:28:48Z</time>
      </trkpt>
      <trkpt lat="48.36252" lon="-4.56999">
        <ele>70.31</ele>
        <time>2021-06-27T10:28:49Z</time>
      </trkpt>
      <trkpt lat="48.3625" lon="-4.57004">
        <ele>70.79</ele>
        <time>2021-06-27T10:28:50Z</time>
      </trkpt>
      <trkpt lat="48.36247" lon="-4.57008">
        <ele>70.79</ele>
        <time>2021-06-27T10:28:51Z</time>
      </trkpt>
      <trkpt lat="48.36244" lon="-4.57013">
        <ele>71.27</ele>
        <time>2021-06-27T10:28:52Z</time>
      </trkpt>
      <trkpt lat="48.36241" lon="-4.57016">
        <ele>71.27</ele>
        <time>2021-06-27T10:28:53Z</time>
      </trkpt>
      <trkpt lat="48.36238" lon="-4.57019">
        <ele>71.76</ele>
        <time>2021-06-27T10:28:54Z</time>
      </trkpt>
      <trkpt lat="48.36234" lon="-4.57022">
        <ele>71.76</ele>
        <time>2021-06-27T10:28:55Z</time>
      </trkpt>
      <trkpt lat="48.3623" lon="-4.57024">
        <ele>72.24</ele>
        <time>2021-06-27T10:28:56Z</time>
      </trkpt>
      <trkpt lat="48.36226" lon="-4.57025">
        <ele>72.24</ele>
        <time>2021-06-27T10:28:57Z</time>
      </trkpt>
      <trkpt lat="48.36222" lon="-4.57026">
        <ele>72.24</ele>
        <time>2021-06-27T10:28:58Z</time>
      </trkpt>
      <trkpt lat="48.36218" lon="-4.57027">
        <ele>72.72</ele>
        <time>2021-06-27T10:28:59Z</time>
      </trkpt>
      <trkpt lat="48.3616" lon="-4.57037">
        <ele>75.12</ele>
        <time>2021-06-27T10:29:14Z</time>
      </trkpt>
      <trkpt lat="48.36093" lon="-4.57047">
        <ele>77.04</ele>
        <time>2021-06-27T10:29:31Z</time>
      </trkpt>
      <trkpt lat="48.36036" lon="-4.5706">
        <ele>78</ele>
        <time>2021-06-27T10:29:45Z</time>
      </trkpt>
      <trkpt lat="48.36031" lon="-4.57075">
        <ele>78.48</ele>
        <time>2021-06-27T10:29:48Z</time>
      </trkpt>
      <trkpt lat="48.3603" lon="-4.57081">
        <ele>78.48</ele>
        <time>2021-06-27T10:29:49Z</time>
      </trkpt>
      <trkpt lat="48.3603" lon="-4.57094">
        <ele>78.97</ele>
        <time>2021-06-27T10:29:51Z</time>
      </trkpt>
      <trkpt lat="48.36032" lon="-4.57112">
        <ele>78.97</ele>
        <time>2021-06-27T10:29:54Z</time>
      </trkpt>
      <trkpt lat="48.36042" lon="-4.57221">
        <ele>80.41</ele>
        <time>2021-06-27T10:30:12Z</time>
      </trkpt>
      <trkpt lat="48.36049" lon="-4.57318">
        <ele>82.33</ele>
        <time>2021-06-27T10:30:28Z</time>
      </trkpt>
      <trkpt lat="48.36054" lon="-4.57394">
        <ele>82.81</ele>
        <time>2021-06-27T10:30:40Z</time>
      </trkpt>
      <trkpt lat="48.36041" lon="-4.57508">
        <ele>83.77</ele>
        <time>2021-06-27T10:30:57Z</time>
      </trkpt>
      <trkpt lat="48.36017" lon="-4.57644">
        <ele>84.25</ele>
        <time>2021-06-27T10:31:16Z</time>
      </trkpt>
      <trkpt lat="48.36015" lon="-4.57651">
        <ele>84.25</ele>
        <time>2021-06-27T10:31:17Z</time>
      </trkpt>
      <trkpt lat="48.36013" lon="-4.57658">
        <ele>84.25</ele>
        <time>2021-06-27T10:31:18Z</time>
      </trkpt>
      <trkpt lat="48.3601" lon="-4.57665">
        <ele>84.25</ele>
        <time>2021-06-27T10:31:19Z</time>
      </trkpt>
      <trkpt lat="48.36005" lon="-4.57672">
        <ele>84.25</ele>
        <time>2021-06-27T10:31:20Z</time>
      </trkpt>
      <trkpt lat="48.36002" lon="-4.57674">
        <ele>84.25</ele>
        <time>2021-06-27T10:31:21Z</time>
      </trkpt>
      <trkpt lat="48.35998" lon="-4.57679">
        <ele>84.25</ele>
        <time>2021-06-27T10:31:22Z</time>
      </trkpt>
      <trkpt lat="48.35993" lon="-4.57684">
        <ele>84.25</ele>
        <time>2021-06-27T10:31:23Z</time>
      </trkpt>
      <trkpt lat="48.35981" lon="-4.57701">
        <ele>82.81</ele>
        <time>2021-06-27T10:31:26Z</time>
      </trkpt>
      <trkpt lat="48.35977" lon="-4.57705">
        <ele>82.81</ele>
        <time>2021-06-27T10:31:27Z</time>
      </trkpt>
      <trkpt lat="48.35973" lon="-4.57708">
        <ele>82.81</ele>
        <time>2021-06-27T10:31:28Z</time>
      </trkpt>
      <trkpt lat="48.35968" lon="-4.57707">
        <ele>82.81</ele>
        <time>2021-06-27T10:31:29Z</time>
      </trkpt>
      <trkpt lat="48.35964" lon="-4.57704">
        <ele>82.81</ele>
        <time>2021-06-27T10:31:30Z</time>
      </trkpt>
      <trkpt lat="48.3596" lon="-4.57699">
        <ele>82.33</ele>
        <time>2021-06-27T10:31:31Z</time>
      </trkpt>
      <trkpt lat="48.35956" lon="-4.57693">
        <ele>82.33</ele>
        <time>2021-06-27T10:31:32Z</time>
      </trkpt>
      <trkpt lat="48.3593" lon="-4.57667">
        <ele>79.93</ele>
        <time>2021-06-27T10:31:37Z</time>
      </trkpt>
      <trkpt lat="48.35863" lon="-4.57598">
        <ele>76.08</ele>
        <time>2021-06-27T10:31:48Z</time>
      </trkpt>
      <trkpt lat="48.35786" lon="-4.57497">
        <ele>72.72</ele>
        <time>2021-06-27T10:32:02Z</time>
      </trkpt>
      <trkpt lat="48.35725" lon="-4.57405">
        <ele>70.31</ele>
        <time>2021-06-27T10:32:14Z</time>
      </trkpt>
      <trkpt lat="48.35719" lon="-4.574">
        <ele>69.83</ele>
        <time>2021-06-27T10:32:15Z</time>
      </trkpt>
      <trkpt lat="48.35713" lon="-4.57395">
        <ele>69.83</ele>
        <time>2021-06-27T10:32:16Z</time>
      </trkpt>
      <trkpt lat="48.35706" lon="-4.57391">
        <ele>69.35</ele>
        <time>2021-06-27T10:32:17Z</time>
      </trkpt>
      <trkpt lat="48.35699" lon="-4.57388">
        <ele>69.35</ele>
        <time>2021-06-27T10:32:18Z</time>
      </trkpt>
      <trkpt lat="48.35583" lon="-4.57312">
        <ele>67.91</ele>
        <time>2021-06-27T10:32:36Z</time>
      </trkpt>
      <trkpt lat="48.35549" lon="-4.57276">
        <ele>66.47</ele>
        <time>2021-06-27T10:32:43Z</time>
      </trkpt>
      <trkpt lat="48.35545" lon="-4.57272">
        <ele>66.47</ele>
        <time>2021-06-27T10:32:44Z</time>
      </trkpt>
      <trkpt lat="48.35529" lon="-4.57248">
        <ele>66.47</ele>
        <time>2021-06-27T10:32:49Z</time>
      </trkpt>
      <trkpt lat="48.3553" lon="-4.57244">
        <ele>66.95</ele>
        <time>2021-06-27T10:32:50Z</time>
      </trkpt>
      <trkpt lat="48.35531" lon="-4.57241">
        <ele>67.91</ele>
        <time>2021-06-27T10:32:51Z</time>
      </trkpt>
      <trkpt lat="48.35533" lon="-4.57238">
        <ele>67.91</ele>
        <time>2021-06-27T10:32:52Z</time>
      </trkpt>
      <trkpt lat="48.35535" lon="-4.57235">
        <ele>67.91</ele>
        <time>2021-06-27T10:32:53Z</time>
      </trkpt>
      <trkpt lat="48.35538" lon="-4.5723">
        <ele>66.47</ele>
        <time>2021-06-27T10:32:54Z</time>
      </trkpt>
      <trkpt lat="48.35541" lon="-4.57224">
        <ele>65.51</ele>
        <time>2021-06-27T10:32:55Z</time>
      </trkpt>
      <trkpt lat="48.35544" lon="-4.57219">
        <ele>65.51</ele>
        <time>2021-06-27T10:32:56Z</time>
      </trkpt>
      <trkpt lat="48.35548" lon="-4.57212">
        <ele>65.03</ele>
        <time>2021-06-27T10:32:57Z</time>
      </trkpt>
      <trkpt lat="48.35575" lon="-4.5717">
        <ele>65.03</ele>
        <time>2021-06-27T10:33:05Z</time>
      </trkpt>
      <trkpt lat="48.35578" lon="-4.57166">
        <ele>65.03</ele>
        <time>2021-06-27T10:33:06Z</time>
      </trkpt>
      <trkpt lat="48.35582" lon="-4.57162">
        <ele>64.55</ele>
        <time>2021-06-27T10:33:07Z</time>
      </trkpt>
      <trkpt lat="48.35603" lon="-4.57136">
        <ele>64.07</ele>
        <time>2021-06-27T10:33:14Z</time>
      </trkpt>
      <trkpt lat="48.35611" lon="-4.57128">
        <ele>63.1</ele>
        <time>2021-06-27T10:33:16Z</time>
      </trkpt>
      <trkpt lat="48.35615" lon="-4.57123">
        <ele>63.1</ele>
        <time>2021-06-27T10:33:17Z</time>
      </trkpt>
      <trkpt lat="48.35622" lon="-4.57114">
        <ele>63.1</ele>
        <time>2021-06-27T10:33:19Z</time>
      </trkpt>
      <trkpt lat="48.3563" lon="-4.57105">
        <ele>63.1</ele>
        <time>2021-06-27T10:33:21Z</time>
      </trkpt>
      <trkpt lat="48.35633" lon="-4.57101">
        <ele>63.1</ele>
        <time>2021-06-27T10:33:22Z</time>
      </trkpt>
      <trkpt lat="48.35635" lon="-4.57092">
        <ele>62.62</ele>
        <time>2021-06-27T10:33:24Z</time>
      </trkpt>
      <trkpt lat="48.35635" lon="-4.57086">
        <ele>62.14</ele>
        <time>2021-06-27T10:33:25Z</time>
      </trkpt>
      <trkpt lat="48.3563" lon="-4.57041">
        <ele>59.26</ele>
        <time>2021-06-27T10:33:32Z</time>
      </trkpt>
      <trkpt lat="48.35631" lon="-4.57009">
        <ele>55.89</ele>
        <time>2021-06-27T10:33:38Z</time>
      </trkpt>
      <trkpt lat="48.35629" lon="-4.56985">
        <ele>52.53</ele>
        <time>2021-06-27T10:33:43Z</time>
      </trkpt>
      <trkpt lat="48.35629" lon="-4.56965">
        <ele>49.16</ele>
        <time>2021-06-27T10:33:47Z</time>
      </trkpt>
      <trkpt lat="48.35631" lon="-4.56953">
        <ele>47.24</ele>
        <time>2021-06-27T10:33:49Z</time>
      </trkpt>
      <trkpt lat="48.35631" lon="-4.56937">
        <ele>45.8</ele>
        <time>2021-06-27T10:33:51Z</time>
      </trkpt>
      <trkpt lat="48.3563" lon="-4.5693">
        <ele>44.84</ele>
        <time>2021-06-27T10:33:52Z</time>
      </trkpt>
      <trkpt lat="48.35629" lon="-4.56919">
        <ele>44.36</ele>
        <time>2021-06-27T10:33:54Z</time>
      </trkpt>
      <trkpt lat="48.35631" lon="-4.56888">
        <ele>40.99</ele>
        <time>2021-06-27T10:34:00Z</time>
      </trkpt>
      <trkpt lat="48.35628" lon="-4.56879">
        <ele>41.47</ele>
        <time>2021-06-27T10:34:01Z</time>
      </trkpt>
      <trkpt lat="48.35626" lon="-4.56871">
        <ele>41.47</ele>
        <time>2021-06-27T10:34:02Z</time>
      </trkpt>
      <trkpt lat="48.35626" lon="-4.56865">
        <ele>41.47</ele>
        <time>2021-06-27T10:34:03Z</time>
      </trkpt>
      <trkpt lat="48.35622" lon="-4.56835">
        <ele>45.32</ele>
        <time>2021-06-27T10:34:10Z</time>
      </trkpt>
      <trkpt lat="48.35618" lon="-4.56806">
        <ele>46.76</ele>
        <time>2021-06-27T10:34:20Z</time>
      </trkpt>
      <trkpt lat="48.35617" lon="-4.56803">
        <ele>45.32</ele>
        <time>2021-06-27T10:34:21Z</time>
      </trkpt>
      <trkpt lat="48.35615" lon="-4.56801">
        <ele>44.36</ele>
        <time>2021-06-27T10:34:22Z</time>
      </trkpt>
      <trkpt lat="48.35613" lon="-4.56799">
        <ele>43.4</ele>
        <time>2021-06-27T10:34:23Z</time>
      </trkpt>
      <trkpt lat="48.35611" lon="-4.56797">
        <ele>42.44</ele>
        <time>2021-06-27T10:34:24Z</time>
      </trkpt>
      <trkpt lat="48.35609" lon="-4.56795">
        <ele>41.95</ele>
        <time>2021-06-27T10:34:25Z</time>
      </trkpt>
      <trkpt lat="48.35602" lon="-4.56789">
        <ele>38.59</ele>
        <time>2021-06-27T10:34:28Z</time>
      </trkpt>
      <trkpt lat="48.35596" lon="-4.56783">
        <ele>35.23</ele>
        <time>2021-06-27T10:34:31Z</time>
      </trkpt>
      <trkpt lat="48.35585" lon="-4.56776">
        <ele>30.9</ele>
        <time>2021-06-27T10:34:35Z</time>
      </trkpt>
      <trkpt lat="48.35574" lon="-4.56768">
        <ele>28.02</ele>
        <time>2021-06-27T10:34:38Z</time>
      </trkpt>
      <trkpt lat="48.3556" lon="-4.56761">
        <ele>24.65</ele>
        <time>2021-06-27T10:34:41Z</time>
      </trkpt>
      <trkpt lat="48.35537" lon="-4.56752">
        <ele>21.29</ele>
        <time>2021-06-27T10:34:45Z</time>
      </trkpt>
      <trkpt lat="48.35531" lon="-4.56748">
        <ele>21.29</ele>
        <time>2021-06-27T10:34:46Z</time>
      </trkpt>
      <trkpt lat="48.35515" lon="-4.56742">
        <ele>20.81</ele>
        <time>2021-06-27T10:34:49Z</time>
      </trkpt>
      <trkpt lat="48.35512" lon="-4.56743">
        <ele>21.29</ele>
        <time>2021-06-27T10:34:50Z</time>
      </trkpt>
      <trkpt lat="48.35509" lon="-4.56744">
        <ele>21.77</ele>
        <time>2021-06-27T10:34:51Z</time>
      </trkpt>
      <trkpt lat="48.35506" lon="-4.56744">
        <ele>21.77</ele>
        <time>2021-06-27T10:34:52Z</time>
      </trkpt>
      <trkpt lat="48.35504" lon="-4.56745">
        <ele>21.77</ele>
        <time>2021-06-27T10:34:53Z</time>
      </trkpt>
      <trkpt lat="48.35501" lon="-4.56745">
        <ele>22.73</ele>
        <time>2021-06-27T10:34:54Z</time>
      </trkpt>
      <trkpt lat="48.35499" lon="-4.56745">
        <ele>22.73</ele>
        <time>2021-06-27T10:34:55Z</time>
      </trkpt>
      <trkpt lat="48.35497" lon="-4.56745">
        <ele>23.21</ele>
        <time>2021-06-27T10:34:56Z</time>
      </trkpt>
      <trkpt lat="48.35473" lon="-4.56742">
        <ele>25.61</ele>
        <time>2021-06-27T10:35:07Z</time>
      </trkpt>
      <trkpt lat="48.35446" lon="-4.56736">
        <ele>23.69</ele>
        <time>2021-06-27T10:35:16Z</time>
      </trkpt>
      <trkpt lat="48.35426" lon="-4.56726">
        <ele>22.73</ele>
        <time>2021-06-27T10:35:20Z</time>
      </trkpt>
      <trkpt lat="48.35422" lon="-4.56723">
        <ele>21.77</ele>
        <time>2021-06-27T10:35:21Z</time>
      </trkpt>
      <trkpt lat="48.3541" lon="-4.56715">
        <ele>20.81</ele>
        <time>2021-06-27T10:35:23Z</time>
      </trkpt>
      <trkpt lat="48.35403" lon="-4.56714">
        <ele>20.81</ele>
        <time>2021-06-27T10:35:24Z</time>
      </trkpt>
      <trkpt lat="48.35383" lon="-4.56717">
        <ele>20.32</ele>
        <time>2021-06-27T10:35:27Z</time>
      </trkpt>
      <trkpt lat="48.35358" lon="-4.56728">
        <ele>23.21</ele>
        <time>2021-06-27T10:35:32Z</time>
      </trkpt>
      <trkpt lat="48.35329" lon="-4.56742">
        <ele>25.61</ele>
        <time>2021-06-27T10:35:41Z</time>
      </trkpt>
      <trkpt lat="48.35326" lon="-4.56743">
        <ele>25.61</ele>
        <time>2021-06-27T10:35:42Z</time>
      </trkpt>
      <trkpt lat="48.35322" lon="-4.56744">
        <ele>25.61</ele>
        <time>2021-06-27T10:35:43Z</time>
      </trkpt>
      <trkpt lat="48.35314" lon="-4.56746">
        <ele>27.53</ele>
        <time>2021-06-27T10:35:46Z</time>
      </trkpt>
      <trkpt lat="48.35312" lon="-4.56746">
        <ele>27.53</ele>
        <time>2021-06-27T10:35:47Z</time>
      </trkpt>
      <trkpt lat="48.3531" lon="-4.56747">
        <ele>27.53</ele>
        <time>2021-06-27T10:35:48Z</time>
      </trkpt>
      <trkpt lat="48.35308" lon="-4.56752">
        <ele>27.53</ele>
        <time>2021-06-27T10:35:52Z</time>
      </trkpt>
      <trkpt lat="48.35309" lon="-4.56753">
        <ele>28.02</ele>
        <time>2021-06-27T10:35:53Z</time>
      </trkpt>
      <trkpt lat="48.3531" lon="-4.56754">
        <ele>28.02</ele>
        <time>2021-06-27T10:35:54Z</time>
      </trkpt>
      <trkpt lat="48.35311" lon="-4.56756">
        <ele>28.02</ele>
        <time>2021-06-27T10:35:55Z</time>
      </trkpt>
      <trkpt lat="48.35312" lon="-4.56757">
        <ele>28.02</ele>
        <time>2021-06-27T10:35:56Z</time>
      </trkpt>
      <trkpt lat="48.35313" lon="-4.5676">
        <ele>28.02</ele>
        <time>2021-06-27T10:35:57Z</time>
      </trkpt>
      <trkpt lat="48.35327" lon="-4.56799">
        <ele>30.9</ele>
        <time>2021-06-27T10:36:08Z</time>
      </trkpt>
      <trkpt lat="48.35314" lon="-4.56857">
        <ele>33.3</ele>
        <time>2021-06-27T10:36:20Z</time>
      </trkpt>
      <trkpt lat="48.35291" lon="-4.56891">
        <ele>35.23</ele>
        <time>2021-06-27T10:36:31Z</time>
      </trkpt>
      <trkpt lat="48.35254" lon="-4.5694">
        <ele>34.26</ele>
        <time>2021-06-27T10:36:44Z</time>
      </trkpt>
      <trkpt lat="48.3524" lon="-4.56972">
        <ele>32.82</ele>
        <time>2021-06-27T10:36:48Z</time>
      </trkpt>
      <trkpt lat="48.35219" lon="-4.57087">
        <ele>28.98</ele>
        <time>2021-06-27T10:37:00Z</time>
      </trkpt>
      <trkpt lat="48.35218" lon="-4.57097">
        <ele>28.98</ele>
        <time>2021-06-27T10:37:01Z</time>
      </trkpt>
      <trkpt lat="48.35211" lon="-4.57123">
        <ele>28.02</ele>
        <time>2021-06-27T10:37:04Z</time>
      </trkpt>
      <trkpt lat="48.35205" lon="-4.57137">
        <ele>27.05</ele>
        <time>2021-06-27T10:37:06Z</time>
      </trkpt>
      <trkpt lat="48.35198" lon="-4.57148">
        <ele>26.57</ele>
        <time>2021-06-27T10:37:08Z</time>
      </trkpt>
      <trkpt lat="48.35195" lon="-4.57154">
        <ele>26.57</ele>
        <time>2021-06-27T10:37:09Z</time>
      </trkpt>
      <trkpt lat="48.35192" lon="-4.57161">
        <ele>26.09</ele>
        <time>2021-06-27T10:37:10Z</time>
      </trkpt>
      <trkpt lat="48.3519" lon="-4.57169">
        <ele>26.09</ele>
        <time>2021-06-27T10:37:11Z</time>
      </trkpt>
      <trkpt lat="48.35189" lon="-4.57175">
        <ele>26.09</ele>
        <time>2021-06-27T10:37:12Z</time>
      </trkpt>
      <trkpt lat="48.35187" lon="-4.57207">
        <ele>29.46</ele>
        <time>2021-06-27T10:37:19Z</time>
      </trkpt>
      <trkpt lat="48.35189" lon="-4.5726">
        <ele>32.34</ele>
        <time>2021-06-27T10:37:31Z</time>
      </trkpt>
      <trkpt lat="48.35185" lon="-4.57317">
        <ele>34.74</ele>
        <time>2021-06-27T10:37:43Z</time>
      </trkpt>
      <trkpt lat="48.35181" lon="-4.5732">
        <ele>35.23</ele>
        <time>2021-06-27T10:37:44Z</time>
      </trkpt>
      <trkpt lat="48.35178" lon="-4.57324">
        <ele>35.23</ele>
        <time>2021-06-27T10:37:45Z</time>
      </trkpt>
      <trkpt lat="48.35176" lon="-4.57328">
        <ele>35.71</ele>
        <time>2021-06-27T10:37:46Z</time>
      </trkpt>
      <trkpt lat="48.35174" lon="-4.57332">
        <ele>35.71</ele>
        <time>2021-06-27T10:37:47Z</time>
      </trkpt>
      <trkpt lat="48.35173" lon="-4.57337">
        <ele>35.71</ele>
        <time>2021-06-27T10:37:48Z</time>
      </trkpt>
      <trkpt lat="48.35168" lon="-4.57382">
        <ele>38.59</ele>
        <time>2021-06-27T10:37:59Z</time>
      </trkpt>
      <trkpt lat="48.35155" lon="-4.57435">
        <ele>41.47</ele>
        <time>2021-06-27T10:38:12Z</time>
      </trkpt>
      <trkpt lat="48.35153" lon="-4.5744">
        <ele>41.47</ele>
        <time>2021-06-27T10:38:13Z</time>
      </trkpt>
      <trkpt lat="48.35147" lon="-4.57473">
        <ele>42.92</ele>
        <time>2021-06-27T10:38:20Z</time>
      </trkpt>
      <trkpt lat="48.35145" lon="-4.57478">
        <ele>43.4</ele>
        <time>2021-06-27T10:38:21Z</time>
      </trkpt>
      <trkpt lat="48.35133" lon="-4.57528">
        <ele>45.32</ele>
        <time>2021-06-27T10:38:32Z</time>
      </trkpt>
      <trkpt lat="48.35135" lon="-4.57568">
        <ele>47.24</ele>
        <time>2021-06-27T10:38:41Z</time>
      </trkpt>
      <trkpt lat="48.35141" lon="-4.57631">
        <ele>50.13</ele>
        <time>2021-06-27T10:38:54Z</time>
      </trkpt>
      <trkpt lat="48.35164" lon="-4.57677">
        <ele>51.09</ele>
        <time>2021-06-27T10:39:04Z</time>
      </trkpt>
      <trkpt lat="48.3519" lon="-4.57718">
        <ele>51.09</ele>
        <time>2021-06-27T10:39:13Z</time>
      </trkpt>
      <trkpt lat="48.35193" lon="-4.57723">
        <ele>51.57</ele>
        <time>2021-06-27T10:39:14Z</time>
      </trkpt>
      <trkpt lat="48.35213" lon="-4.57771">
        <ele>52.05</ele>
        <time>2021-06-27T10:39:23Z</time>
      </trkpt>
      <trkpt lat="48.35215" lon="-4.57777">
        <ele>52.53</ele>
        <time>2021-06-27T10:39:24Z</time>
      </trkpt>
      <trkpt lat="48.35221" lon="-4.57793">
        <ele>52.53</ele>
        <time>2021-06-27T10:39:27Z</time>
      </trkpt>
      <trkpt lat="48.35223" lon="-4.578">
        <ele>52.53</ele>
        <time>2021-06-27T10:39:28Z</time>
      </trkpt>
      <trkpt lat="48.35227" lon="-4.57811">
        <ele>53.01</ele>
        <time>2021-06-27T10:39:30Z</time>
      </trkpt>
      <trkpt lat="48.3523" lon="-4.57816">
        <ele>53.01</ele>
        <time>2021-06-27T10:39:31Z</time>
      </trkpt>
      <trkpt lat="48.35233" lon="-4.57821">
        <ele>53.01</ele>
        <time>2021-06-27T10:39:32Z</time>
      </trkpt>
      <trkpt lat="48.35236" lon="-4.57827">
        <ele>53.49</ele>
        <time>2021-06-27T10:39:33Z</time>
      </trkpt>
      <trkpt lat="48.35239" lon="-4.57832">
        <ele>53.49</ele>
        <time>2021-06-27T10:39:34Z</time>
      </trkpt>
      <trkpt lat="48.35243" lon="-4.57836">
        <ele>53.49</ele>
        <time>2021-06-27T10:39:35Z</time>
      </trkpt>
      <trkpt lat="48.35246" lon="-4.5784">
        <ele>53.49</ele>
        <time>2021-06-27T10:39:36Z</time>
      </trkpt>
      <trkpt lat="48.35251" lon="-4.57844">
        <ele>54.45</ele>
        <time>2021-06-27T10:39:37Z</time>
      </trkpt>
      <trkpt lat="48.35264" lon="-4.57855">
        <ele>54.93</ele>
        <time>2021-06-27T10:39:40Z</time>
      </trkpt>
      <trkpt lat="48.35267" lon="-4.57858">
        <ele>55.41</ele>
        <time>2021-06-27T10:39:41Z</time>
      </trkpt>
      <trkpt lat="48.35271" lon="-4.57861">
        <ele>55.41</ele>
        <time>2021-06-27T10:39:42Z</time>
      </trkpt>
      <trkpt lat="48.35291" lon="-4.57872">
        <ele>56.37</ele>
        <time>2021-06-27T10:39:47Z</time>
      </trkpt>
      <trkpt lat="48.35301" lon="-4.57873">
        <ele>56.37</ele>
        <time>2021-06-27T10:39:49Z</time>
      </trkpt>
      <trkpt lat="48.35354" lon="-4.57859">
        <ele>58.3</ele>
        <time>2021-06-27T10:40:01Z</time>
      </trkpt>
      <trkpt lat="48.35405" lon="-4.57843">
        <ele>60.22</ele>
        <time>2021-06-27T10:40:13Z</time>
      </trkpt>
      <trkpt lat="48.35455" lon="-4.57863">
        <ele>62.14</ele>
        <time>2021-06-27T10:40:25Z</time>
      </trkpt>
      <trkpt lat="48.35504" lon="-4.57904">
        <ele>63.58</ele>
        <time>2021-06-27T10:40:38Z</time>
      </trkpt>
      <trkpt lat="48.35531" lon="-4.5793">
        <ele>64.07</ele>
        <time>2021-06-27T10:40:45Z</time>
      </trkpt>
      <trkpt lat="48.3557" lon="-4.57999">
        <ele>66.95</ele>
        <time>2021-06-27T10:41:00Z</time>
      </trkpt>
      <trkpt lat="48.35607" lon="-4.58054">
        <ele>69.83</ele>
        <time>2021-06-27T10:41:14Z</time>
      </trkpt>
      <trkpt lat="48.35607" lon="-4.5806">
        <ele>70.31</ele>
        <time>2021-06-27T10:41:15Z</time>
      </trkpt>
      <trkpt lat="48.35606" lon="-4.58065">
        <ele>70.31</ele>
        <time>2021-06-27T10:41:16Z</time>
      </trkpt>
      <trkpt lat="48.35604" lon="-4.58069">
        <ele>70.31</ele>
        <time>2021-06-27T10:41:17Z</time>
      </trkpt>
      <trkpt lat="48.35601" lon="-4.58073">
        <ele>70.31</ele>
        <time>2021-06-27T10:41:18Z</time>
      </trkpt>
      <trkpt lat="48.35598" lon="-4.58077">
        <ele>70.31</ele>
        <time>2021-06-27T10:41:19Z</time>
      </trkpt>
      <trkpt lat="48.35595" lon="-4.58081">
        <ele>70.31</ele>
        <time>2021-06-27T10:41:20Z</time>
      </trkpt>
      <trkpt lat="48.35555" lon="-4.58144">
        <ele>71.76</ele>
        <time>2021-06-27T10:41:35Z</time>
      </trkpt>
      <trkpt lat="48.35541" lon="-4.58166">
        <ele>71.76</ele>
        <time>2021-06-27T10:41:40Z</time>
      </trkpt>
      <trkpt lat="48.355" lon="-4.58245">
        <ele>73.2</ele>
        <time>2021-06-27T10:41:56Z</time>
      </trkpt>
      <trkpt lat="48.35472" lon="-4.5832">
        <ele>71.76</ele>
        <time>2021-06-27T10:42:08Z</time>
      </trkpt>
      <trkpt lat="48.35451" lon="-4.58386">
        <ele>68.87</ele>
        <time>2021-06-27T10:42:17Z</time>
      </trkpt>
      <trkpt lat="48.35445" lon="-4.58401">
        <ele>67.91</ele>
        <time>2021-06-27T10:42:19Z</time>
      </trkpt>
      <trkpt lat="48.3544" lon="-4.58419">
        <ele>66.47</ele>
        <time>2021-06-27T10:42:21Z</time>
      </trkpt>
      <trkpt lat="48.35438" lon="-4.5843">
        <ele>66.47</ele>
        <time>2021-06-27T10:42:22Z</time>
      </trkpt>
      <trkpt lat="48.35436" lon="-4.58441">
        <ele>65.03</ele>
        <time>2021-06-27T10:42:23Z</time>
      </trkpt>
      <trkpt lat="48.35431" lon="-4.58489">
        <ele>62.14</ele>
        <time>2021-06-27T10:42:27Z</time>
      </trkpt>
      <trkpt lat="48.35423" lon="-4.58585">
        <ele>59.74</ele>
        <time>2021-06-27T10:42:35Z</time>
      </trkpt>
      <trkpt lat="48.35421" lon="-4.58596">
        <ele>59.26</ele>
        <time>2021-06-27T10:42:36Z</time>
      </trkpt>
      <trkpt lat="48.35419" lon="-4.58606">
        <ele>59.74</ele>
        <time>2021-06-27T10:42:37Z</time>
      </trkpt>
      <trkpt lat="48.35412" lon="-4.58634">
        <ele>59.74</ele>
        <time>2021-06-27T10:42:40Z</time>
      </trkpt>
      <trkpt lat="48.35409" lon="-4.58642">
        <ele>58.78</ele>
        <time>2021-06-27T10:42:41Z</time>
      </trkpt>
      <trkpt lat="48.35405" lon="-4.5865">
        <ele>58.78</ele>
        <time>2021-06-27T10:42:42Z</time>
      </trkpt>
      <trkpt lat="48.35381" lon="-4.58703">
        <ele>57.82</ele>
        <time>2021-06-27T10:42:49Z</time>
      </trkpt>
      <trkpt lat="48.35377" lon="-4.58706">
        <ele>57.82</ele>
        <time>2021-06-27T10:42:50Z</time>
      </trkpt>
      <trkpt lat="48.35373" lon="-4.58707">
        <ele>57.34</ele>
        <time>2021-06-27T10:42:51Z</time>
      </trkpt>
      <trkpt lat="48.35369" lon="-4.58706">
        <ele>56.37</ele>
        <time>2021-06-27T10:42:52Z</time>
      </trkpt>
      <trkpt lat="48.35364" lon="-4.58704">
        <ele>55.41</ele>
        <time>2021-06-27T10:42:53Z</time>
      </trkpt>
      <trkpt lat="48.3536" lon="-4.587">
        <ele>54.93</ele>
        <time>2021-06-27T10:42:54Z</time>
      </trkpt>
      <trkpt lat="48.35355" lon="-4.58695">
        <ele>53.49</ele>
        <time>2021-06-27T10:42:55Z</time>
      </trkpt>
      <trkpt lat="48.3535" lon="-4.58691">
        <ele>53.01</ele>
        <time>2021-06-27T10:42:56Z</time>
      </trkpt>
      <trkpt lat="48.35344" lon="-4.58688">
        <ele>52.05</ele>
        <time>2021-06-27T10:42:57Z</time>
      </trkpt>
      <trkpt lat="48.35331" lon="-4.58679">
        <ele>51.57</ele>
        <time>2021-06-27T10:42:59Z</time>
      </trkpt>
      <trkpt lat="48.3529" lon="-4.58654">
        <ele>54.93</ele>
        <time>2021-06-27T10:43:06Z</time>
      </trkpt>
      <trkpt lat="48.35285" lon="-4.58652">
        <ele>54.45</ele>
        <time>2021-06-27T10:43:07Z</time>
      </trkpt>
      <trkpt lat="48.35269" lon="-4.58643">
        <ele>56.37</ele>
        <time>2021-06-27T10:43:11Z</time>
      </trkpt>
      <trkpt lat="48.35265" lon="-4.58642">
        <ele>56.86</ele>
        <time>2021-06-27T10:43:12Z</time>
      </trkpt>
      <trkpt lat="48.35261" lon="-4.5864">
        <ele>56.86</ele>
        <time>2021-06-27T10:43:13Z</time>
      </trkpt>
      <trkpt lat="48.35215" lon="-4.58618">
        <ele>60.22</ele>
        <time>2021-06-27T10:43:26Z</time>
      </trkpt>
      <trkpt lat="48.35168" lon="-4.5862">
        <ele>60.7</ele>
        <time>2021-06-27T10:43:39Z</time>
      </trkpt>
      <trkpt lat="48.35146" lon="-4.58625">
        <ele>58.78</ele>
        <time>2021-06-27T10:43:48Z</time>
      </trkpt>
      <trkpt lat="48.35128" lon="-4.58628">
        <ele>55.89</ele>
        <time>2021-06-27T10:43:52Z</time>
      </trkpt>
      <trkpt lat="48.35123" lon="-4.58628">
        <ele>55.89</ele>
        <time>2021-06-27T10:43:53Z</time>
      </trkpt>
      <trkpt lat="48.35105" lon="-4.58631">
        <ele>52.05</ele>
        <time>2021-06-27T10:43:57Z</time>
      </trkpt>
      <trkpt lat="48.35097" lon="-4.58632">
        <ele>50.13</ele>
        <time>2021-06-27T10:43:59Z</time>
      </trkpt>
      <trkpt lat="48.35092" lon="-4.58633">
        <ele>49.16</ele>
        <time>2021-06-27T10:44:00Z</time>
      </trkpt>
      <trkpt lat="48.35083" lon="-4.58634">
        <ele>47.72</ele>
        <time>2021-06-27T10:44:02Z</time>
      </trkpt>
      <trkpt lat="48.35079" lon="-4.58633">
        <ele>46.76</ele>
        <time>2021-06-27T10:44:03Z</time>
      </trkpt>
      <trkpt lat="48.35075" lon="-4.58633">
        <ele>46.28</ele>
        <time>2021-06-27T10:44:04Z</time>
      </trkpt>
      <trkpt lat="48.35071" lon="-4.58632">
        <ele>45.32</ele>
        <time>2021-06-27T10:44:05Z</time>
      </trkpt>
      <trkpt lat="48.35068" lon="-4.5863">
        <ele>44.36</ele>
        <time>2021-06-27T10:44:06Z</time>
      </trkpt>
      <trkpt lat="48.35065" lon="-4.58629">
        <ele>43.88</ele>
        <time>2021-06-27T10:44:07Z</time>
      </trkpt>
      <trkpt lat="48.35048" lon="-4.58624">
        <ele>40.99</ele>
        <time>2021-06-27T10:44:11Z</time>
      </trkpt>
      <trkpt lat="48.35027" lon="-4.58617">
        <ele>37.15</ele>
        <time>2021-06-27T10:44:16Z</time>
      </trkpt>
      <trkpt lat="48.35019" lon="-4.58616">
        <ele>35.71</ele>
        <time>2021-06-27T10:44:18Z</time>
      </trkpt>
      <trkpt lat="48.35004" lon="-4.58617">
        <ele>32.34</ele>
        <time>2021-06-27T10:44:23Z</time>
      </trkpt>
      <trkpt lat="48.3499" lon="-4.58616">
        <ele>28.5</ele>
        <time>2021-06-27T10:44:28Z</time>
      </trkpt>
      <trkpt lat="48.34985" lon="-4.58617">
        <ele>26.57</ele>
        <time>2021-06-27T10:44:30Z</time>
      </trkpt>
      <trkpt lat="48.34983" lon="-4.58619">
        <ele>25.13</ele>
        <time>2021-06-27T10:44:31Z</time>
      </trkpt>
      <trkpt lat="48.3498" lon="-4.58621">
        <ele>24.17</ele>
        <time>2021-06-27T10:44:32Z</time>
      </trkpt>
      <trkpt lat="48.3497" lon="-4.58628">
        <ele>20.81</ele>
        <time>2021-06-27T10:44:35Z</time>
      </trkpt>
      <trkpt lat="48.34964" lon="-4.58632">
        <ele>19.84</ele>
        <time>2021-06-27T10:44:36Z</time>
      </trkpt>
      <trkpt lat="48.34958" lon="-4.58636">
        <ele>19.84</ele>
        <time>2021-06-27T10:44:37Z</time>
      </trkpt>
      <trkpt lat="48.34946" lon="-4.58644">
        <ele>18.4</ele>
        <time>2021-06-27T10:44:39Z</time>
      </trkpt>
      <trkpt lat="48.3494" lon="-4.58649">
        <ele>17.44</ele>
        <time>2021-06-27T10:44:40Z</time>
      </trkpt>
      <trkpt lat="48.34934" lon="-4.58654">
        <ele>17.44</ele>
        <time>2021-06-27T10:44:41Z</time>
      </trkpt>
      <trkpt lat="48.34927" lon="-4.58655">
        <ele>16.96</ele>
        <time>2021-06-27T10:44:42Z</time>
      </trkpt>
      <trkpt lat="48.3492" lon="-4.58656">
        <ele>16.48</ele>
        <time>2021-06-27T10:44:43Z</time>
      </trkpt>
      <trkpt lat="48.34915" lon="-4.58657">
        <ele>16</ele>
        <time>2021-06-27T10:44:44Z</time>
      </trkpt>
      <trkpt lat="48.34906" lon="-4.58659">
        <ele>15.04</ele>
        <time>2021-06-27T10:44:46Z</time>
      </trkpt>
      <trkpt lat="48.34902" lon="-4.58663">
        <ele>14.56</ele>
        <time>2021-06-27T10:44:47Z</time>
      </trkpt>
      <trkpt lat="48.34899" lon="-4.58668">
        <ele>14.08</ele>
        <time>2021-06-27T10:44:48Z</time>
      </trkpt>
      <trkpt lat="48.34895" lon="-4.58675">
        <ele>14.08</ele>
        <time>2021-06-27T10:44:49Z</time>
      </trkpt>
      <trkpt lat="48.34893" lon="-4.58683">
        <ele>14.08</ele>
        <time>2021-06-27T10:44:50Z</time>
      </trkpt>
      <trkpt lat="48.34891" lon="-4.5869">
        <ele>13.12</ele>
        <time>2021-06-27T10:44:51Z</time>
      </trkpt>
      <trkpt lat="48.34889" lon="-4.58698">
        <ele>13.12</ele>
        <time>2021-06-27T10:44:52Z</time>
      </trkpt>
      <trkpt lat="48.34883" lon="-4.58709">
        <ele>13.12</ele>
        <time>2021-06-27T10:44:54Z</time>
      </trkpt>
      <trkpt lat="48.34884" lon="-4.58712">
        <ele>13.12</ele>
        <time>2021-06-27T10:44:55Z</time>
      </trkpt>
      <trkpt lat="48.34885" lon="-4.58714">
        <ele>14.56</ele>
        <time>2021-06-27T10:44:56Z</time>
      </trkpt>
      <trkpt lat="48.34887" lon="-4.58714">
        <ele>14.56</ele>
        <time>2021-06-27T10:44:57Z</time>
      </trkpt>
      <trkpt lat="48.34889" lon="-4.58715">
        <ele>14.56</ele>
        <time>2021-06-27T10:44:58Z</time>
      </trkpt>
      <trkpt lat="48.34924" lon="-4.5871">
        <ele>15.04</ele>
        <time>2021-06-27T10:45:09Z</time>
      </trkpt>
      <trkpt lat="48.34975" lon="-4.58718">
        <ele>17.44</ele>
        <time>2021-06-27T10:45:23Z</time>
      </trkpt>
      <trkpt lat="48.35012" lon="-4.58751">
        <ele>19.36</ele>
        <time>2021-06-27T10:45:34Z</time>
      </trkpt>
      <trkpt lat="48.35038" lon="-4.5881">
        <ele>19.84</ele>
        <time>2021-06-27T10:45:45Z</time>
      </trkpt>
      <trkpt lat="48.35043" lon="-4.58819">
        <ele>19.84</ele>
        <time>2021-06-27T10:45:47Z</time>
      </trkpt>
      <trkpt lat="48.35046" lon="-4.58824">
        <ele>19.84</ele>
        <time>2021-06-27T10:45:48Z</time>
      </trkpt>
      <trkpt lat="48.3505" lon="-4.58827">
        <ele>19.84</ele>
        <time>2021-06-27T10:45:49Z</time>
      </trkpt>
      <trkpt lat="48.35054" lon="-4.58831">
        <ele>19.84</ele>
        <time>2021-06-27T10:45:50Z</time>
      </trkpt>
      <trkpt lat="48.35058" lon="-4.58834">
        <ele>20.32</ele>
        <time>2021-06-27T10:45:51Z</time>
      </trkpt>
      <trkpt lat="48.35062" lon="-4.58837">
        <ele>20.32</ele>
        <time>2021-06-27T10:45:52Z</time>
      </trkpt>
      <trkpt lat="48.3511" lon="-4.58868">
        <ele>23.69</ele>
        <time>2021-06-27T10:46:05Z</time>
      </trkpt>
      <trkpt lat="48.35153" lon="-4.58893">
        <ele>25.61</ele>
        <time>2021-06-27T10:46:17Z</time>
      </trkpt>
      <trkpt lat="48.35204" lon="-4.58926">
        <ele>28.5</ele>
        <time>2021-06-27T10:46:31Z</time>
      </trkpt>
      <trkpt lat="48.35224" lon="-4.58958">
        <ele>28.5</ele>
        <time>2021-06-27T10:46:38Z</time>
      </trkpt>
      <trkpt lat="48.35226" lon="-4.58964">
        <ele>28.5</ele>
        <time>2021-06-27T10:46:39Z</time>
      </trkpt>
      <trkpt lat="48.35236" lon="-4.59022">
        <ele>31.86</ele>
        <time>2021-06-27T10:46:50Z</time>
      </trkpt>
      <trkpt lat="48.3526" lon="-4.59077">
        <ele>33.78</ele>
        <time>2021-06-27T10:47:02Z</time>
      </trkpt>
      <trkpt lat="48.35304" lon="-4.59095">
        <ele>35.23</ele>
        <time>2021-06-27T10:47:15Z</time>
      </trkpt>
      <trkpt lat="48.35315" lon="-4.5909">
        <ele>35.23</ele>
        <time>2021-06-27T10:47:18Z</time>
      </trkpt>
      <trkpt lat="48.35319" lon="-4.59089">
        <ele>35.23</ele>
        <time>2021-06-27T10:47:19Z</time>
      </trkpt>
      <trkpt lat="48.3534" lon="-4.59079">
        <ele>35.71</ele>
        <time>2021-06-27T10:47:25Z</time>
      </trkpt>
      <trkpt lat="48.35352" lon="-4.59074">
        <ele>36.19</ele>
        <time>2021-06-27T10:47:28Z</time>
      </trkpt>
      <trkpt lat="48.35356" lon="-4.59072">
        <ele>36.19</ele>
        <time>2021-06-27T10:47:29Z</time>
      </trkpt>
      <trkpt lat="48.35364" lon="-4.59067">
        <ele>37.63</ele>
        <time>2021-06-27T10:47:32Z</time>
      </trkpt>
      <trkpt lat="48.35406" lon="-4.59069">
        <ele>38.59</ele>
        <time>2021-06-27T10:47:43Z</time>
      </trkpt>
      <trkpt lat="48.35443" lon="-4.59076">
        <ele>40.99</ele>
        <time>2021-06-27T10:47:53Z</time>
      </trkpt>
      <trkpt lat="48.35473" lon="-4.59067">
        <ele>43.4</ele>
        <time>2021-06-27T10:48:04Z</time>
      </trkpt>
      <trkpt lat="48.35507" lon="-4.59048">
        <ele>46.28</ele>
        <time>2021-06-27T10:48:16Z</time>
      </trkpt>
      <trkpt lat="48.35554" lon="-4.59025">
        <ele>49.16</ele>
        <time>2021-06-27T10:48:30Z</time>
      </trkpt>
      <trkpt lat="48.35581" lon="-4.58964">
        <ele>51.57</ele>
        <time>2021-06-27T10:48:45Z</time>
      </trkpt>
      <trkpt lat="48.35594" lon="-4.58899">
        <ele>54.45</ele>
        <time>2021-06-27T10:49:01Z</time>
      </trkpt>
      <trkpt lat="48.35621" lon="-4.58859">
        <ele>57.34</ele>
        <time>2021-06-27T10:49:15Z</time>
      </trkpt>
      <trkpt lat="48.35645" lon="-4.58837">
        <ele>59.74</ele>
        <time>2021-06-27T10:49:28Z</time>
      </trkpt>
      <trkpt lat="48.35678" lon="-4.58806">
        <ele>62.14</ele>
        <time>2021-06-27T10:49:43Z</time>
      </trkpt>
      <trkpt lat="48.35721" lon="-4.58767">
        <ele>65.03</ele>
        <time>2021-06-27T10:49:56Z</time>
      </trkpt>
      <trkpt lat="48.35755" lon="-4.58745">
        <ele>68.39</ele>
        <time>2021-06-27T10:50:09Z</time>
      </trkpt>
      <trkpt lat="48.35796" lon="-4.58749">
        <ele>70.79</ele>
        <time>2021-06-27T10:50:23Z</time>
      </trkpt>
      <trkpt lat="48.35839" lon="-4.58737">
        <ele>74.16</ele>
        <time>2021-06-27T10:50:39Z</time>
      </trkpt>
      <trkpt lat="48.35857" lon="-4.58681">
        <ele>76.08</ele>
        <time>2021-06-27T10:50:53Z</time>
      </trkpt>
      <trkpt lat="48.35873" lon="-4.58597">
        <ele>79.45</ele>
        <time>2021-06-27T10:51:13Z</time>
      </trkpt>
      <trkpt lat="48.35885" lon="-4.58529">
        <ele>81.85</ele>
        <time>2021-06-27T10:51:29Z</time>
      </trkpt>
      <trkpt lat="48.35899" lon="-4.58448">
        <ele>84.73</ele>
        <time>2021-06-27T10:51:48Z</time>
      </trkpt>
      <trkpt lat="48.35912" lon="-4.5838">
        <ele>86.18</ele>
        <time>2021-06-27T10:52:04Z</time>
      </trkpt>
      <trkpt lat="48.35934" lon="-4.58291">
        <ele>86.18</ele>
        <time>2021-06-27T10:52:21Z</time>
      </trkpt>
      <trkpt lat="48.35966" lon="-4.58202">
        <ele>77.6</ele>
        <time>2021-06-27T10:52:35Z</time>
      </trkpt>
    </trkseg>
  </trk>
</gpx>